[[{"header":{"parameterUnit":"m.s-1","parameterCategory":1,"la1":31.0,"la2":29.5877,"lo1":-88.7671,"lo2":-86.6584,"dy":0.0162,"dx":0.0185,"nx":115,"ny":88,"refTime":"2026-04-17T00:00:00:Z","depth":0,"parameterNumber":2,"parameterNumberName":"U-component_of_WINDS"},"data":[0.0,0.0,0.0,0.0,0.0,0.0,0.0,0.0,0.0,0.0,0.0,0.0,0.0,0.0,0.0,0.0,0.0,0.0,0.0,0.0,0.0,0.0,0.0,0.0,0.0,0.0,0.0,0.0,0.0,0.0,0.0,0.0,0.0,0.0,0.0,0.0,0.0,0.0,0.0,0.0,0.0,0.0,0.0,0.0,0.0,0.0,0.0,0.0,0.0,0.0,0.0,0.0,0.0,0.0,0.0,0.0,0.0,0.0,0.0,0.0,0.0,0.0,0.0,0.0,0.0,0.0,0.0,0.0,0.0,0.0,0.0,0.0,0.0,0.0,0.0,0.0,0.0,0.0,0.0,0.0,0.0,0.0,0.0,0.0,0.0,0.0,0.0,0.0,0.0,0.0,0.0,0.0,0.0,0.0,0.0,0.0,0.0,0.0,0.0,0.0,0.0,0.0,0.0,0.0,0.0,0.0,0.0,0.0,0.0,0.0,0.0,0.0,0.0,0.0,0.0,0.0,0.0,0.0,0.0,0.0,0.0,0.0,0.0,0.0,0.0,0.0,0.0,0.0,0.0,0.0,0.0,0.0,0.0,0.0,0.0,0.0,0.0,0.0,0.0,0.0,0.0,0.0,0.0,0.0,0.0,0.0,0.0,0.0,0.0,0.0,0.0,0.0,0.0,0.0,0.0,0.0,0.0,0.0,0.0,0.0,0.0,0.0,0.0,0.0,0.0,0.0,0.0,0.0,0.0,0.0,0.0,0.0,0.0,0.0,0.0,0.0,0.0,0.0,0.0,0.0,0.0,0.0,0.0,0.0,0.0,0.0,0.0,0.0,0.0,0.0,0.0,0.0,0.0,0.0,0.0,0.0,0.0,0.0,0.0,0.0,0.0,0.0,0.0,0.0,0.0,0.0,0.0,0.0,0.0,0.0,0.0,0.0,0.0,0.0,0.0,0.0,0.0,0.0,0.0,0.0,0.0,0.0,0.0,0.0,0.0,0.0,0.0,0.0,0.0,0.0,0.0,0.0,0.0,0.0,0.0,0.0,0.0,0.0,0.0,0.0,0.0,0.0,0.0,0.0,0.0,0.0,0.0,0.0,0.0,0.0,0.0,0.0,0.0,0.0,0.0,0.0,0.0,0.0,0.0,0.0,0.0,0.0,0.0,0.0,0.0,0.0,0.0,0.0,0.0,0.0,0.0,0.0,0.0,0.0,0.0,0.0,0.0,0.0,0.0,0.0,0.0,0.0,0.0,0.0,0.0,0.0,0.0,0.0,0.0,0.0,0.0,0.0,0.0,0.0,0.0,0.0,0.0,0.0,0.0,0.0,0.0,0.0,0.0,0.0,0.0,0.0,0.0,0.0,0.0,0.0,0.0,0.0,0.0,0.0,0.0,0.0,0.0,0.0,0.0,0.0,0.0,0.0,0.0,0.0,0.0,0.0,0.0,0.0,0.0,0.0,0.0,0.0,0.0,0.0,0.0,0.0,0.0,0.0,0.0,0.0,0.0,0.0,0.0,0.0,0.0,0.0,0.0,0.0,0.0,0.0,0.0,0.0,0.0,0.0,0.0,0.0,0.0,0.0,0.0,0.0,0.0,0.0,0.0,0.0,0.0,0.0,0.0,0.0,0.0,0.0,0.0,0.0,0.0,0.0,0.0,0.0,0.0,0.0,0.0,0.0,0.0,0.0,0.0,0.0,0.0,0.0,0.0,0.0,0.0,0.0,0.0,0.0,0.0,0.0,0.0,0.0,0.0,0.0,0.0,0.0,0.0,0.0,0.0,0.0,0.0,0.0,0.0,0.0,0.0,0.0,0.0,0.0,0.0,0.0,0.0,0.0,0.0,0.0,0.0,0.0,0.0,0.0,0.0,0.0,0.0,0.0,0.0,0.0,0.0,0.0,0.0,0.0,0.0,0.0,0.0,0.0,0.0,0.0,0.0,0.0,0.0,0.0,0.0,0.0,0.0,0.0,0.0,0.0,0.0,0.0,0.0,0.0,0.0,0.0,0.0,0.0,0.0,0.0,0.0,0.0,0.0,0.0,0.0,0.0,0.0,0.0,0.0,0.0,0.0,0.0,0.0,0.0,0.0,0.0,0.0,0.0,0.0,0.0,0.0,0.0,0.0,0.0,0.0,0.0,0.0,0.0,0.0,0.0,0.0,0.0,0.0,0.0,0.0,0.0,0.0,0.0,0.0,0.0,0.0,0.0,0.0,0.0,0.0,0.0,0.0,0.0,0.0,0.0,0.0,0.0,0.0,0.0,0.0,0.0,0.0,0.0,0.0,0.0,0.0,0.0,0.0,0.0,0.0,0.0,0.0,0.0,0.0,0.0,0.0,0.0,0.0,0.0,0.0,0.0,0.0,0.0,0.0,0.0,0.0,0.0,0.0,0.0,0.0,0.0,0.0,0.0,0.0,0.0,0.0,0.0,0.0,0.0,0.0,0.0,0.0,0.0,0.0,0.0,0.0,0.0,0.0,0.0,0.0,0.0,0.0,0.0,0.0,0.0,0.0,0.0,0.0,0.0,0.0,0.0,0.0,0.0,0.0,0.0,0.0,0.0,0.0,0.0,0.0,0.0,0.0,0.0,0.0,0.0,0.0,0.0,0.0,0.0,0.0,0.0,0.0,0.0,0.0,0.0,0.0,0.0,0.0,0.0,0.0,0.0,0.0,0.0,0.0,0.0,0.0,0.0,0.0,0.0,0.0,0.0,0.0,0.0,0.0,0.0,0.0,0.0,0.0,0.0,0.0,0.0,0.0,0.0,0.0,0.0,0.0,0.0,0.0,0.0,0.0,0.0,0.0,0.0,0.0,0.0,0.0,0.0,0.0,0.0,0.0,0.0,0.0,0.0,0.0,0.0,0.0,0.0,0.0,0.0,0.0,0.0,0.0,0.0,0.0,0.0,0.0,0.0,0.0,0.0,0.0,0.0,0.0,0.0,0.0,0.0,0.0,0.0,0.0,0.0,0.0,0.0,0.0,0.0,0.0,0.0,0.0,0.0,0.0,0.0,0.0,0.0,0.0,0.0,0.0,0.0,0.0,0.0,0.0,0.0,0.0,0.0,0.0,0.0,0.0,0.0,0.0,0.0,0.0,0.0,0.0,0.0,0.0,0.0,0.0,0.0,0.0,0.0,0.0,0.0,0.0,0.0,0.0,0.0,0.0,0.0,0.0,0.0,0.0,0.0,0.0,0.0,0.0,0.0,0.0,0.0,0.0,0.0,0.0,0.0,0.0,0.0,0.0,0.0,0.0,0.0,0.0,0.0,0.0,0.0,0.0,0.0,0.0,0.0,0.0,0.0,0.0,0.0,0.0,0.0,0.0,0.0,0.0,0.0,0.0,0.0,0.0,0.0,0.0,0.0,0.0,0.0,0.0,0.0,0.0,0.0,0.0,0.0,0.0,0.0,0.0,0.0,0.0,0.0,0.0,0.0,0.0,0.0,0.0,0.0,0.0,0.0,0.0,0.0,0.0,0.0,0.0,0.0,0.0,0.0,0.0,0.0,0.0,0.0,0.0,0.0,0.0,0.0,0.0,0.0,0.0,0.0,0.0,0.0,0.0,0.0,0.0,0.0,0.0,0.0,0.0,0.0,0.0,0.0,0.0,0.0,0.0,0.0,0.0,0.0,0.0,0.0,0.0,0.0,0.0,0.0,0.0,0.0,0.0,0.0,0.0,0.0,0.0,0.0,0.0,0.0,0.0,0.0,0.0,0.0,0.0,0.0,0.0,0.0,0.0,0.0,0.0,0.0,0.0,0.0,0.0,0.0,0.0,0.0,0.0,0.0,0.0,0.0,0.0,0.0,0.0,0.0,0.0,0.0,0.0,0.0,0.0,0.0,0.0,0.0,0.0,0.0,0.0,0.0,0.0,0.0,0.0,0.0,0.0,0.0,0.0,0.0,0.0,0.0,0.0,0.0,0.0,0.0,0.0,0.0,0.0,0.0,0.0,0.0,0.0,0.0,0.0,0.0,0.0,0.0,0.0,0.0,0.0,0.0,0.0,0.0,0.0,0.0,0.0,0.0,0.0,0.0,0.0,0.0,0.0,0.0,0.0,0.0,0.0,0.0,0.0,0.0,0.0,0.0,0.0,0.0,0.0,0.0,0.0,0.0,0.0,0.0,0.0,0.0,0.0,0.0,0.0,0.0,0.0,0.0,0.0,0.0,0.0,0.0,0.0,0.0,0.0,0.0,0.0,0.0,0.0,0.0,0.0,0.0,0.0,0.0,0.0,0.0,0.0,0.0,0.0,0.0,0.0,0.0,-1.2735,0.0,0.0,0.0,0.0,0.0,0.0,0.0,0.0,0.0,0.0,0.0,0.0,0.0,0.0,0.0,0.0,0.0,0.0,0.0,0.0,0.0,0.0,0.0,0.0,0.0,0.0,0.0,0.0,0.0,0.0,0.0,0.0,0.0,0.0,0.0,0.0,0.0,0.0,0.0,0.0,0.0,0.0,0.0,0.0,0.0,0.0,0.0,0.0,0.0,0.0,0.0,0.0,0.0,0.0,0.0,0.0,0.0,0.0,0.0,0.0,0.0,0.0,0.0,0.0,0.0,0.0,0.0,0.0,0.0,0.0,0.0,0.0,0.0,0.0,0.0,0.0,0.0,0.0,0.0,0.0,0.0,0.0,0.0,0.0,0.0,0.0,0.0,0.0,0.0,0.0,0.0,0.0,0.0,0.0,0.0,0.0,0.0,0.0,0.0,0.0,0.0,0.0,0.0,0.0,0.0,0.0,0.0,0.0,0.0,0.0,-1.4999,-1.4995,-1.4995,-1.4198,-1.2604,0.0,0.0,0.0,0.0,0.0,0.0,0.0,0.0,0.0,0.0,0.0,0.0,0.0,0.0,0.0,0.0,0.0,0.0,0.0,0.0,0.0,0.0,0.0,0.0,0.0,0.0,0.0,0.0,0.0,0.0,0.0,0.0,0.0,0.0,0.0,0.0,0.0,0.0,0.0,0.0,0.0,0.0,0.0,0.0,0.0,0.0,0.0,0.0,0.0,0.0,0.0,0.0,0.0,0.0,0.0,0.0,0.0,0.0,0.0,0.0,0.0,0.0,0.0,0.0,0.0,0.0,0.0,0.0,0.0,0.0,0.0,0.0,0.0,0.0,0.0,0.0,0.0,0.0,0.0,0.0,0.0,0.0,0.0,0.0,0.0,0.0,0.0,0.0,0.0,0.0,0.0,0.0,0.0,0.0,0.0,0.0,0.0,0.0,0.0,0.0,0.0,0.0,0.0,0.0,0.0,0.0,0.0,0.0,0.0,0.0,0.0,0.0,-1.4948,-1.4275,-1.3006,0.0,0.0,0.0,0.0,0.0,0.0,0.0,0.0,0.0,0.0,0.0,0.0,0.0,0.0,0.0,0.0,0.0,0.0,0.0,0.0,0.0,0.0,0.0,0.0,0.0,0.0,0.0,0.0,0.0,0.0,0.0,0.0,0.0,0.0,0.0,0.0,0.0,0.0,0.0,0.0,0.0,0.0,0.0,0.0,0.0,0.0,0.0,0.0,0.0,0.0,0.0,0.0,0.0,0.0,0.0,0.0,0.0,0.0,0.0,0.0,0.0,0.0,0.0,0.0,0.0,0.0,0.0,0.0,0.0,0.0,0.0,0.0,0.0,0.0,0.0,0.0,0.0,0.0,0.0,0.0,0.0,0.0,0.0,0.0,0.0,0.0,0.0,0.0,0.0,0.0,0.0,0.0,0.0,0.0,0.0,0.0,0.0,0.0,0.0,0.0,0.0,0.0,0.0,0.0,0.0,0.0,0.0,0.0,0.0,0.0,-1.5064,-1.5769,-1.5102,0.0,-1.4512,0.0,0.0,0.0,0.0,0.0,0.0,0.0,0.0,0.0,0.0,0.0,0.0,0.0,0.0,0.0,0.0,0.0,0.0,0.0,0.0,0.0,0.0,0.0,0.0,0.0,0.0,0.0,0.0,0.0,0.0,0.0,0.0,0.0,0.0,0.0,0.0,0.0,0.0,0.0,0.0,0.0,0.0,0.0,0.0,0.0,0.0,0.0,0.0,0.0,0.0,0.0,0.0,0.0,0.0,0.0,0.0,0.0,0.0,0.0,0.0,0.0,0.0,0.0,0.0,0.0,0.0,0.0,0.0,0.0,0.0,0.0,0.0,0.0,0.0,0.0,0.0,0.0,0.0,0.0,0.0,0.0,0.0,0.0,0.0,0.0,0.0,0.0,0.0,0.0,0.0,0.0,0.0,0.0,0.0,0.0,0.0,0.0,0.0,0.0,0.0,0.0,0.0,0.0,0.0,0.0,0.0,0.0,0.0,0.0,0.0,-1.5672,-1.6473,-1.526,-1.4638,0.0,0.0,0.0,0.0,0.0,0.0,0.0,0.0,0.0,0.0,0.0,0.0,0.0,0.0,0.0,0.0,0.0,0.0,0.0,0.0,0.0,0.0,0.0,0.0,0.0,0.0,0.0,0.0,0.0,0.0,0.0,0.0,0.0,0.0,0.0,0.0,0.0,0.0,0.0,0.0,0.0,0.0,0.0,0.0,0.0,0.0,0.0,0.0,0.0,0.0,0.0,0.0,0.0,0.0,0.0,0.0,0.0,0.0,0.0,0.0,0.0,0.0,0.0,0.0,0.0,0.0,0.0,0.0,0.0,0.0,0.0,0.0,0.0,0.0,0.0,0.0,0.0,0.0,0.0,0.0,0.0,0.0,0.0,0.0,0.0,0.0,0.0,0.0,0.0,0.0,0.0,0.0,0.0,0.0,0.0,0.0,0.0,0.0,0.0,0.0,0.0,0.0,0.0,0.0,0.0,0.0,0.0,0.0,0.0,0.0,-1.505,-1.5631,-1.6138,-1.5111,-1.4412,-1.4251,0.0,0.0,0.0,0.0,0.0,0.0,0.0,0.0,0.0,0.0,0.0,0.0,0.0,0.0,0.0,0.0,0.0,0.0,0.0,0.0,0.0,0.0,0.0,0.0,0.0,0.0,0.0,0.0,0.0,0.0,0.0,0.0,0.0,0.0,0.0,0.0,0.0,0.0,0.0,0.0,0.0,0.0,0.0,0.0,0.0,0.0,0.0,0.0,0.0,0.0,0.0,0.0,0.0,0.0,0.0,0.0,0.0,0.0,0.0,0.0,0.0,0.0,0.0,0.0,0.0,0.0,0.0,0.0,0.0,0.0,0.0,0.0,0.0,0.0,0.0,0.0,0.0,0.0,0.0,0.0,0.0,0.0,0.0,0.0,0.0,0.0,0.0,0.0,0.0,0.0,0.0,0.0,0.0,0.0,0.0,0.0,0.0,0.0,0.0,0.0,0.0,0.0,0.0,0.0,0.0,0.0,0.0,0.0,-1.4488,-1.4567,-1.4603,-1.4677,-1.453,-1.4138,0.0,0.0,0.0,0.0,0.0,0.0,0.0,0.0,0.0,0.0,0.0,0.0,0.0,0.0,0.0,0.0,0.0,0.0,0.0,0.0,0.0,0.0,0.0,0.0,0.0,0.0,0.0,0.0,0.0,0.0,0.0,0.0,0.0,0.0,0.0,0.0,0.0,0.0,0.0,0.0,0.0,0.0,0.0,0.0,0.0,0.0,0.0,0.0,0.0,0.0,0.0,0.0,0.0,0.0,0.0,0.0,0.0,0.0,0.0,0.0,0.0,0.0,0.0,0.0,0.0,0.0,0.0,0.0,0.0,0.0,0.0,0.0,0.0,0.0,0.0,0.0,0.0,0.0,0.0,0.0,0.0,0.0,0.0,0.0,0.0,0.0,0.0,0.0,0.0,0.0,0.0,0.0,0.0,0.0,0.0,0.0,0.0,0.0,0.0,0.0,0.0,0.0,0.0,0.0,0.0,0.0,0.0,0.0,0.0,-1.4524,-1.5515,-1.6028,-1.6028,-1.5044,-1.4095,0.0,0.0,0.0,0.0,0.0,0.0,0.0,0.0,0.0,0.0,0.0,0.0,0.0,0.0,0.0,0.0,0.0,0.0,0.0,0.0,0.0,0.0,0.0,0.0,0.0,0.0,0.0,0.0,0.0,0.0,0.0,0.0,0.0,0.0,0.0,0.0,0.0,0.0,0.0,0.0,0.0,0.0,0.0,0.0,0.0,0.0,0.0,0.0,0.0,0.0,0.0,0.0,0.0,0.0,0.0,0.0,0.0,0.0,0.0,0.0,0.0,0.0,0.0,0.0,0.0,0.0,0.0,0.0,0.0,0.0,0.0,0.0,0.0,0.0,0.0,0.0,0.0,0.0,0.0,0.0,0.0,0.0,0.0,0.0,0.0,0.0,0.0,0.0,0.0,0.0,0.0,0.0,0.0,0.0,0.0,0.0,0.0,0.0,0.0,0.0,0.0,0.0,0.0,0.0,0.0,0.0,0.0,0.0,0.0,-1.53,0.0,-1.7028,-1.6448,-1.5435,-1.4395,0.0,0.0,0.0,0.0,0.0,0.0,0.0,0.0,0.0,0.0,0.0,0.0,0.0,0.0,0.0,0.0,0.0,0.0,0.0,0.0,0.0,0.0,0.0,0.0,0.0,0.0,0.0,0.0,0.0,0.0,0.0,0.0,0.0,0.0,0.0,0.0,0.0,0.0,0.0,0.0,0.0,0.0,0.0,0.0,0.0,0.0,0.0,0.0,0.0,0.0,0.0,0.0,0.0,0.0,0.0,0.0,0.0,0.0,0.0,0.0,0.0,0.0,0.0,0.0,0.0,0.0,0.0,0.0,0.0,0.0,0.0,0.0,0.0,0.0,0.0,0.0,0.0,0.0,0.0,0.0,0.0,0.0,0.0,0.0,0.0,0.0,0.0,0.0,0.0,0.0,0.0,0.0,0.0,0.0,0.0,0.0,0.0,0.0,0.0,0.0,0.0,0.0,0.0,0.0,0.0,0.0,0.0,0.0,-1.684,-1.6798,-1.7534,-1.7213,-1.5714,-1.5649,-1.4909,0.0,0.0,0.0,0.0,0.0,0.0,0.0,0.0,0.0,0.0,0.0,0.0,0.0,0.0,0.0,0.0,0.0,0.0,0.0,0.0,0.0,0.0,0.0,0.0,0.0,0.0,0.0,0.0,0.0,0.0,0.0,0.0,0.0,0.0,0.0,0.0,0.0,0.0,0.0,0.0,0.0,0.0,0.0,0.0,0.0,0.0,0.0,0.0,0.0,0.0,0.0,0.0,0.0,0.0,0.0,0.0,0.0,0.0,0.0,0.0,0.0,0.0,0.0,0.0,0.0,0.0,0.0,0.0,0.0,0.0,0.0,0.0,0.0,0.0,0.0,0.0,0.0,0.0,0.0,0.0,0.0,0.0,0.0,0.0,0.0,0.0,0.0,0.0,0.0,0.0,0.0,0.0,0.0,0.0,0.0,0.0,0.0,0.0,0.0,0.0,0.0,0.0,0.0,0.0,0.0,0.0,0.0,0.0,0.0,-1.6696,-1.7403,-1.7362,-1.6384,-1.5391,-1.464,0.0,0.0,0.0,0.0,0.0,0.0,0.0,0.0,0.0,0.0,0.0,0.0,0.0,0.0,0.0,0.0,0.0,0.0,0.0,0.0,0.0,0.0,0.0,0.0,0.0,0.0,0.0,0.0,0.0,0.0,0.0,0.0,0.0,0.0,0.0,0.0,0.0,0.0,0.0,0.0,0.0,0.0,0.0,0.0,0.0,0.0,0.0,0.0,0.0,0.0,0.0,0.0,0.0,0.0,0.0,0.0,0.0,0.0,0.0,0.0,0.0,0.0,0.0,0.0,0.0,0.0,0.0,0.0,0.0,0.0,0.0,0.0,0.0,0.0,0.0,0.0,0.0,0.0,0.0,0.0,0.0,0.0,0.0,0.0,0.0,0.0,0.0,0.0,0.0,0.0,0.0,0.0,0.0,0.0,0.0,0.0,0.0,0.0,0.0,0.0,0.0,0.0,0.0,0.0,0.0,0.0,0.0,0.0,0.0,-1.8655,-1.9165,-1.885,-1.7594,-1.673,-1.5857,-1.497,0.0,0.0,0.0,0.0,0.0,0.0,0.0,0.0,0.0,0.0,0.0,0.0,0.0,0.0,0.0,0.0,0.0,0.0,0.0,0.0,0.0,0.0,0.0,0.0,0.0,0.0,0.0,0.0,0.0,0.0,0.0,0.0,0.0,0.0,0.0,0.0,0.0,0.0,0.0,0.0,0.0,0.0,0.0,0.0,0.0,0.0,0.0,0.0,0.0,0.0,0.0,0.0,0.0,0.0,0.0,0.0,0.0,0.0,0.0,0.0,0.0,0.0,0.0,0.0,0.0,0.0,0.0,0.0,0.0,0.0,0.0,0.0,0.0,0.0,0.0,0.0,0.0,0.0,0.0,0.0,0.0,0.0,0.0,0.0,0.0,0.0,0.0,0.0,0.0,0.0,0.0,0.0,0.0,0.0,0.0,0.0,0.0,0.0,0.0,0.0,0.0,0.0,0.0,0.0,0.0,0.0,0.0,0.0,-2.2175,-2.2567,-2.1596,-1.9289,-1.9279,-1.8243,0.0,0.0,0.0,0.0,0.0,0.0,0.0,0.0,0.0,0.0,0.0,0.0,0.0,0.0,0.0,0.0,0.0,0.0,0.0,0.0,0.0,0.0,0.0,0.0,0.0,0.0,0.0,0.0,0.0,0.0,0.0,0.0,0.0,0.0,0.0,0.0,0.0,0.0,0.0,0.0,0.0,0.0,0.0,0.0,0.0,0.0,0.0,0.0,0.0,0.0,0.0,0.0,0.0,0.0,0.0,0.0,0.0,0.0,0.0,0.0,0.0,0.0,0.0,0.0,0.0,0.0,0.0,0.0,0.0,0.0,0.0,0.0,0.0,0.0,0.0,0.0,0.0,0.0,0.0,0.0,0.0,0.0,0.0,0.0,0.0,0.0,0.0,0.0,0.0,0.0,0.0,0.0,0.0,0.0,0.0,0.0,0.0,0.0,0.0,0.0,0.0,0.0,0.0,0.0,0.0,0.0,0.0,0.0,0.0,-2.3552,-2.5873,-2.5329,-2.1672,-2.066,-1.9337,0.0,0.0,0.0,0.0,0.0,0.0,0.0,0.0,0.0,0.0,0.0,0.0,0.0,0.0,0.0,0.0,0.0,0.0,0.0,0.0,0.0,0.0,0.0,0.0,0.0,0.0,0.0,0.0,0.0,0.0,0.0,0.0,0.0,0.0,0.0,0.0,0.0,0.0,0.0,0.0,0.0,0.0,0.0,0.0,0.0,0.0,0.0,0.0,0.0,0.0,0.0,0.0,0.0,0.0,0.0,0.0,0.0,0.0,0.0,0.0,0.0,0.0,0.0,0.0,0.0,0.0,0.0,0.0,0.0,0.0,0.0,0.0,0.0,0.0,0.0,0.0,0.0,0.0,0.0,0.0,0.0,0.0,0.0,0.0,0.0,0.0,0.0,0.0,0.0,0.0,0.0,0.0,0.0,0.0,0.0,0.0,0.0,0.0,0.0,0.0,0.0,0.0,0.0,0.0,0.0,0.0,0.0,0.0,-2.3638,-2.5892,-2.8641,-2.8603,-2.5557,-2.3473,-2.1325,0.0,0.0,0.0,0.0,0.0,0.0,0.0,0.0,0.0,0.0,0.0,0.0,0.0,0.0,0.0,0.0,0.0,0.0,0.0,0.0,0.0,0.0,0.0,0.0,0.0,0.0,0.0,0.0,0.0,0.0,0.0,0.0,0.0,0.0,0.0,0.0,0.0,0.0,0.0,0.0,0.0,0.0,0.0,0.0,0.0,0.0,0.0,0.0,0.0,0.0,0.0,0.0,0.0,0.0,0.0,0.0,0.0,0.0,0.0,0.0,0.0,0.0,0.0,0.0,0.0,0.0,0.0,0.0,0.0,0.0,0.0,0.0,0.0,0.0,0.0,0.0,0.0,0.0,0.0,0.0,0.0,0.0,0.0,0.0,0.0,0.0,0.0,0.0,0.0,0.0,0.0,0.0,0.0,0.0,0.0,0.0,0.0,0.0,0.0,0.0,0.0,0.0,0.0,0.0,0.0,0.0,0.0,0.0,-2.5639,-2.8661,-3.0974,-3.1478,-3.0021,-2.6886,-2.3689,0.0,0.0,0.0,0.0,0.0,0.0,0.0,0.0,0.0,0.0,0.0,0.0,0.0,0.0,0.0,0.0,0.0,0.0,0.0,0.0,0.0,0.0,0.0,0.0,0.0,0.0,0.0,0.0,0.0,0.0,0.0,0.0,0.0,0.0,0.0,0.0,0.0,0.0,0.0,0.0,0.0,0.0,0.0,0.0,0.0,0.0,0.0,0.0,0.0,0.0,0.0,0.0,0.0,0.0,0.0,0.0,0.0,0.0,0.0,0.0,0.0,0.0,0.0,0.0,0.0,0.0,0.0,0.0,0.0,0.0,0.0,0.0,0.0,0.0,0.0,0.0,0.0,0.0,0.0,0.0,0.0,0.0,0.0,0.0,0.0,0.0,0.0,0.0,0.0,0.0,0.0,0.0,0.0,0.0,0.0,0.0,0.0,0.0,0.0,0.0,0.0,0.0,0.0,0.0,0.0,0.0,0.0,0.0,-2.834,-3.0717,-3.3073,-3.3633,-3.2176,-2.8307,-2.5052,0.0,0.0,0.0,0.0,0.0,0.0,0.0,0.0,0.0,0.0,0.0,0.0,0.0,0.0,0.0,0.0,0.0,0.0,0.0,0.0,0.0,0.0,0.0,0.0,0.0,0.0,0.0,0.0,0.0,0.0,0.0,0.0,0.0,0.0,0.0,0.0,0.0,0.0,0.0,0.0,0.0,0.0,0.0,0.0,0.0,0.0,0.0,0.0,-1.4892,0.0,0.0,0.0,0.0,0.0,0.0,0.0,0.0,0.0,0.0,0.0,0.0,0.0,0.0,0.0,0.0,0.0,0.0,0.0,0.0,0.0,0.0,0.0,0.0,0.0,0.0,0.0,0.0,0.0,0.0,0.0,0.0,0.0,0.0,0.0,0.0,0.0,0.0,0.0,0.0,0.0,0.0,0.0,0.0,0.0,0.0,0.0,0.0,0.0,0.0,0.0,0.0,0.0,0.0,0.0,0.0,0.0,0.0,0.0,-3.0274,-3.2788,-3.4789,-3.5275,-3.4068,-3.0983,-2.7634,0.0,0.0,0.0,0.0,0.0,0.0,0.0,0.0,0.0,0.0,0.0,0.0,0.0,0.0,0.0,0.0,0.0,0.0,0.0,0.0,0.0,0.0,0.0,0.0,0.0,0.0,0.0,0.0,0.0,0.0,0.0,0.0,0.0,0.0,0.0,0.0,0.0,0.0,0.0,0.0,0.0,0.0,0.0,0.0,0.0,0.0,0.0,0.0,0.0,0.0,0.0,0.0,0.0,0.0,0.0,0.0,0.0,0.0,0.0,0.0,0.0,0.0,0.0,0.0,0.0,0.0,0.0,0.0,0.0,0.0,0.0,0.0,0.0,0.0,0.0,0.0,0.0,0.0,0.0,0.0,0.0,0.0,0.0,0.0,0.0,0.0,0.0,0.0,0.0,0.0,0.0,0.0,0.0,0.0,0.0,0.0,0.0,0.0,0.0,0.0,0.0,0.0,0.0,0.0,0.0,0.0,0.0,-2.8958,-3.2002,-3.4764,-3.6457,-3.6772,-3.5633,-3.3457,-3.0057,-2.5374,0.0,0.0,0.0,0.0,0.0,0.0,0.0,0.0,0.0,0.0,0.0,0.0,0.0,0.0,0.0,0.0,0.0,0.0,0.0,0.0,0.0,0.0,0.0,0.0,0.0,0.0,0.0,0.0,0.0,0.0,0.0,0.0,0.0,0.0,0.0,0.0,0.0,0.0,-1.1952,-1.4044,0.0,0.0,0.0,0.0,0.0,0.0,0.0,0.0,-1.4746,0.0,0.0,0.0,0.0,0.0,0.0,0.0,0.0,0.0,0.0,0.0,0.0,0.0,0.0,0.0,0.0,0.0,0.0,0.0,0.0,0.0,0.0,0.0,0.0,0.0,0.0,0.0,0.0,0.0,0.0,0.0,0.0,0.0,0.0,0.0,0.0,0.0,0.0,0.0,0.0,0.0,0.0,0.0,0.0,0.0,0.0,0.0,0.0,0.0,0.0,0.0,0.0,0.0,0.0,0.0,0.0,-2.6471,-3.0683,-3.3998,-3.6389,-3.8497,-3.8304,-3.5667,-3.3457,-3.0198,-2.5705,0.0,0.0,0.0,0.0,0.0,0.0,0.0,0.0,0.0,0.0,0.0,0.0,0.0,0.0,0.0,0.0,0.0,0.0,0.0,0.0,0.0,0.0,0.0,0.0,0.0,0.0,0.0,0.0,0.0,0.0,0.0,0.0,0.0,0.0,0.0,0.0,0.0,0.0,0.0,-1.6498,-1.7804,0.0,0.0,0.0,0.0,0.0,0.0,0.0,0.0,-1.5565,0.0,0.0,0.0,0.0,0.0,0.0,0.0,0.0,0.0,0.0,0.0,0.0,0.0,0.0,0.0,0.0,0.0,0.0,0.0,0.0,0.0,0.0,0.0,0.0,0.0,0.0,0.0,0.0,0.0,0.0,0.0,0.0,0.0,0.0,0.0,0.0,0.0,0.0,0.0,0.0,0.0,0.0,0.0,0.0,0.0,0.0,0.0,0.0,0.0,0.0,0.0,0.0,0.0,0.0,0.0,-2.7757,-3.1901,-3.5081,-3.7313,-3.9546,-3.9048,-3.5701,-3.3478,-3.0176,0.0,0.0,0.0,0.0,0.0,0.0,0.0,0.0,0.0,0.0,0.0,0.0,0.0,0.0,0.0,0.0,0.0,0.0,0.0,0.0,0.0,0.0,0.0,0.0,0.0,0.0,0.0,0.0,0.0,0.0,0.0,0.0,0.0,0.0,0.0,0.0,0.0,0.0,0.0,0.0,-1.7354,-1.8289,-1.7543,0.0,0.0,0.0,0.0,0.0,0.0,-1.635,-1.5913,0.0,0.0,0.0,0.0,0.0,0.0,0.0,0.0,0.0,0.0,0.0,0.0,0.0,0.0,0.0,0.0,0.0,0.0,0.0,0.0,0.0,0.0,0.0,0.0,0.0,0.0,0.0,0.0,0.0,0.0,0.0,0.0,0.0,0.0,0.0,0.0,0.0,0.0,0.0,0.0,0.0,0.0,0.0,0.0,0.0,0.0,0.0,0.0,0.0,0.0,0.0,0.0,0.0,0.0,0.0,-2.9111,-3.3017,-3.5994,-3.8091,-4.029,-3.9546,-3.5701,-3.3322,-2.9991,0.0,0.0,0.0,0.0,0.0,0.0,0.0,0.0,0.0,0.0,0.0,0.0,0.0,0.0,0.0,0.0,0.0,0.0,0.0,0.0,0.0,0.0,0.0,0.0,0.0,0.0,0.0,0.0,0.0,0.0,0.0,0.0,0.0,0.0,0.0,0.0,0.0,0.0,0.0,0.0,0.0,-1.8806,-1.8439,-1.8269,0.0,0.0,0.0,0.0,-1.7885,-1.7516,0.0,0.0,0.0,0.0,0.0,0.0,0.0,0.0,0.0,0.0,0.0,0.0,0.0,0.0,0.0,0.0,0.0,0.0,0.0,0.0,0.0,0.0,0.0,0.0,0.0,0.0,0.0,0.0,0.0,0.0,0.0,0.0,0.0,0.0,0.0,0.0,0.0,0.0,0.0,0.0,0.0,0.0,0.0,0.0,0.0,0.0,0.0,0.0,0.0,0.0,0.0,0.0,0.0,0.0,0.0,0.0,-2.9871,-3.4303,-3.728,-3.887,-4.1035,-4.0087,-3.5701,-3.2814,-2.9247,0.0,0.0,0.0,0.0,0.0,0.0,0.0,0.0,0.0,0.0,0.0,0.0,0.0,0.0,0.0,0.0,0.0,0.0,0.0,0.0,0.0,0.0,0.0,0.0,0.0,0.0,0.0,0.0,0.0,0.0,0.0,0.0,0.0,0.0,0.0,0.0,0.0,0.0,0.0,0.0,0.0,-2.079,-2.1536,-2.1583,-2.1307,0.0,0.0,-2.0232,-1.9649,-2.0037,0.0,0.0,0.0,0.0,0.0,0.0,0.0,0.0,0.0,0.0,0.0,0.0,0.0,0.0,0.0,0.0,0.0,0.0,0.0,0.0,0.0,0.0,0.0,0.0,0.0,0.0,0.0,0.0,0.0,0.0,0.0,0.0,0.0,0.0,0.0,0.0,0.0,0.0,0.0,0.0,0.0,0.0,0.0,0.0,0.0,0.0,0.0,0.0,0.0,0.0,0.0,0.0,0.0,0.0,0.0,-2.4763,-3.0615,-3.5148,-3.7956,-3.9005,-4.117,-4.0155,-3.5701,-3.2747,-2.9296,0.0,0.0,0.0,0.0,0.0,0.0,0.0,0.0,0.0,0.0,0.0,0.0,0.0,0.0,0.0,0.0,0.0,0.0,0.0,0.0,0.0,0.0,0.0,0.0,0.0,0.0,0.0,0.0,0.0,0.0,0.0,0.0,0.0,0.0,0.0,0.0,0.0,0.0,0.0,0.0,0.0,0.0,-2.2666,-2.3111,0.0,0.0,0.0,-2.2092,-2.1764,0.0,0.0,0.0,0.0,0.0,0.0,0.0,0.0,0.0,0.0,0.0,0.0,0.0,0.0,0.0,0.0,0.0,0.0,0.0,0.0,0.0,0.0,0.0,0.0,0.0,0.0,0.0,0.0,0.0,0.0,0.0,0.0,0.0,0.0,0.0,0.0,0.0,0.0,0.0,0.0,0.0,0.0,0.0,0.0,0.0,0.0,0.0,0.0,0.0,0.0,0.0,0.0,0.0,0.0,0.0,0.0,0.0,-3.1214,-3.571,-3.8336,-3.9076,-4.1028,-3.9951,-3.5553,-3.2728,0.0,0.0,0.0,0.0,0.0,0.0,0.0,0.0,0.0,0.0,0.0,0.0,0.0,0.0,0.0,0.0,0.0,0.0,0.0,0.0,0.0,0.0,0.0,0.0,0.0,0.0,0.0,-0.9227,0.0,0.0,0.0,0.0,0.0,0.0,0.0,0.0,0.0,0.0,0.0,0.0,0.0,0.0,-2.2819,-2.3668,-2.4421,-2.4708,0.0,0.0,-2.3708,-2.378,-2.3577,-2.2881,0.0,0.0,0.0,0.0,0.0,0.0,0.0,0.0,0.0,0.0,0.0,0.0,0.0,0.0,0.0,0.0,0.0,0.0,0.0,0.0,0.0,0.0,0.0,0.0,0.0,0.0,0.0,0.0,0.0,0.0,0.0,0.0,0.0,0.0,0.0,0.0,0.0,0.0,0.0,0.0,0.0,0.0,0.0,0.0,0.0,0.0,0.0,0.0,0.0,0.0,0.0,0.0,0.0,0.0,0.0,-3.1492,-3.5901,-3.8453,-3.9209,-4.0669,-3.9375,-3.5063,-3.2752,-2.9536,0.0,0.0,0.0,0.0,0.0,0.0,0.0,0.0,0.0,0.0,0.0,0.0,0.0,0.0,0.0,0.0,0.0,0.0,0.0,0.0,0.0,0.0,0.0,0.0,0.0,0.0,0.0,0.0,0.0,0.0,0.0,0.0,0.0,0.0,0.0,0.0,0.0,0.0,0.0,0.0,0.0,-2.445,-2.5236,-2.6039,-2.6509,0.0,0.0,-2.5319,-2.5346,-2.4728,-2.3699,-2.2173,0.0,0.0,0.0,0.0,0.0,0.0,0.0,0.0,0.0,0.0,0.0,0.0,0.0,0.0,0.0,0.0,0.0,0.0,0.0,0.0,0.0,0.0,0.0,0.0,0.0,0.0,0.0,0.0,0.0,0.0,0.0,0.0,0.0,0.0,0.0,0.0,0.0,0.0,0.0,0.0,0.0,0.0,0.0,0.0,0.0,0.0,0.0,0.0,0.0,0.0,0.0,0.0,0.0,-2.625,-3.1514,-3.6167,-3.8468,-3.8399,-3.9729,-3.8687,-3.4857,-3.2683,-2.974,0.0,0.0,0.0,0.0,0.0,0.0,0.0,0.0,0.0,0.0,0.0,0.0,0.0,0.0,0.0,0.0,0.0,0.0,0.0,0.0,0.0,0.0,0.0,0.0,0.0,0.0,0.0,0.0,-0.9096,-0.9265,-0.9075,0.0,0.0,0.0,0.0,0.0,0.0,0.0,0.0,0.0,0.0,-2.5277,-2.6086,-2.7695,0.0,0.0,-2.7117,-2.6759,-2.627,-2.5498,-2.4441,-2.2942,-2.0462,0.0,0.0,0.0,0.0,0.0,0.0,0.0,0.0,0.0,0.0,0.0,0.0,0.0,0.0,0.0,0.0,0.0,0.0,0.0,0.0,0.0,0.0,0.0,0.0,0.0,0.0,0.0,0.0,0.0,0.0,0.0,0.0,0.0,0.0,0.0,0.0,0.0,0.0,0.0,0.0,0.0,0.0,0.0,0.0,0.0,0.0,0.0,0.0,0.0,0.0,0.0,0.0,-2.6535,-3.1268,-3.6073,-3.8199,-3.7562,-3.8926,-3.7973,-3.4573,-3.2736,-3.0132,0.0,0.0,0.0,0.0,0.0,0.0,0.0,0.0,0.0,0.0,0.0,0.0,0.0,0.0,0.0,0.0,0.0,0.0,0.0,0.0,0.0,0.0,0.0,0.0,0.0,0.0,0.0,0.0,-0.9334,-0.9415,-0.9789,0.0,0.0,0.0,0.0,0.0,0.0,0.0,0.0,0.0,0.0,-2.5952,-2.6539,-2.8668,-2.9732,-2.8338,-2.8154,-2.7824,-2.6749,-2.5915,-2.489,-2.3353,0.0,0.0,0.0,0.0,0.0,0.0,0.0,0.0,0.0,0.0,0.0,0.0,0.0,0.0,0.0,0.0,0.0,0.0,0.0,0.0,0.0,0.0,0.0,0.0,0.0,0.0,0.0,0.0,0.0,0.0,-1.5858,0.0,0.0,0.0,0.0,0.0,0.0,0.0,0.0,0.0,0.0,0.0,0.0,0.0,0.0,0.0,0.0,0.0,0.0,0.0,0.0,0.0,0.0,-2.6576,-3.0791,-3.5535,-3.7592,-3.6968,-3.8278,-3.7374,-3.3948,-3.3076,-3.0772,-2.6669,0.0,0.0,0.0,0.0,0.0,0.0,0.0,0.0,0.0,0.0,0.0,0.0,0.0,0.0,0.0,0.0,0.0,0.0,0.0,0.0,0.0,0.0,0.0,0.0,0.0,0.0,-1.0066,-0.9601,-0.9673,0.0,0.0,0.0,0.0,0.0,0.0,0.0,0.0,0.0,0.0,-2.4014,-2.6565,-2.6602,-2.8668,-2.9904,-2.9097,-2.895,-2.8436,-2.6833,-2.5915,-2.4899,0.0,0.0,0.0,0.0,0.0,0.0,0.0,0.0,0.0,0.0,0.0,0.0,0.0,0.0,0.0,0.0,0.0,0.0,0.0,0.0,0.0,0.0,0.0,0.0,0.0,0.0,0.0,-2.0438,-1.9929,0.0,0.0,0.0,0.0,0.0,0.0,0.0,0.0,0.0,0.0,0.0,-2.8188,-2.8188,0.0,0.0,0.0,0.0,0.0,0.0,0.0,0.0,0.0,0.0,0.0,0.0,-2.6546,-3.06,-3.5214,-3.7279,-3.6671,-3.7491,-3.658,-3.3697,-3.2939,-3.0273,-2.5425,0.0,0.0,0.0,0.0,0.0,0.0,0.0,0.0,0.0,0.0,0.0,0.0,0.0,0.0,0.0,0.0,0.0,0.0,0.0,0.0,0.0,0.0,0.0,0.0,0.0,-1.1663,0.0,0.0,0.0,0.0,0.0,0.0,0.0,0.0,0.0,0.0,0.0,-1.8697,-2.0914,-2.3858,-2.5999,-2.6539,-2.8668,-2.9904,0.0,0.0,0.0,0.0,0.0,0.0,0.0,0.0,0.0,0.0,0.0,0.0,0.0,0.0,-2.3004,-2.2561,-2.1174,-2.0101,-2.0144,0.0,0.0,0.0,0.0,0.0,0.0,0.0,0.0,0.0,0.0,0.0,0.0,0.0,0.0,-2.417,0.0,-2.1844,0.0,0.0,0.0,0.0,0.0,0.0,0.0,0.0,-3.0642,-3.2347,-3.2886,-3.2886,-3.2916,0.0,-3.2497,-3.0313,0.0,0.0,0.0,0.0,0.0,0.0,0.0,0.0,-2.7116,-3.0851,-3.519,-3.7105,-3.6537,-3.7105,-3.6267,-3.3903,-3.2527,-2.9983,-2.6099,-2.3229,-2.0479,0.0,0.0,0.0,0.0,0.0,0.0,0.0,0.0,0.0,0.0,0.0,0.0,0.0,0.0,0.0,0.0,0.0,0.0,0.0,0.0,0.0,0.0,0.0,-1.2799,0.0,0.0,0.0,0.0,0.0,0.0,0.0,0.0,0.0,-1.7156,-1.8361,-1.983,-2.207,-2.4588,-2.6513,-2.7336,0.0,0.0,0.0,0.0,0.0,0.0,0.0,-2.6387,-2.6706,-2.7288,-2.8019,-2.889,-2.8415,-2.7902,-2.8025,0.0,0.0,-2.6309,-2.479,-2.3715,-2.3766,-2.2301,-2.0743,-1.9938,-2.0188,-2.0412,0.0,0.0,0.0,0.0,0.0,0.0,0.0,0.0,-2.8753,-2.7944,0.0,-2.5129,0.0,0.0,0.0,0.0,0.0,-2.5615,0.0,0.0,-3.5011,-3.6896,-3.7434,-3.7434,-3.7464,-3.7494,-3.74,-3.6716,-3.51,-2.9026,0.0,0.0,0.0,0.0,0.0,0.0,-2.8278,-3.157,-3.5429,-3.7105,-3.66,-3.7075,-3.6447,-3.4563,-3.2018,-3.0103,-2.8697,-2.5525,-2.2562,-1.9947,-1.8043,0.0,0.0,0.0,0.0,0.0,0.0,0.0,0.0,0.0,0.0,0.0,0.0,0.0,0.0,0.0,0.0,0.0,0.0,0.0,0.0,-1.4107,0.0,0.0,0.0,0.0,0.0,0.0,0.0,0.0,0.0,0.0,-1.8638,-2.0247,-2.1948,-2.3604,0.0,0.0,0.0,0.0,-3.2619,-3.2656,-3.3366,-3.3293,-3.1678,-3.076,-3.0013,-2.9372,0.0,0.0,-3.3062,-3.2458,-3.1561,-3.0752,-3.0597,-3.0221,-2.9439,-2.7937,-2.6804,-2.6847,-2.5004,-2.3137,-2.2251,-2.2171,-2.2261,-3.905,0.0,0.0,0.0,0.0,-3.3724,-3.4921,-3.54,-3.4831,-3.4083,-3.3066,-3.0404,0.0,0.0,0.0,0.0,0.0,0.0,-3.2347,-3.513,-3.7494,-3.8931,-3.9529,-3.9529,-3.9559,-3.9559,-3.9559,-3.8631,-3.6806,-3.4532,-3.118,-2.6901,0.0,0.0,0.0,0.0,-2.9654,-3.2886,-3.5908,-3.7315,-3.7135,-3.6896,-3.6267,-3.522,-3.3993,-3.2736,-3.142,-2.8667,-2.5704,-2.2622,-1.9815,0.0,0.0,0.0,0.0,0.0,0.0,0.0,0.0,0.0,0.0,0.0,0.0,0.0,0.0,0.0,0.0,0.0,0.0,0.0,-1.486,-1.5155,-1.5246,0.0,0.0,0.0,0.0,0.0,0.0,0.0,0.0,0.0,-2.1333,-2.1752,-2.2615,0.0,0.0,-2.764,-2.9574,-3.1408,-3.2986,-3.416,0.0,0.0,0.0,-3.2449,-3.2045,-3.2401,-3.386,-3.5262,-3.6113,-3.5547,-3.4894,-3.4609,-3.4582,-3.4481,-3.4077,-3.147,-2.9443,-2.9215,-2.7832,-2.6142,-2.4857,-2.4922,-2.518,-4.5603,-4.0457,-3.8901,-3.7764,-3.7229,-3.899,-4.0038,-4.0487,-3.9978,-3.917,-3.8063,-3.5699,-3.3784,-3.2257,-3.0642,0.0,0.0,0.0,-3.6267,-3.8906,-4.0307,-4.1324,-4.1923,-4.1683,-4.1564,-4.1564,-4.1294,-4.0546,-3.9349,-3.8482,-3.6178,-3.2407,0.0,0.0,-2.756,-2.9026,-3.127,-3.4233,-3.6357,-3.7404,-3.7404,-3.6567,-3.6028,-3.5878,-3.4711,-3.3484,-3.2108,-2.9594,-2.6662,-2.337,-2.0952,-1.8362,0.0,0.0,0.0,0.0,0.0,0.0,0.0,0.0,0.0,0.0,0.0,-1.0136,-1.0413,0.0,0.0,0.0,-1.4107,-1.5503,-1.6397,-1.7016,0.0,0.0,0.0,0.0,0.0,0.0,0.0,-2.0866,-2.131,-2.2098,-2.3721,-2.3846,-2.4274,-2.5518,-2.668,-2.8152,-3.0234,0.0,-3.3579,-3.5219,-3.6215,-3.6427,-3.5436,-3.4578,-3.4357,-3.5128,-3.6097,-3.7037,-3.7823,-3.7309,-3.6795,-3.6707,-3.6229,-3.5899,-3.6229,-3.376,-3.1581,-3.1262,-2.9678,-2.7948,-2.6643,-2.6559,-2.6512,-5.0361,-4.8356,-4.4717,-4.301,-4.28,-4.3419,-4.4366,-4.5424,-4.4186,-4.3359,-4.265,-4.0726,-3.8811,-3.6836,-3.5011,0.0,-3.7823,-3.8482,-4.0134,-4.256,-4.318,-4.3768,-4.4347,-4.3778,-4.3379,-4.326,-4.2671,-4.2351,-4.2111,-4.0935,-3.9738,-3.8332,-3.2407,-2.9894,-3.0881,-3.1511,-3.3065,-3.5639,-3.6806,-3.7375,-3.7315,-3.6207,-3.5848,-3.639,-3.4532,-3.2856,-3.1421,-2.9026,-2.6147,-2.2942,-2.1564,-1.9459,-1.6454,0.0,0.0,0.0,0.0,0.0,0.0,0.0,0.0,0.0,0.0,0.0,0.0,0.0,0.0,0.0,-1.6769,0.0,-1.8222,-1.9507,0.0,0.0,0.0,-1.9854,-2.0646,-2.0622,-2.1361,-2.3451,0.0,0.0,-2.5794,0.0,-2.66,-2.7048,-2.7945,-2.9166,-3.0816,-3.2365,-3.4089,-3.5754,-3.6956,-3.7566,-3.7419,-3.6853,-3.667,-3.7456,-3.7639,-3.7845,-3.8469,-3.8212,-3.7749,-3.7603,-3.634,-3.5518,-3.6193,-3.4835,-3.3513,-3.2559,-3.0723,-2.8962,-2.8055,-2.7357,-2.6979,-5.2935,-5.1887,-5.0451,-4.8117,-4.5514,-4.6621,-4.7279,-4.7519,-4.7249,-4.6741,-4.6022,-4.4556,-4.2821,-4.0973,-4.0524,-4.0643,-4.1242,-4.1893,-4.2791,-4.3868,-4.4526,-4.4915,-4.5065,-4.4885,-4.4287,-4.329,-4.2671,-4.1871,-4.0876,-4.0546,-3.9978,-3.911,-3.7075,-3.5489,-3.4382,-3.4472,-3.5307,-3.6926,-3.7255,-3.7195,-3.6716,-3.6417,-3.6088,-3.5729,-3.4292,-3.2617,-3.0791,-2.9205,-2.6811,-2.355,-2.2164,-2.0464,-1.8183,-1.6668,0.0,0.0,0.0,0.0,0.0,0.0,0.0,0.0,0.0,-1.4258,-1.4932,0.0,-1.6609,0.0,-1.9019,-2.0852,-2.1989,-2.2868,0.0,0.0,-2.274,-2.2829,-2.3588,-2.3157,-2.3212,-2.4256,-2.53,-2.6097,-2.6603,-2.7774,-2.8628,-2.8844,-2.8388,-2.8691,-3.0399,-3.1679,-3.3299,-3.5526,-3.7284,-3.8395,-3.8432,-3.8285,-3.8358,-3.9203,-3.8836,-3.8469,-3.8652,-3.9056,-3.9145,-3.8579,-3.8138,-3.7514,-3.6413,-3.4945,-3.333,-3.2045,-3.1201,-3.0393,-2.9035,-2.8546,-2.8583,-5.4251,-5.3593,-5.3234,-5.1498,-4.8985,-4.9404,-4.9434,-4.9164,-4.9164,-4.8775,-4.8117,-4.7399,-4.6471,-4.5465,-4.4825,-4.4736,-4.5016,-4.4796,-4.5035,-4.5633,-4.5723,-4.5753,-4.5753,-4.5424,-4.4616,-4.329,-4.2402,-4.1452,-4.0457,-4.0397,-4.0217,-3.9858,-4.0068,-3.932,-3.7704,-3.6806,-3.6836,-3.7823,-3.7853,-3.7674,-3.7345,-3.6776,-3.636,-3.5908,-3.4053,-3.2138,-3.0163,-2.8547,-2.6422,-2.3729,-2.2703,-2.1365,-1.969,-1.8583,-1.7416,0.0,0.0,0.0,0.0,0.0,0.0,0.0,0.0,0.0,0.0,0.0,-1.9271,-2.0869,-2.2921,-2.4763,-2.6251,-2.7351,-2.7723,-2.7114,-2.6723,-2.6519,-2.6604,-2.565,-2.5363,-2.6453,-2.6945,-2.7351,-2.7793,-2.8594,-2.9192,-2.9263,-2.8765,-2.8844,-3.0072,-3.1198,-3.2679,-3.4832,-3.6739,-3.8392,-3.9406,-3.9365,-3.9302,-3.9717,-3.9239,-3.8689,-3.8689,-3.8726,-3.8667,-3.8212,-3.7294,-3.6266,-3.5275,-3.3844,-3.2339,-3.1286,-3.0883,-3.0393,-2.9244,-2.928,-2.9721,-5.485,-5.4341,-5.4251,-5.3533,-5.2396,-5.1768,-5.1003,-5.0315,-5.0315,-5.0032,-4.9569,-4.9569,-4.9479,-4.9239,-4.7967,-4.7638,-4.7938,-4.6741,-4.6501,-4.701,-4.6561,-4.6279,-4.6292,-4.5783,-4.4825,-4.3479,-4.2132,-4.1115,-4.0427,-4.0397,-4.0457,-4.0576,-4.1811,-4.1811,-4.0606,-3.8751,-3.8003,-3.8362,-3.8482,-3.8512,-3.8512,-3.7379,-3.6656,-3.6387,-3.3993,-3.1689,-2.9681,-2.7739,-2.5794,-2.3849,-2.3152,-2.2254,-2.1017,-2.0868,-2.003,0.0,-1.8886,0.0,0.0,0.0,0.0,0.0,0.0,0.0,0.0,-2.0273,-2.2216,-2.5541,-2.7376,-2.9004,-3.0644,-3.2036,-3.2361,-3.1123,-3.0852,-3.048,-2.9619,-2.8231,-2.774,-2.901,-2.8518,-2.8365,-2.901,-2.9213,-2.9281,-2.9367,-2.9403,-2.952,-2.9965,-3.0744,-3.1868,-3.3681,-3.5719,-3.7976,-3.994,-4.0042,-3.9682,-3.9758,-3.9093,-3.8579,-3.8505,-3.7896,-3.7309,-3.6868,-3.5349,-3.388,-3.344,-3.2205,-3.1091,-3.0393,-3.0283,-2.9989,-2.928,-2.9622,-3.0246,-5.5119,-5.497,-5.4431,-5.4072,-5.3773,-5.3084,-5.2127,-5.1003,-5.102,-5.096,-5.084,-5.084,-5.0272,-4.9269,-4.8446,-4.7578,-4.6681,-4.5873,-4.5544,-4.5693,-4.6112,-4.6279,-4.6309,-4.6741,-4.5963,-4.4137,-4.283,-4.1602,-4.0397,-4.0397,-4.0666,-4.1242,-4.2021,-4.2261,-4.1961,0.0,0.0,0.0,-3.8931,-3.923,-3.92,-3.8452,-3.7524,-3.651,-3.4412,0.0,-2.9684,-2.8184,-2.6507,-2.4545,-2.3789,0.0,0.0,0.0,0.0,0.0,0.0,0.0,0.0,0.0,0.0,0.0,-2.6693,-2.5667,-2.4256,-2.4732,-2.6244,-2.8907,-3.036,-3.2018,-3.4196,-3.5341,-3.5847,-3.5577,-3.4945,-3.4044,-3.2713,-3.1258,-3.0243,-2.9905,-2.977,-2.9717,-2.9871,-3.0412,-3.0751,-3.0702,-3.0804,-3.0609,-3.0254,-3.011,-3.0626,-3.2335,-3.5439,-3.8026,-3.9987,-3.9911,-3.9717,-3.9653,-3.8667,-3.7881,-3.7734,-3.711,-3.5973,-3.4908,-3.41,-3.3109,-3.1347,-3.0613,-3.043,-3.0246,-3.0246,-2.9941,-2.9207,-2.9647,-3.0564,-5.5478,0.0,-5.482,-5.4491,0.0,-5.3832,-5.3114,-5.2157,-5.1828,-5.1498,-5.1229,-5.1229,-5.0511,-4.9239,-4.7908,-4.6591,-4.5233,-4.3958,-4.3718,-4.4347,-4.5035,-4.5651,-4.6309,-4.701,-4.6441,-4.4796,-4.3479,-4.2162,-4.0935,-4.0905,-4.1055,-4.1384,-4.2372,-4.2671,-4.2381,-4.1384,-4.0397,-3.9409,-3.9738,-3.9888,-3.9888,-3.923,-3.8272,-3.6956,0.0,0.0,0.0,0.0,0.0,0.0,0.0,0.0,0.0,0.0,0.0,-2.4118,-2.5046,-2.5734,-2.6093,-2.729,-2.8607,-2.9896,-3.0342,-2.9696,-2.7765,-2.8101,-2.9437,-3.1983,-3.38,-3.5666,-3.7719,-3.8865,-3.9377,-3.9005,-3.8294,-3.7246,-3.5723,-3.3964,-3.2544,-3.1799,-3.1089,-3.0649,-3.0649,-3.092,-3.119,-3.119,-3.119,-3.121,-3.122,-3.0854,-3.1491,-3.4368,-3.7025,-3.9498,-4.1169,-4.0864,-4.0384,-4.0503,-3.9458,-3.8328,-3.7854,-3.6863,-3.5594,-3.4014,-3.3103,-3.2007,-3.0687,-3.021,-3.021,-3.032,-3.0834,-3.1225,-3.0895,-3.1408,-3.2192,-5.5837,-5.5359,-5.5239,-5.488,-5.4371,-5.4371,-5.3982,-5.3324,0.0,0.0,0.0,-5.1289,-5.0481,-4.9209,-4.7309,-4.5741,-4.4377,-4.2551,-4.2372,-4.3499,-4.4197,-4.5083,-4.6279,-4.698,-4.6681,-4.5454,-4.4216,-4.306,-4.1923,-4.1773,-4.1713,-4.1833,-4.2781,-4.294,-4.2231,-4.1692,-4.1115,-4.0606,-4.0576,-4.0636,-4.0726,-3.9978,-3.902,-3.7793,-3.5968,-3.4083,-3.2079,-3.0283,-2.8637,-2.7225,-2.6482,-2.6093,-2.6004,-2.6692,-2.723,-2.75,-2.8727,-2.9624,-2.9983,-3.0971,-3.1839,-3.2497,-3.3035,-3.2586,-3.0706,-3.093,-3.2213,-3.4798,-3.6864,-3.8761,-4.0547,-4.168,-4.2092,-4.1485,-4.0879,-3.9901,-3.8274,-3.6308,-3.4655,-3.3786,-3.2374,-3.1393,-3.1393,-3.1258,-3.119,-3.119,-3.119,-3.1529,-3.2246,-3.242,-3.3616,-3.6801,-3.8916,-4.0885,-4.2127,-4.1881,-4.1276,-4.0993,-3.9842,-3.8688,-3.7912,-3.6624,-3.5126,-3.3742,-3.2347,-3.138,-3.0626,-3.0467,-3.0503,-3.076,-3.1995,-3.3096,-3.3316,-3.4174,-3.4835,-5.6158,-5.5987,-5.5418,-5.5149,-5.5059,-5.5059,-5.47,-5.3982,-5.2755,-5.2127,-5.2037,-5.1468,-5.0511,-4.9239,-4.7788,-4.6441,-4.5095,-4.3648,-4.3409,0.0,-4.4855,-4.5574,-4.6309,-4.698,-4.692,-4.613,-4.5394,-4.4646,-4.3928,-4.3329,-4.3021,-4.305,-4.32,-4.2731,-4.1594,-4.1452,-4.1362,-4.1235,-4.1272,-4.1534,-4.2081,-4.0876,-3.9918,-3.914,-3.7764,-3.6088,-3.4143,-3.2677,-3.1091,-2.9265,-2.8547,-2.7919,-2.7405,-2.8513,-2.9654,-3.0763,-3.2078,-3.3544,-3.522,-3.5549,-3.5908,-3.6507,-3.6686,-3.5704,-3.3427,-3.3421,-3.466,-3.7124,-3.8316,-3.9641,-4.1393,-4.2129,-4.2389,-4.229,-4.2219,-4.1383,-3.9435,-3.7928,-3.6511,-3.5217,-3.336,-3.2158,-3.2056,-3.1582,-3.119,-3.119,-3.1258,-3.1698,-3.2983,-3.429,-3.5723,-3.7613,-3.9358,-4.0569,-4.1395,-4.13,-4.0875,-3.9863,-3.8631,-3.7728,-3.7409,-3.5847,-3.4318,-3.3301,-3.256,-3.1955,-3.1334,-3.125,-3.1812,-3.2826,-3.4037,-3.488,-3.5642,-3.7367,-3.841,-5.634,-5.6107,-5.5478,-5.5209,-5.5209,-5.5209,-5.5029,-5.467,-5.3713,-5.2875,-5.2187,-5.1858,-5.084,-4.9239,-4.7878,-4.6591,-4.5244,-4.3928,-4.3858,-4.4855,-4.5544,-4.6202,-4.689,-4.7519,-4.7519,-4.686,-4.6561,-4.6052,-4.5424,-4.5053,-4.4725,-4.4407,-4.4047,-4.3389,-4.2462,-4.2102,-4.1782,-4.1422,-4.1422,-4.1752,-4.2381,-4.1811,-4.1145,-4.0487,-3.92,-3.7734,-3.6118,-3.4113,-3.2317,-3.0673,-2.9684,-2.8996,-2.8753,-2.9924,-3.121,-3.2527,-3.3844,-3.528,-3.6896,-3.6985,-3.7255,-3.7883,-3.7943,-3.7828,-3.7387,-3.6438,-3.6609,-3.8317,-3.9059,-3.9945,-4.1342,-4.1943,-4.2221,-4.2221,-4.2252,-4.1759,-4.0627,-3.949,-3.814,-3.6476,-3.4667,-3.3207,-3.2395,-3.1684,-3.119,-3.1224,-3.1495,-3.2205,-3.3322,-3.5081,-3.6941,-3.8725,-3.9855,-4.0793,-4.168,-4.1356,-4.0885,-4.0386,-3.9427,-3.8377,-3.7662,-3.622,-3.4889,-3.3226,-3.2696,-3.2437,-3.1924,-3.2215,-3.3191,-3.4658,-3.6091,-3.7109,-3.8233,-3.9863,-4.0487,-5.6697,-5.6555,-5.5748,-5.5329,-5.5209,-5.5209,-5.5209,-5.5149,-5.464,-5.3773,-5.2725,-5.2366,-5.1259,-4.9643,-4.8327,-4.71,-4.5933,-4.4766,-4.4855,-4.5933,-4.6531,-4.71,-4.7728,-4.8147,-4.7997,-4.7549,-4.7369,-4.704,-4.6591,-4.6369,-4.5963,-4.5304,-4.4646,-4.3898,-4.312,-4.2462,-4.1782,-4.0995,-4.1085,-4.1602,-4.2351,-4.2381,-4.2141,-4.1602,-4.0307,-3.899,-3.7614,-3.528,-3.3275,-3.1809,-3.0642,-3.0043,-3.0073,-3.127,-3.2587,-3.4083,-3.528,-3.6507,-3.7704,-3.7853,-3.8153,-3.8781,-3.8841,-3.9349,-4.0307,-3.923,-3.8652,-3.9485,-4.0067,-4.0662,-4.1435,-4.1966,-4.2232,-4.2232,-4.2232,-4.2013,-4.1434,-4.0664,-3.9472,-3.7635,-3.59,-3.4297,-3.3128,-3.2158,-3.1705,-3.1867,-3.2361,-3.3051,-3.3931,-3.5723,-3.7845,-3.9605,-4.0425,-4.0959,-4.2228,-4.1669,-4.0889,-4.0792,-4.0101,-3.9053,-3.7958,-3.7172,-3.5933,-3.3829,-3.3278,-3.3174,-3.2891,-3.3475,-3.4754,-3.6422,-3.8077,-3.9593,-4.0875,-4.1735,-4.1992,-5.7158,-5.77,-5.6534,-5.5748,-5.5158,-5.5179,-5.5158,-5.5128,-5.5119,-5.47,-5.3873,-5.2755,-5.175,-5.093,-4.9673,-4.8716,-4.7967,-4.7279,-4.7339,-4.7938,-4.8057,-4.8446,-4.9,-4.8566,-4.8237,-4.8087,-4.7608,-4.7309,-4.713,-4.6621,-4.5992,-4.5304,-4.4616,-4.3718,-4.259,-4.1871,-4.0876,-3.9649,-4.0187,-4.1123,-4.2321,-4.2381,-4.2381,-4.2291,-4.0995,-3.9679,-3.8332,-3.6387,-3.4412,-3.2587,-3.172,-3.1331,-3.1451,-3.2617,-3.4173,-3.6028,-3.6866,-3.7823,-3.9044,-3.9194,-3.9529,-4.0127,-4.0217,-4.0516,-4.1235,-4.1145,-4.11,-4.1391,-4.176,-4.1929,-4.2361,-4.2621,-4.2704,-4.2642,-4.2739,-4.2535,-4.165,-4.1215,-4.0301,-3.8576,-3.6802,-3.5494,-3.4668,-3.3562,-3.2954,-3.3064,-3.3592,-3.4404,-3.5363,-3.6738,-3.8599,-4.0426,-4.1128,-4.1128,-4.1417,-4.1323,-4.0603,-3.9608,-3.9219,-3.8826,-3.808,-3.7035,-3.5646,-3.5089,-3.4619,-3.4424,-3.4606,-3.5296,-3.6594,-3.84,-4.0201,-4.1958,-4.3557,-4.3646,-4.2675,-5.6235,-5.6887,-5.5677,-5.4796,-5.4237,-5.4208,-5.4178,-5.4208,-5.4178,-5.4031,-5.3708,-5.2797,-5.2171,-5.1768,-5.1229,-5.0661,-5.0002,-4.9733,-4.9763,-5.0002,-5.0032,-4.9942,-4.9793,-4.9583,-4.9075,-4.8327,-4.7997,-4.7668,-4.7309,-4.701,-4.6741,-4.6381,-4.5424,-4.4407,-4.3479,-4.2102,-4.0726,-3.9433,-3.9679,-4.0098,-4.0696,-4.1811,-4.2381,-4.2291,-4.1444,-4.0367,-3.899,-3.7135,-3.534,-3.3784,-3.3036,-3.2886,-3.3275,-3.4173,-3.5549,-3.7494,-3.899,-3.9978,-4.0546,-4.0576,-4.0876,-4.1542,-4.1602,-4.1833,-4.2462,-4.2551,-4.256,-4.2578,-4.21,-4.1768,-4.1873,-4.2021,-4.2065,-4.2065,-4.2065,-4.1967,-4.1806,-4.1174,-4.0383,-3.9406,-3.7555,-3.6103,-3.5459,-3.4367,-3.3773,-3.398,-3.437,-3.5126,-3.6648,-3.7889,-3.9411,-4.1204,-4.1508,-4.1238,-4.117,-4.0798,-4.0121,-3.9436,-3.9402,-3.9377,-3.8657,-3.8313,-3.7467,-3.6053,-3.5939,-3.5937,-3.5848,-3.7115,-3.8514,-4.038,-4.1952,-4.3484,-4.4215,-4.3706,-4.2887,-5.4882,-5.5565,-5.4591,-5.3675,-5.2988,-5.2959,-5.2844,-5.2755,-5.2755,-5.2755,-5.2697,-5.2239,-5.1902,-5.1797,-5.1903,-5.1637,-5.1118,-5.1152,-5.1229,-5.1229,-5.1229,-5.0913,-5.0465,-5.0255,-4.9733,-4.8895,-4.8446,-4.7938,-4.7369,-4.7309,-4.7309,-4.713,-4.6142,-4.5155,-4.4227,-4.2521,-4.0816,-3.929,-3.929,-3.926,-3.92,-4.0816,-4.2021,-4.2261,-4.1572,-4.0576,-3.9403,-3.7524,-3.5968,-3.4863,-3.4292,-3.4442,-3.5282,-3.5908,-3.7105,-3.8811,-4.0457,-4.1422,-4.1422,-4.1422,-4.1722,-4.2291,-4.2381,-4.2641,-4.314,-4.329,-4.329,-4.32,-4.2462,-4.1991,-4.1923,-4.1923,-4.1923,-4.1893,-4.1923,-4.2016,-4.2054,-4.1515,-4.1079,-4.0109,-3.8434,-3.6769,-3.6001,-3.5158,-3.4807,-3.518,-3.5284,-3.5824,-3.76,-3.8603,-3.9699,-4.1813,-4.1508,-4.0933,-4.0865,-4.0493,-3.9774,-3.9276,-3.9411,-4.0121,-3.9478,-3.9408,-3.8914,-3.724,-3.7456,-3.7442,-3.7162,-3.8322,-4.0202,-4.2149,-4.3536,-4.4119,-4.4191,-4.3476,-4.296,-5.3643,-5.4307,-5.3699,-5.2761,-5.1737,-5.1709,-5.1377,-5.0878,-5.0878,-5.0823,-5.0906,-5.0823,-5.0791,-5.0816,-5.1178,-5.1235,-5.0911,-5.1178,-5.1319,-5.1289,-5.1259,-5.1229,-5.1139,-5.0495,-5.0166,-4.9837,-4.8955,-4.8057,-4.7399,-4.7309,-4.7309,-4.7249,-4.6561,-4.5603,-4.4377,-4.303,-4.1093,-3.899,-3.917,-3.8841,-3.7973,-3.9499,-4.1025,-4.1931,-4.1085,-4.0098,-3.929,-3.7524,-3.6148,-3.5489,-3.5429,-3.5968,-3.7165,-3.7913,-3.8931,-4.0217,-4.1025,-4.1482,-4.1512,-4.1542,-4.1782,-4.2321,-4.247,-4.2641,-4.32,-4.3379,-4.3409,-4.3319,-4.329,-4.32,-4.32,-4.3021,-4.305,-4.305,-4.314,-4.2959,-4.2612,-4.2682,-4.2187,-4.0712,-3.9261,-3.7745,-3.6158,-3.6173,-3.6228,-3.6554,-3.6879,-3.7361,-3.8213,-3.874,-3.9943,-4.1245,-4.123,-4.0214,-4.0214,-4.018,-3.9503,-3.9039,-3.9648,-4.0764,-4.0417,-3.991,-3.9054,-3.8444,-3.8357,-3.8313,-3.8279,-3.946,-4.1505,-4.3138,-4.3955,-4.4417,-4.3748,-4.3306,-4.2789,-5.2295,-5.2614,-5.2311,-5.1615,-5.0563,-5.0478,-5.0185,-4.9702,-4.9675,-4.9702,-4.9675,-4.9675,-4.9659,-4.9639,-5.0379,-5.0982,-5.1533,-5.2167,-5.2247,-5.1887,-5.1858,-5.1648,-5.1152,-5.0913,-5.0584,-5.0166,-4.9717,-4.8985,-4.7967,-4.7519,-4.7309,-4.7189,-4.6651,-4.5843,-4.4885,-4.3629,-4.1863,-3.9888,-3.9559,-3.896,-3.8093,-3.8332,-3.8931,-3.9768,-3.9798,-3.9439,-3.8781,-3.7285,-3.6357,-3.6148,-3.6507,-3.7315,-3.8661,-4.0127,-4.1153,-4.1654,-4.2282,-4.2641,-4.2641,-4.2641,-4.2731,-4.294,-4.297,-4.306,-4.329,-4.3648,-4.3958,-4.4018,-4.4377,-4.4586,-4.4407,-4.3828,-4.329,-4.329,-4.3319,-4.3299,-4.3049,-4.2844,-4.2236,-4.1049,-3.9477,-3.7586,-3.6341,-3.5963,-3.633,-3.6739,-3.7042,-3.7662,-3.8606,-3.9401,-4.0273,-4.1261,-4.1542,-4.1339,-4.0832,-4.0383,-3.9842,-3.9402,-3.9639,-4.018,-4.018,-4.018,-3.9537,-3.9233,-3.914,-3.9546,-3.9688,-4.0533,-4.2574,-4.3395,-4.4206,-4.3558,-4.308,-4.2532,-4.2121,-5.0924,-5.0959,-5.0933,-5.0446,-4.9584,-4.9557,-4.9113,-4.8486,-4.8492,-4.8387,-4.8257,-4.8204,-4.8258,-4.8542,-4.9331,-5.0212,-5.1171,-5.2134,-5.2328,-5.1736,-5.1706,-5.1302,-5.0816,-5.068,-5.0443,-5.0058,-4.9791,-4.9051,-4.7911,-4.7333,-4.7037,-4.677,-4.6326,-4.5822,-4.5052,-4.3867,-4.2268,-4.055,-3.9661,-3.8891,-3.8091,-3.7766,-3.7855,-3.8269,-3.8565,-3.8293,-3.749,-3.6626,-3.6417,-3.6806,-3.7584,-3.8871,-4.0606,-4.1953,-4.2671,-4.2731,-4.309,-4.329,-4.329,-4.329,-4.329,-4.329,-4.329,-4.3349,-4.3589,-4.4077,-4.4377,-4.4676,-4.4975,-4.5274,-4.5125,-4.4496,-4.3947,-4.3958,-4.3958,-4.3917,-4.3917,-4.3599,-4.28,-4.143,-3.9757,-3.7953,-3.6444,-3.6383,-3.6526,-3.6748,-3.7032,-3.7657,-3.8525,-3.9369,-4.0226,-4.0769,-4.0983,-4.1124,-4.0936,-4.0608,-4.0213,-3.9792,-3.9876,-4.0206,-4.0307,-4.0333,-4.0265,-4.0028,-4.0257,-4.0764,-4.1375,-4.2031,-4.2698,-4.3469,-4.3005,-4.2245,-4.1916,-4.1698,-4.1347,-4.9654,-4.9668,-4.959,-4.938,-4.8976,-4.8926,-4.8208,-4.7338,-4.7201,-4.7056,-4.6711,-4.6481,-4.6909,-4.739,-4.8221,-4.8912,-4.966,-5.0865,-5.1157,-5.068,-5.0672,-5.0295,-4.9707,-4.9658,-4.9571,-4.9426,-4.8953,-4.8054,-4.6935,-4.6715,-4.6367,-4.5921,-4.5759,-4.5383,-4.4849,-4.3473,-4.1951,-4.0289,-3.9363,-3.8408,-3.7403,-3.7606,-3.7866,-3.7924,-3.7482,-3.672,-3.5707,-3.5657,-3.6287,-3.7391,-3.865,-4.0599,-4.2533,-4.319,-4.329,-4.325,-4.328,-4.3349,-4.3409,-4.3469,-4.3529,-4.3529,-4.3409,-4.3738,-4.4227,-4.4436,-4.4736,-4.5214,-4.5424,-4.5454,-4.5454,-4.5364,-4.5214,-4.5244,-4.5065,-4.5065,-4.5125,-4.5155,-4.4257,-4.1901,-4.0244,-3.8987,-3.7715,-3.7054,-3.697,-3.6691,-3.6929,-3.7221,-3.7655,-3.8218,-3.9093,-3.9688,-3.9963,-4.0073,-4.0492,-4.0779,-4.0481,-4.0217,-4.0557,-4.0811,-4.0692,-4.0692,-4.071,-4.0542,-4.1212,-4.1719,-4.1982,-4.2513,-4.2147,-4.249,-4.1724,-4.1138,-4.0839,-4.0631,-4.0529,-4.959,-4.959,-4.959,-4.9289,-4.8812,-4.8786,-4.8159,-4.7118,-4.7068,-4.6828,-4.6376,-4.6326,-4.6541,-4.7019,-4.7619,-4.8178,-4.8589,-4.9438,-4.9912,-4.9948,-4.9942,-4.9434,-4.8621,-4.8453,-4.8257,-4.7859,-4.7219,-4.6721,-4.6301,-4.5881,-4.5496,-4.53,-4.4956,-4.4452,-4.3808,-4.2649,-4.1163,-3.9452,-3.8695,-3.7641,-3.6125,-3.6125,-3.6161,-3.6056,-3.5784,-3.5533,-3.5629,-3.6259,-3.7032,-3.785,-3.9295,-4.0958,-4.2554,-4.3334,-4.3571,-4.356,-4.3571,-4.389,-4.437,-4.4564,-4.4616,-4.4676,-4.4676,-4.4766,-4.5005,-4.5394,-4.5723,-4.6052,-4.6411,-4.6681,-4.6681,-4.6681,-4.6262,-4.5394,-4.5274,-4.5364,-4.5304,-4.4616,-4.3449,-4.2231,-4.0554,-3.8983,-3.7699,-3.7201,-3.6604,-3.5793,-3.6106,-3.6507,-3.6056,-3.7065,-3.7224,-3.7261,-3.7931,-3.9019,-3.9469,-4.0118,-4.0395,-4.0315,-4.0668,-4.0718,-4.0673,-4.0782,-4.0863,-4.1473,-4.2085,-4.2496,-4.2794,-4.2557,-4.2117,-4.1508,-4.0942,-4.04,-3.9876,-3.9697,-3.9738,-4.959,-4.959,-4.959,-4.9414,-4.9088,-4.9063,-4.8586,-4.7807,-4.7757,-4.7305,-4.6728,-4.6627,-4.6622,-4.6711,-4.6993,-4.729,-4.7442,-4.7854,-4.82,-4.8519,-4.8978,-4.8437,-4.7429,-4.7102,-4.683,-4.6528,-4.6068,-4.5768,-4.5499,-4.5122,-4.4823,-4.4552,-4.4226,-4.3786,-4.3106,-4.2038,-4.0568,-3.8907,-3.7997,-3.6743,-3.5392,-3.5108,-3.5165,-3.51,-3.5412,-3.5804,-3.6329,-3.7385,-3.8058,-3.8644,-4.032,-4.1971,-4.2952,-4.3403,-4.3608,-4.3637,-4.3637,-4.391,-4.463,-4.5007,-4.5274,-4.5274,-4.5274,-4.5424,-4.5663,-4.6142,-4.6339,-4.6711,-4.701,-4.7309,-4.7279,-4.7309,-4.689,-4.6172,-4.6082,-4.6022,-4.5873,-4.5095,-4.4287,-4.3419,-4.2043,-4.0307,-3.8871,-3.7943,-3.7045,-3.6064,-3.617,-3.6462,-3.5953,-3.6568,-3.6462,-3.6503,-3.7216,-3.8068,-3.8515,-3.9309,-4.0103,-4.0383,-4.0591,-4.0375,-4.0221,-4.0455,-4.0626,-4.2111,-4.3026,-4.3044,-4.3267,-4.2286,-4.161,-4.0933,-4.0307,-3.9749,-3.9309,-3.9242,-3.918,-4.959,-4.959,-4.959,-4.959,-4.954,-4.954,-4.9188,-4.8761,-4.8686,-4.8109,-4.733,-4.7118,-4.6878,-4.6476,-4.6547,-4.6582,-4.6361,-4.6481,-4.6576,-4.6849,-4.7398,-4.7433,-4.6506,-4.5897,-4.5579,-4.5421,-4.5342,-4.505,-4.452,-4.4415,-4.4255,-4.3753,-4.3621,-4.3355,-4.2693,-4.1629,-4.0018,-3.8429,-3.7254,-3.577,-3.4192,-3.455,-3.4921,-3.4986,-3.5976,-3.6832,-3.758,-3.8535,-3.9068,-3.9163,-4.1579,-4.3069,-4.3313,-4.3342,-4.34,-4.3384,-4.3371,-4.3719,-4.4223,-4.5014,-4.5364,-4.5436,-4.5508,-4.5622,-4.6207,-4.6429,-4.6681,-4.713,-4.7279,-4.7309,-4.7309,-4.7309,-4.7249,-4.7279,-4.707,-4.71,-4.7189,-4.6561,-4.5753,-4.5125,-4.4107,-4.2542,-4.0516,-3.9709,-3.8691,-3.7648,-3.7361,-3.7325,-3.704,-3.7024,-3.7031,-3.7002,-3.6785,-3.694,-3.7375,-3.8274,-3.9203,-4.0388,-4.0568,-4.042,-4.0318,-4.0589,-4.1371,-4.2811,-4.3643,-4.3693,-4.3259,-4.2274,-4.1331,-4.0565,-3.9918,-3.9235,-3.8888,-3.878,-3.8425,-4.959,-4.959,-4.959,-4.959,-4.959,-4.959,-4.9289,-4.8812,-4.8786,-4.841,-4.7807,-4.7707,-4.7405,-4.6954,-4.6903,-4.6702,-4.6426,-4.6326,-4.6326,-4.6336,-4.6569,-4.6407,-4.5719,-4.5107,-4.4653,-4.4377,-4.4386,-4.3934,-4.3449,-4.3537,-4.3406,-4.3169,-4.2897,-4.2613,-4.2123,-4.0543,-3.8883,-3.753,-3.6049,-3.4535,-3.3206,-3.3411,-3.3989,-3.4856,-3.5896,-3.7173,-3.8401,-3.9192,-3.9849,-4.0394,-4.2028,-4.2772,-4.2339,-4.2726,-4.2996,-4.2859,-4.3024,-4.3539,-4.4424,-4.5167,-4.5639,-4.5962,-4.5945,-4.6399,-4.6721,-4.691,-4.7086,-4.7309,-4.7309,-4.7309,-4.7309,-4.7309,-4.7309,-4.7309,-4.7309,-4.7309,-4.7189,-4.6741,-4.619,-4.5903,-4.4496,-4.291,-4.1624,-4.0576,-3.9559,-3.8242,-3.8042,-3.8197,-3.8012,-3.7292,-3.7218,-3.6269,-3.5906,-3.5969,-3.63,-3.7207,-3.8387,-3.9985,-4.0512,-4.0655,-4.0874,-4.1374,-4.2558,-4.4036,-4.4245,-4.4288,-4.3377,-4.238,-4.1405,-4.0219,-3.9648,-3.9023,-3.8463,-3.8179,-3.7733,-4.959,-4.959,-4.959,-4.959,-4.959,-4.959,-4.9414,-4.9163,-4.9113,-4.8786,-4.836,-4.8259,-4.7958,-4.7481,-4.7456,-4.7154,-4.6702,-4.6652,-4.6527,-4.6326,-4.6361,-4.6034,-4.5506,-4.4895,-4.4443,-4.4166,-4.3915,-4.3671,-4.3369,-4.3112,-4.2986,-4.2997,-4.2715,-4.2464,-4.2116,-4.0501,-3.9019,-3.7863,-3.6257,-3.46,-3.3119,-3.347,-3.3822,-3.47,-3.583,-3.7563,-3.9295,-4.0099,-4.0568,-4.0935,-4.1726,-4.2209,-4.1822,-4.2134,-4.2372,-4.2229,-4.2372,-4.2794,-4.3637,-4.4452,-4.5007,-4.5372,-4.5808,-4.624,-4.6594,-4.6975,-4.7309,-4.7309,-4.7309,-4.7309,-4.7309,-4.7309,-4.7309,-4.7309,-4.7309,-4.7309,-4.7309,-4.701,-4.677,-4.6352,-4.5274,-4.3838,-4.2701,-4.1803,-4.0786,-3.9918,-3.9775,-3.9655,-3.9266,-3.8272,-3.7494,-3.6985,-3.6178,-3.6187,-3.6433,-3.7184,-3.8206,-3.9727,-4.0905,-4.0982,-4.1382,-4.1946,-4.2859,-4.3936,-4.4464,-4.4462,-4.3286,-4.2111,-4.0877,-3.9935,-3.9373,-3.8799,-3.8208,-3.8037,-3.7469,-4.959,-4.959,-4.959,-4.959,-4.959,-4.959,-4.9565,-4.959,-4.954,-4.9289,-4.8912,-4.8862,-4.8535,-4.8008,-4.8008,-4.7682,-4.7068,-4.6993,-4.6728,-4.6451,-4.6276,-4.605,-4.5673,-4.5246,-4.4895,-4.4694,-4.4192,-4.394,-4.3689,-4.3288,-4.3062,-4.2986,-4.2936,-4.2766,-4.2238,-4.1128,-4.0074,-3.8944,-3.7387,-3.5805,-3.455,-3.455,-3.465,-3.4876,-3.6634,-3.8417,-4.0023,-4.0877,-4.1066,-4.0619,-4.1278,-4.1755,-4.1755,-4.1729,-4.1729,-4.1858,-4.1957,-4.213,-4.2547,-4.336,-4.3855,-4.4461,-4.5135,-4.5664,-4.6366,-4.7081,-4.7553,-4.767,-4.7519,-4.7608,-4.7489,-4.7399,-4.7309,-4.7309,-4.7309,-4.7309,-4.7309,-4.7309,-4.7309,-4.7249,-4.6112,-4.5214,-4.4287,-4.3449,-4.259,-4.1654,-4.1632,-4.1624,-4.1055,-4.0157,-3.9439,-3.8841,-3.7883,-3.6746,-3.6989,-3.7289,-3.8337,-3.9559,-4.1033,-4.1641,-4.1873,-4.235,-4.29,-4.358,-4.4297,-4.396,-4.2811,-4.1598,-4.0482,-3.9746,-3.9296,-3.855,-3.7887,-3.8116,-3.7904,-4.959,-4.959,-4.959,-4.959,-4.959,-4.959,-4.959,-4.959,-4.959,-4.9515,-4.9414,-4.9414,-4.9088,-4.8586,-4.8535,-4.8083,-4.7305,-4.7118,-4.6828,-4.6376,-4.6326,-4.6276,-4.61,-4.5899,-4.5673,-4.5372,-4.5196,-4.4669,-4.3991,-4.3689,-4.3388,-4.3062,-4.2986,-4.2967,-4.2635,-4.1706,-4.0799,-3.9973,-3.8517,-3.7086,-3.5981,-3.5504,-3.5554,-3.5931,-3.7914,-3.9421,-4.035,-4.1,-4.1204,-4.1347,-4.1798,-4.219,-4.2009,-4.2113,-4.2087,-4.1983,-4.2113,-4.2398,-4.2784,-4.3189,-4.3825,-4.4293,-4.4976,-4.5966,-4.6708,-4.7583,-4.819,-4.8521,-4.8701,-4.8506,-4.8117,-4.7608,-4.7489,-4.7489,-4.7399,-4.7369,-4.7309,-4.7309,-4.7309,-4.713,-4.6561,-4.5663,-4.4586,-4.4676,-4.4047,-4.3449,-4.3389,-4.3629,-4.294,-4.2013,-4.1115,-4.0404,-3.8931,-3.7793,-3.7614,-3.7913,-3.8721,-3.9649,-4.0935,-4.1991,-4.2228,-4.2576,-4.2995,-4.355,-4.42,-4.3493,-4.2556,-4.1656,-4.0653,-3.9936,-3.9281,-3.8748,-3.8398,-3.8435,-3.8588,-4.959,-4.959,-4.959,-4.959,-4.959,-4.959,-4.959,-4.959,-4.959,-4.959,-4.959,-4.959,-4.9414,-4.9163,-4.9113,-4.8686,-4.7983,-4.7581,-4.7205,-4.6803,-4.6702,-4.6552,-4.6326,-4.6301,-4.6125,-4.5849,-4.5573,-4.5095,-4.4618,-4.4066,-4.3639,-4.3338,-4.3137,-4.2986,-4.2911,-4.2158,-4.163,-4.1053,-3.9647,-3.8266,-3.7236,-3.6634,-3.6584,-3.7337,-3.8994,-4.0325,-4.0849,-4.1706,-4.2057,-4.2217,-4.2464,-4.2401,-4.1833,-4.1864,-4.1864,-4.1811,-4.1811,-4.1998,-4.221,-4.2421,-4.2736,-4.3412,-4.4127,-4.4984,-4.5972,-4.7128,-4.805,-4.8496,-4.8878,-4.912,-4.8775,-4.8536,-4.8237,-4.8147,-4.7938,-4.7788,-4.7698,-4.7519,-4.7309,-4.7189,-4.6711,-4.6112,-4.5633,-4.5544,-4.5424,-4.4766,-4.4436,-4.4616,-4.4616,-4.3658,-4.2432,-4.1354,-3.9828,-3.8811,-3.8482,-3.8661,-3.923,-4.0038,-4.0876,-4.1782,-4.2286,-4.262,-4.3023,-4.351,-4.3891,-4.3434,-4.2541,-4.1668,-4.0821,-3.9925,-3.9317,-3.9057,-3.892,-3.8904,-3.9188,-4.959,-4.959,-4.959,-4.959,-4.959,-4.959,-4.959,-4.959,-4.959,-4.959,-4.959,-4.959,-4.9565,-4.9565,-4.954,-4.9264,-4.8686,-4.8109,-4.7531,-4.7079,-4.6993,-4.6753,-4.6426,-4.6301,-4.6301,-4.625,-4.5899,-4.5573,-4.5171,-4.4593,-4.4166,-4.389,-4.3514,-4.3438,-4.3187,-4.2766,-4.2489,-4.2238,-4.0777,-3.9396,-3.8316,-3.7638,-3.7513,-3.8065,-3.9647,-4.0752,-4.1326,-4.2183,-4.2911,-4.2986,-4.2986,-4.2484,-4.1882,-4.1526,-4.158,-4.163,-4.1785,-4.1864,-4.1944,-4.1868,-4.2059,-4.2281,-4.3022,-4.3909,-4.5138,-4.649,-4.7568,-4.8243,-4.8786,-4.9266,-4.9313,-4.9044,-4.9119,-4.9075,-4.8686,-4.8446,-4.8207,-4.7758,-4.7578,-4.7429,-4.707,-4.6531,-4.6292,-4.6172,-4.6172,-4.6112,-4.5783,-4.5603,-4.5574,-4.5095,-4.3778,-4.2521,-4.1025,-3.9529,-3.905,-3.8571,-3.923,-3.9798,-4.0636,-4.1235,-4.1961,-4.2466,-4.2784,-4.3178,-4.3317,-4.3037,-4.2754,-4.2055,-4.1113,-4.0008,-3.9793,-3.997,-3.976,-3.9412,-3.9877,-4.959,-4.959,-4.959,-4.959,-4.959,-4.959,-4.959,-4.959,-4.959,-4.959,-4.959,-4.959,-4.959,-4.959,-4.959,-4.9289,-4.8786,-4.8309,-4.7757,-4.733,-4.7193,-4.6979,-4.6577,-4.6451,-4.6376,-4.6301,-4.6125,-4.5924,-4.5623,-4.5271,-4.4819,-4.4543,-4.4317,-4.4242,-4.4066,-4.3815,-4.3413,-4.3087,-4.1781,-4.045,-3.9295,-3.8266,-3.7789,-3.8216,-3.9896,-4.0949,-4.1505,-4.2333,-4.2986,-4.2986,-4.2986,-4.2861,-4.266,-4.2585,-4.2585,-4.2559,-4.2534,-4.2509,-4.2509,-4.261,-4.2826,-4.3212,-4.3576,-4.4331,-4.534,-4.6535,-4.7359,-4.8174,-4.8702,-4.921,-4.9461,-4.9275,-4.9193,-4.9194,-4.9239,-4.8925,-4.8506,-4.8237,-4.8177,-4.8207,-4.7668,-4.713,-4.701,-4.686,-4.677,-4.6741,-4.6531,-4.6471,-4.6531,-4.5873,-4.4766,-4.3539,-4.2312,-4.0816,-3.9529,-3.8901,-3.8841,-3.923,-3.9858,-4.0367,-4.1085,-4.1991,-4.2521,-4.324,-4.3439,-4.3369,-4.295,-4.259,-4.2073,-4.1474,-4.1242,-4.107,-4.0969,-4.0921,-4.126,-4.959,-4.959,-4.959,-4.959,-4.959,-4.959,-4.959,-4.959,-4.959,-4.959,-4.959,-4.959,-4.959,-4.959,-4.959,-4.9414,-4.9138,-4.8937,-4.8485,-4.8083,-4.7958,-4.7682,-4.7104,-4.6878,-4.6753,-4.6652,-4.6476,-4.62,-4.5899,-4.5598,-4.5372,-4.507,-4.4794,-4.4618,-4.4568,-4.4342,-4.4091,-4.3614,-4.2459,-4.1078,-3.9697,-3.8366,-3.7789,-3.8467,-3.9746,-4.0874,-4.153,-4.2409,-4.2961,-4.2986,-4.2986,-4.2986,-4.2986,-4.2986,-4.2986,-4.2986,-4.2986,-4.2986,-4.2986,-4.2986,-4.3048,-4.3159,-4.3517,-4.3958,-4.4696,-4.5582,-4.6684,-4.7605,-4.8254,-4.8758,-4.9243,-4.9333,-4.9745,-5.0074,-4.9972,-4.9598,-4.9269,-4.8985,-4.8985,-4.9015,-4.8416,-4.7967,-4.7818,-4.7638,-4.7429,-4.7309,-4.7219,-4.7309,-4.7459,-4.6561,-4.5514,-4.3928,-4.2581,-4.1235,-3.9918,-3.929,-3.8841,-3.908,-3.926,-3.9768,-4.0606,-4.1662,-4.2731,-4.3718,-4.3778,-4.4018,-4.4137,-4.4047,-4.3509,-4.303,-4.288,-4.274,-4.2548,-4.2522,-4.2712,-4.959,-4.959,-4.959,-4.959,-4.959,-4.959,-4.959,-4.959,-4.959,-4.959,-4.959,-4.959,-4.959,-4.959,-4.959,-4.959,-4.959,-4.954,-4.9188,-4.8761,-4.8636,-4.841,-4.7883,-4.7431,-4.7018,-4.6954,-4.6552,-4.6326,-4.6175,-4.5899,-4.5698,-4.5573,-4.5146,-4.497,-4.502,-4.492,-4.4518,-4.394,-4.2886,-4.148,-3.9747,-3.8266,-3.7613,-3.8241,-3.9697,-4.0802,-4.1326,-4.2409,-4.2911,-4.2986,-4.2986,-4.2986,-4.2986,-4.2986,-4.2986,-4.2986,-4.2986,-4.2986,-4.2986,-4.2986,-4.3042,-4.3042,-4.3042,-4.3321,-4.3848,-4.4724,-4.5529,-4.6605,-4.7327,-4.7988,-4.8631,-4.9259,-4.9921,-5.0437,-5.0317,-5.01,-4.9802,-4.961,-4.9582,-4.9448,-4.9045,-4.8895,-4.8805,-4.8476,-4.8267,-4.8207,-4.8117,-4.8087,-4.8087,-4.7189,-4.5963,-4.4107,-4.2611,-4.1324,-4.0307,-3.9679,-3.932,-3.9224,-3.923,-3.9409,-4.0397,-4.1512,-4.2611,-4.3778,-4.4945,-4.5214,-4.5394,-4.5274,-4.4586,-4.4227,-4.4436,-4.4317,-4.3918,-4.3738,-4.3828,-4.959,-4.959,-4.959,-4.959,-4.959,-4.959,-4.959,-4.959,-4.959,-4.959,-4.959,-4.959,-4.959,-4.959,-4.959,-4.959,-4.959,-4.9565,-4.9339,-4.8937,-4.8862,-4.8586,-4.7958,-4.738,-4.7294,-4.728,-4.6728,-4.6351,-4.6376,-4.6301,-4.6175,-4.61,-4.6024,-4.605,-4.5849,-4.5547,-4.5372,-4.4995,-4.3639,-4.1781,-3.9873,-3.8492,-3.8266,-3.8919,-3.9848,-4.0827,-4.1401,-4.2409,-4.2961,-4.2986,-4.2986,-4.2986,-4.2986,-4.2986,-4.2986,-4.2986,-4.2986,-4.2986,-4.2986,-4.2986,-4.2986,-4.2986,-4.2986,-4.3184,-4.3649,-4.4226,-4.4937,-4.5608,-4.6216,-4.6898,-4.7647,-4.8252,-4.8951,-4.9542,-4.9814,-4.9674,-4.9646,-4.988,-4.9931,-5.0226,-4.9883,-4.9867,-4.9897,-4.9494,-4.9179,-4.912,-4.906,-4.9,-4.8566,-4.7608,-4.68,-4.5065,-4.3449,-4.2162,-4.1145,-4.0457,-4.0008,-3.9738,-3.9499,-3.9469,-4.0606,-4.1811,-4.2462,-4.3658,-4.5005,-4.5873,-4.5693,-4.5484,-4.5304,-4.5364,-4.5454,-4.5364,-4.5125,-4.5035,-4.4945,-4.959,-4.959,-4.959,-4.959,-4.959,-4.959,-4.959,-4.959,-4.959,-4.959,-4.959,-4.959,-4.959,-4.959,-4.959,-4.959,-4.959,-4.959,-4.949,-4.9289,-4.9188,-4.9088,-4.8837,-4.836,-4.8058,-4.7832,-4.7531,-4.733,-4.7079,-4.6602,-4.6326,-4.6326,-4.6326,-4.625,-4.6326,-4.6075,-4.5773,-4.492,-4.3288,-4.1304,-3.9823,-3.8743,-3.8442,-3.9372,-4.0124,-4.0953,-4.1806,-4.2484,-4.2961,-4.2986,-4.2986,-4.2986,-4.2986,-4.2986,-4.2986,-4.2986,-4.2986,-4.2986,-4.2986,-4.2986,-4.2986,-4.2986,-4.3011,-4.3224,-4.3594,-4.3975,-4.4407,-4.4913,-4.5213,-4.5819,-4.6462,-4.6851,-4.741,-4.8044,-4.8674,-4.9153,-4.9311,-4.985,-5.0106,-5.0406,-5.0704,-5.0551,-5.0461,-5.012,-4.9657,-4.9509,-4.9419,-4.9329,-4.8775,-4.7908,-4.713,-4.6262,-4.4706,-4.324,-4.2342,-4.1534,-4.0995,-4.0666,-4.0217,-4.0397,-4.1265,-4.2222,-4.2821,-4.3599,-4.4825,-4.5424,-4.5693,-4.6082,-4.6262,-4.6381,-4.6441,-4.6177,-4.5985,-4.6147,-4.5878,-4.959,-4.959,-4.959,-4.959,-4.959,-4.959,-4.959,-4.959,-4.959,-4.959,-4.959,-4.959,-4.959,-4.959,-4.959,-4.959,-4.959,-4.959,-4.959,-4.959,-4.959,-4.9565,-4.9289,-4.8987,-4.8711,-4.8761,-4.8033,-4.7807,-4.7581,-4.7205,-4.6753,-4.6527,-4.6376,-4.6326,-4.6326,-4.6225,-4.5949,-4.502,-4.3087,-4.143,-4.0199,-3.9069,-3.917,-3.9798,-4.0601,-4.1379,-4.2338,-4.3112,-4.3438,-4.3463,-4.3514,-4.3564,-4.3539,-4.3564,-4.3539,-4.3539,-4.3564,-4.3539,-4.3413,-4.3263,-4.3037,-4.2986,-4.3037,-4.3243,-4.3721,-4.3815,-4.4016,-4.4648,-4.4642,-4.5085,-4.5483,-4.5687,-4.6085,-4.6684,-4.7304,-4.8016,-4.8617,-4.9005,-4.9592,-5.0121,-5.0407,-5.0704,-5.0585,-5.0441,-5.0147,-4.9912,-4.9733,-4.9643,-4.9134,-4.8476,-4.7938,-4.7339,-4.6531,-4.5005,-4.3748,-4.291,-4.2351,-4.1654,-4.1167,-4.1017,-4.1765,-4.2432,-4.3,-4.3868,-4.4713,-4.5424,-4.5933,-4.6651,-4.7236,-4.691,-4.6675,-4.6767,-4.6797,-4.6826,-4.6116,-4.959,-4.959,-4.959,-4.959,-4.959,-4.959,-4.959,-4.959,-4.959,-4.959,-4.959,-4.959,-4.959,-4.959,-4.959,-4.959,-4.959,-4.959,-4.959,-4.959,-4.959,-4.959,-4.9439,-4.9138,-4.8837,-4.8761,-4.841,-4.8159,-4.7933,-4.7933,-4.7456,-4.7104,-4.6702,-4.6426,-4.6351,-4.6326,-4.5748,-4.4844,-4.3338,-4.2258,-4.1178,-4.0249,-3.9973,-4.0601,-4.1505,-4.2389,-4.2992,-4.384,-4.4292,-4.4292,-4.4267,-4.4267,-4.4192,-4.4217,-4.4217,-4.4217,-4.4217,-4.4217,-4.4116,-4.3614,-4.3137,-4.3011,-4.3137,-4.3438,-4.4016,-4.3915,-4.4116,-4.4644,-4.4788,-4.475,-4.5004,-4.5031,-4.5255,-4.5528,-4.6114,-4.6742,-4.7387,-4.7993,-4.8567,-4.9493,-4.996,-5.0057,-5.0346,-5.011,-5.0431,-5.0186,-5.0249,-5.019,-5.006,-4.9492,-4.9075,-4.8596,-4.8267,-4.704,-4.5424,-4.4526,-4.3778,-4.2981,-4.2335,-4.1918,-4.1897,-4.2494,-4.3099,-4.3675,-4.4424,-4.5305,-4.6087,-4.6469,-4.6784,-4.6814,-4.6756,-4.6417,-4.5682,-4.5111,-4.4342,-4.959,-4.959,-4.959,-4.959,-4.959,-4.959,-4.959,-4.959,-4.959,-4.959,-4.959,-4.959,-4.959,-4.959,-4.959,-4.959,-4.959,-4.959,-4.959,-4.959,-4.959,-4.959,-4.949,-4.9414,-4.9289,-4.9213,-4.8987,-4.8937,-4.8962,-4.8611,-4.8385,-4.7933,-4.728,-4.6928,-4.6717,-4.6502,-4.5723,-4.4794,-4.389,-4.2936,-4.1932,-4.1254,-4.1128,-4.2032,-4.2258,-4.3162,-4.389,-4.4342,-4.4568,-4.4644,-4.4669,-4.4719,-4.4744,-4.4719,-4.4719,-4.4719,-4.4744,-4.4719,-4.4669,-4.4242,-4.4016,-4.3991,-4.4041,-4.4166,-4.4618,-4.4794,-4.5121,-4.5355,-4.5213,-4.5099,-4.5182,-4.4948,-4.4735,-4.4712,-4.5005,-4.5607,-4.614,-4.6794,-4.747,-4.8291,-4.876,-4.8944,-4.9317,-4.9688,-5.0124,-5.0478,-5.068,-5.0716,-5.0453,-5.0402,-4.9927,-4.9613,-4.9254,-4.8536,-4.695,-4.598,-4.5161,-4.4322,-4.3515,-4.2957,-4.2541,-4.2555,-4.3136,-4.36,-4.3969,-4.4615,-4.5259,-4.5947,-4.6241,-4.6329,-4.6016,-4.5463,-4.4583,-4.3545,-4.2794,-4.959,-4.959,-4.959,-4.959,-4.959,-4.959,-4.959,-4.959,-4.959,-4.959,-4.959,-4.959,-4.959,-4.959,-4.959,-4.959,-4.959,-4.959,-4.959,-4.959,-4.959,-4.959,-4.959,-4.9565,-4.9515,-4.959,-4.959,-4.954,-4.9464,-4.9188,-4.9012,-4.8711,-4.8134,-4.7682,-4.728,-4.6954,-4.6225,-4.5271,-4.4342,-4.3514,-4.2484,-4.1907,-4.1907,-4.2836,-4.3237,-4.394,-4.4669,-4.5095,-4.5246,-4.5246,-4.5221,-4.5196,-4.5146,-4.5121,-4.5121,-4.5121,-4.5062,-4.5095,-4.507,-4.4769,-4.4669,-4.4493,-4.4518,-4.4844,-4.5296,-4.5497,-4.5573,-4.605,-4.5773,-4.5497,-4.5472,-4.4961,-4.4389,-4.4356,-4.451,-4.5022,-4.5255,-4.5742,-4.6381,-4.7042,-4.7564,-4.8406,-4.8522,-4.8902,-4.9198,-4.964,-4.995,-5.0143,-5.0389,-5.0419,-5.0614,-5.0391,-5.0182,-4.9344,-4.8416,-4.7611,-4.6808,-4.55,-4.4667,-4.3846,-4.3472,-4.3156,-4.2854,-4.3107,-4.3478,-4.391,-4.4521,-4.5285,-4.5643,-4.5866,-4.5184,-4.4331,-4.3499,-4.2504,-4.1699,-4.959,-4.959,-4.959,-4.959,-4.959,-4.959,-4.959,-4.959,-4.959,-4.959,-4.959,-4.959,-4.959,-4.959,-4.959,-4.959,-4.959,-4.959,-4.959,-4.959,-4.959,-4.959,-4.959,-4.959,-4.959,-4.959,-4.959,-4.959,-4.959,-4.949,-4.9464,-4.9364,-4.8862,-4.8309,-4.7933,-4.7857,-4.728,-4.625,-4.5121,-4.4166,-4.3212,-4.2635,-4.2836,-4.3413,-4.4066,-4.4794,-4.5347,-4.5773,-4.5899,-4.5924,-4.5974,-4.5974,-4.5999,-4.6024,-4.605,-4.6075,-4.6125,-4.615,-4.615,-4.5221,-4.4895,-4.4895,-4.502,-4.5171,-4.5422,-4.5598,-4.5748,-4.6225,-4.5899,-4.5623,-4.5347,-4.507,-4.4593,-4.4174,-4.4358,-4.4311,-4.4561,-4.4759,-4.5385,-4.5843,-4.7082,-4.8109,-4.8036,-4.8084,-4.8235,-4.8624,-4.9092,-4.9484,-4.9854,-5.0228,-5.049,-5.0449,-5.0223,-4.9719,-4.8978,-4.9088,-4.8372,-4.7022,-4.5607,-4.449,-4.3319,-4.2446,-4.2342,-4.2528,-4.2823,-4.3138,-4.3883,-4.4704,-4.4692,-4.4578,-4.3822,-4.2988,-4.2204,-4.1595,-4.0971,-4.9047,-4.9267,-4.9525,-4.959,-4.959,-4.959,-4.959,-4.959,-4.959,-4.959,-4.959,-4.959,-4.959,-4.959,-4.959,-4.959,-4.959,-4.959,-4.959,-4.959,-4.959,-4.959,-4.959,-4.959,-4.959,-4.959,-4.959,-4.959,-4.959,-4.959,-4.959,-4.949,-4.9314,-4.8812,-4.8159,-4.7832,-4.7355,-4.6451,-4.5824,-4.5221,-4.4217,-4.3915,-4.4041,-4.4593,-4.5045,-4.5497,-4.605,-4.6376,-4.6426,-4.6451,-4.6451,-4.6426,-4.6426,-4.6426,-4.6376,-4.6351,-4.6351,-4.6326,-4.6276,-4.5874,-4.5799,-4.5748,-4.5673,-4.5723,-4.5999,-4.6024,-4.615,-4.6225,-4.61,-4.5974,-4.5949,-4.5899,-4.5472,-4.4644,-4.4382,-4.396,-4.3939,-4.4122,-4.4449,-4.4745,-4.5585,-4.6552,-4.6865,-4.6811,-4.6933,-4.7053,-4.7489,-4.8195,-4.8696,-4.9493,-4.9969,-4.9969,-4.9852,-4.9637,-4.9362,-4.8916,-4.7934,-4.6275,-4.5259,-4.4443,-4.3255,-4.1808,-4.1707,-4.1839,-4.2054,-4.235,-4.3218,-4.3817,-4.3506,-4.3114,-4.2882,-4.2392,-4.1775,-4.1261,-4.0747,-4.8216,-4.8787,-4.9332,-4.959,-4.959,-4.959,-4.959,-4.959,-4.959,-4.959,-4.959,-4.959,-4.959,-4.959,-4.959,-4.959,-4.959,-4.959,-4.959,-4.959,-4.959,-4.959,-4.959,-4.959,-4.959,-4.959,-4.959,-4.959,-4.959,-4.959,-4.959,-4.959,-4.959,-4.9188,-4.8711,-4.846,-4.8184,-4.7456,-4.6979,-4.6451,-4.5723,-4.5397,-4.5472,-4.5874,-4.615,-4.6326,-4.6728,-4.6853,-4.6828,-4.6828,-4.6828,-4.6828,-4.6828,-4.6853,-4.6853,-4.6878,-4.6878,-4.6903,-4.6903,-4.6903,-4.6853,-4.6853,-4.6577,-4.6326,-4.6326,-4.625,-4.625,-4.6301,-4.6351,-4.6351,-4.6351,-4.6376,-4.5999,-4.5171,-4.4794,-4.4375,-4.4098,-4.4281,-4.4565,-4.4699,-4.5106,-4.5716,-4.5909,-4.5532,-4.5523,-4.5634,-4.5822,-4.6637,-4.7485,-4.8245,-4.8873,-4.8873,-4.8795,-4.8517,-4.8296,-4.8133,-4.6995,-4.5524,-4.4712,-4.4015,-4.2387,-4.0886,-4.1028,-4.1117,-4.1328,-4.172,-4.2606,-4.2942,-4.3018,-4.2988,-4.2853,-4.2274,-4.143,-4.11,-4.0902,-4.7178,-4.8043,-4.9112,-4.9461,-4.9525,-4.9332,-4.9461,-4.959,-4.959,-4.959,-4.959,-4.959,-4.959,-4.959,-4.959,-4.959,-4.959,-4.959,-4.959,-4.959,-4.959,-4.959,-4.959,-4.959,-4.959,-4.959,-4.959,-4.959,-4.959,-4.959,-4.959,-4.959,-4.959,-4.9439,-4.9364,-4.9238,-4.8937,-4.8335,-4.7933,-4.7431,-4.6853,-4.6552,-4.6552,-4.6778,-4.6817,-4.7004,-4.728,-4.7431,-4.7556,-4.7657,-4.7757,-4.7807,-4.7857,-4.7883,-4.7908,-4.7857,-4.7782,-4.7732,-4.7707,-4.7657,-4.7682,-4.7506,-4.6954,-4.6552,-4.6502,-4.6652,-4.6728,-4.6677,-4.6702,-4.6577,-4.6502,-4.6451,-4.6351,-4.5899,-4.5573,-4.5196,-4.4819,-4.4953,-4.5255,-4.5515,-4.5944,-4.6254,-4.5975,-4.55,-4.4793,-4.4642,-4.4791,-4.4884,-4.5767,-4.6736,-4.7252,-4.7304,-4.7225,-4.7173,-4.7063,-4.7003,-4.6228,-4.4843,-4.4125,-4.33,-4.1541,-4.0362,-4.0491,-4.0619,-4.0586,-4.1165,-4.2452,-4.2958,-4.2962,-4.2927,-4.2891,-4.2604,-4.2007,-4.1806,-4.158,-4.5729,-4.656,-4.7672,-4.8092,-4.8092,-4.8092,-4.8616,-4.9525,-4.959,-4.959,-4.959,-4.959,-4.959,-4.959,-4.959,-4.959,-4.959,-4.959,-4.959,-4.959,-4.959,-4.959,-4.959,-4.959,-4.959,-4.959,-4.959,-4.9525,-4.9525,-4.9525,-4.9525,-4.959,-4.9396,-4.9461,-4.9461,-4.9525,-4.9174,-4.8873,-4.8484,-4.8259,-4.7908,-4.7556,-4.7456,-4.733,-4.7168,-4.7255,-4.7104,-4.7355,-4.7431,-4.7481,-4.7782,-4.7908,-4.7908,-4.7908,-4.7908,-4.7908,-4.7883,-4.7883,-4.7908,-4.7933,-4.7983,-4.8058,-4.7631,-4.7556,-4.7456,-4.7405,-4.738,-4.723,-4.7205,-4.7154,-4.7154,-4.7079,-4.6954,-4.6677,-4.6301,-4.5874,-4.5547,-4.5422,-4.5673,-4.5757,-4.6153,-4.6137,-4.5859,-4.5182,-4.4452,-4.4111,-4.3914,-4.3943,-4.4152,-4.5208,-4.5688,-4.5794,-4.5794,-4.5767,-4.5899,-4.5871,-4.518,-4.4335,-4.3572,-4.276,-4.1543,-4.0565,-4.0253,-4.0425,-4.0902,-4.1706,-4.2746,-4.2961,-4.2986,-4.2986,-4.2947,-4.2791,-4.2585,-4.2359,-4.2258,-4.3794,-4.4618,-4.5661,-4.6157,-4.6157,-4.6157,-4.667,-4.7533,-4.8526,-4.9007,-4.9202,-4.9332,-4.9461,-4.959,-4.959,-4.959,-4.959,-4.959,-4.959,-4.959,-4.959,-4.959,-4.959,-4.959,-4.959,-4.959,-4.9461,-4.9267,-4.9112,-4.8812,-4.8747,-4.8682,-4.8747,-4.8747,-4.8682,-4.8592,-4.8534,-4.8595,-4.8679,-4.8798,-4.8598,-4.8422,-4.8234,-4.772,-4.7519,-4.7118,-4.6892,-4.7218,-4.7419,-4.7782,-4.8284,-4.856,-4.8611,-4.8611,-4.8611,-4.8661,-4.8661,-4.8686,-4.8711,-4.8661,-4.8611,-4.856,-4.8535,-4.8586,-4.8335,-4.8134,-4.7933,-4.7757,-4.7832,-4.7857,-4.7883,-4.7857,-4.7657,-4.7456,-4.7004,-4.6527,-4.6225,-4.5949,-4.5899,-4.5849,-4.5874,-4.5959,-4.5556,-4.4794,-4.4418,-4.4508,-4.4155,-4.3765,-4.3767,-4.4061,-4.4341,-4.4344,-4.4398,-4.4398,-4.4561,-4.4671,-4.4115,-4.3534,-4.3033,-4.2223,-4.1269,-4.0835,-4.0578,-4.0953,-4.153,-4.2258,-4.2942,-4.2961,-4.2986,-4.2986,-4.2986,-4.2886,-4.2811,-4.2785,-4.276,-4.17,-4.2495,-4.3495,-4.3978,-4.3978,-4.3978,-4.4047,-4.4185,-4.6426,-4.787,-4.8306,-4.8787,-4.9202,-4.9525,-4.959,-4.959,-4.959,-4.959,-4.959,-4.959,-4.959,-4.959,-4.959,-4.959,-4.959,-4.9461,-4.9137,-4.8657,-4.8109,-4.7515,-4.7051,-4.7232,-4.7141,-4.7051,-4.6984,-4.7027,-4.6889,-4.6974,-4.7676,-4.8215,-4.8898,-4.9182,-4.921,-4.8432,-4.7958,-4.7533,-4.757,-4.7808,-4.8096,-4.8623,-4.9188,-4.9439,-4.9439,-4.9439,-4.9439,-4.9439,-4.9339,-4.9339,-4.9314,-4.9289,-4.9389,-4.9439,-4.959,-4.9389,-4.9038,-4.8736,-4.851,-4.8435,-4.851,-4.851,-4.851,-4.851,-4.8385,-4.8184,-4.7832,-4.7506,-4.7305,-4.6928,-4.6577,-4.6502,-4.6376,-4.6326,-4.5974,-4.5347,-4.4945,-4.502,-4.4493,-4.3815,-4.362,-4.3512,-4.3473,-4.3427,-4.3517,-4.3602,-4.3572,-4.3606,-4.3178,-4.273,-4.2498,-4.2196,-4.1638,-4.1232,-4.0852,-4.1304,-4.1806,-4.2333,-4.2891,-4.2911,-4.2986,-4.2986,-4.2986,-4.2986,-4.2986,-4.2986,-4.2986,-4.0841,-4.1339,-4.2165,-4.2495,-4.2516,-4.2495,-4.2495,-4.2565,-4.37,-4.5391,-4.7046,-4.7953,-4.8722,-4.9332,-4.9396,-4.9396,-4.9461,-4.9267,-4.9525,-4.9461,-4.9461,-4.9267,-4.9461,-4.9332,-4.9461,-4.9396,-4.8853,-4.7689,-4.6536,-4.5594,-4.496,-4.496,-4.496,-4.5028,-4.5051,-4.5028,-4.5096,-4.5096,-4.5503,-4.6603,-4.7515,-4.7821,-4.7783,-4.7159,-4.6649,-4.6265,-4.6406,-4.6882,-4.7307,-4.7882,-4.901,-4.949,-4.959,-4.959,-4.959,-4.959,-4.959,-4.959,-4.959,-4.959,-4.959,-4.959,-4.959,-4.959,-4.949,-4.9289,-4.9163,-4.9138,-4.9138,-4.9113,-4.9088,-4.9088,-4.9063,-4.8862,-4.8611,-4.8435,-4.8234,-4.7757,-4.7255,-4.7054,-4.6903,-4.6627,-4.6276,-4.5974,-4.5623,-4.5045,-4.4317,-4.379,-4.3714,-4.3652,-4.3476,-4.3406,-4.3123,-4.3154,-4.2986,-4.2961,-4.2811,-4.2811,-4.2821,-4.2439,-4.1982,-4.1831,-4.163,-4.1681,-4.2007,-4.2534,-4.2886,-4.2936,-4.2986,-4.2986,-4.2986,-4.2986,-4.2986,-4.2986,-4.2986,-3.9642,-3.995,-4.0269,-4.0484,-4.0484,-4.0484,-4.0484,-4.0627,-4.1268,-4.2613,-4.455,-4.6177,-4.7648,-4.8551,-4.8682,-4.8592,-4.8592,-4.8616,-4.8551,-4.8616,-4.8592,-4.8616,-4.8682,-4.8592,-4.8551,-4.8396,-4.7226,-4.5932,-4.4641,-4.3794,-4.324,-4.3101,-4.3101,-4.3101,-4.3171,-4.3171,-4.3101,-4.3171,-4.3101,-4.3885,-4.5278,-4.5571,-4.5675,-4.5186,-4.4739,-4.4513,-4.507,-4.5702,-4.6558,-4.7562,-4.8779,-4.945,-4.959,-4.959,-4.959,-4.959,-4.959,-4.959,-4.959,-4.959,-4.959,-4.959,-4.959,-4.959,-4.959,-4.9414,-4.9414,-4.9389,-4.9389,-4.9389,-4.9389,-4.9389,-4.9389,-4.9264,-4.8812,-4.846,-4.7983,-4.7431,-4.7004,-4.6677,-4.6577,-4.6527,-4.625,-4.6225,-4.5924,-4.5799,-4.4945,-4.4518,-4.4317,-4.389,-4.3689,-4.3463,-4.3288,-4.3062,-4.2986,-4.2986,-4.2936,-4.2961,-4.2986,-4.2409,-4.1932,-4.2308,-4.2514,-4.2057,-4.2057,-4.271,-4.2961,-4.3037,-4.2986,-4.2986,-4.2986,-4.2986,-4.2986,-4.3011,-4.2986,-3.8647,-3.8574,-3.8647,-3.8647,-3.8574,-3.8647,-3.872,-3.8793,-3.9353,-4.0269,-4.163,-4.407,-4.5752,-4.6717,-4.7074,-4.7074,-4.6984,-4.6827,-4.6917,-4.6984,-4.7008,-4.6851,-4.6851,-4.6984,-4.6784,-4.6157,-4.5051,-4.3885,-4.2726,-4.1884,-4.1389,-4.153,-4.153,-4.153,-4.1551,-4.1551,-4.146,-4.1389,-4.1389,-4.146,-4.2214,-4.3032,-4.3412,-4.3127,-4.2682,-4.2705,-4.3479,-4.4514,-4.5663,-4.6932,-4.8222,-4.9013,-4.9332,-4.9396,-4.9525,-4.9525,-4.959,-4.959,-4.959,-4.959,-4.959,-4.959,-4.959,-4.959,-4.959,-4.959,-4.959,-4.959,-4.959,-4.959,-4.959,-4.959,-4.959,-4.954,-4.9038,-4.8535,-4.7958,-4.7405,-4.7029,-4.6627,-4.6451,-4.6426,-4.6326,-4.6301,-4.625,-4.6175,-4.5974,-4.5698,-4.5271,-4.4644,-4.4192,-4.3915,-4.3639,-4.3413,-4.3162,-4.2986,-4.2986,-4.2986,-4.2886,-4.2283,-4.1957,-4.2359,-4.2384,-4.1806,-4.2007,-4.276,-4.3062,-4.3137,-4.3087,-4.3112,-4.3212,-4.3288,-4.3187,-4.3187,-4.3037,-3.8574,-3.8574,-3.8574,-3.8574,-3.8574,-3.8574,-3.8574,-3.8647,-3.9083,-3.9714,-4.0555,-4.1318,-4.2844,-4.4732,-4.4755,-4.4846,-4.5097,-4.4983,-4.4846,-4.4732,-4.5097,-4.4937,-4.4892,-4.5188,-4.4458,-4.3725,-4.2823,-4.1721,-4.1126,-4.0054,-3.9353,-3.9498,-3.9425,-3.9425,-3.9353,-3.9425,-3.9642,-3.9714,-3.9642,-3.9642,-4.0054,-4.1034,-4.2144,-4.2054,-4.1705,-4.2037,-4.2632,-4.3646,-4.4561,-4.57,-4.7136,-4.8101,-4.8657,-4.8983,-4.9267,-4.9525,-4.959,-4.959,-4.959,-4.959,-4.959,-4.959,-4.959,-4.959,-4.959,-4.959,-4.959,-4.959,-4.959,-4.959,-4.959,-4.959,-4.959,-4.959,-4.9289,-4.8912,-4.8435,-4.8109,-4.7807,-4.7255,-4.6778,-4.6602,-4.6326,-4.6301,-4.6301,-4.6175,-4.5924,-4.5673,-4.5598,-4.5146,-4.4744,-4.4468,-4.4192,-4.384,-4.3639,-4.3087,-4.2986,-4.2986,-4.2836,-4.2308,-4.2133,-4.2484,-4.2333,-4.1706,-4.2082,-4.2861,-4.3087,-4.3237,-4.3463,-4.3514,-4.3614,-4.3664,-4.3514,-4.3288,-4.3062]},{"header":{"parameterUnit":"m.s-1","parameterCategory":1,"la1":31.0,"la2":29.5877,"lo1":-88.7671,"lo2":-86.6584,"dy":0.0162,"dx":0.0185,"nx":115,"ny":88,"refTime":"2026-04-17T00:00:00:Z","depth":0,"parameterNumber":3,"parameterNumberName":"V-component_of_WINDS"},"data":[0.0,0.0,0.0,0.0,0.0,0.0,0.0,0.0,0.0,0.0,0.0,0.0,0.0,0.0,0.0,0.0,0.0,0.0,0.0,0.0,0.0,0.0,0.0,0.0,0.0,0.0,0.0,0.0,0.0,0.0,0.0,0.0,0.0,0.0,0.0,0.0,0.0,0.0,0.0,0.0,0.0,0.0,0.0,0.0,0.0,0.0,0.0,0.0,0.0,0.0,0.0,0.0,0.0,0.0,0.0,0.0,0.0,0.0,0.0,0.0,0.0,0.0,0.0,0.0,0.0,0.0,0.0,0.0,0.0,0.0,0.0,0.0,0.0,0.0,0.0,0.0,0.0,0.0,0.0,0.0,0.0,0.0,0.0,0.0,0.0,0.0,0.0,0.0,0.0,0.0,0.0,0.0,0.0,0.0,0.0,0.0,0.0,0.0,0.0,0.0,0.0,0.0,0.0,0.0,0.0,0.0,0.0,0.0,0.0,0.0,0.0,0.0,0.0,0.0,0.0,0.0,0.0,0.0,0.0,0.0,0.0,0.0,0.0,0.0,0.0,0.0,0.0,0.0,0.0,0.0,0.0,0.0,0.0,0.0,0.0,0.0,0.0,0.0,0.0,0.0,0.0,0.0,0.0,0.0,0.0,0.0,0.0,0.0,0.0,0.0,0.0,0.0,0.0,0.0,0.0,0.0,0.0,0.0,0.0,0.0,0.0,0.0,0.0,0.0,0.0,0.0,0.0,0.0,0.0,0.0,0.0,0.0,0.0,0.0,0.0,0.0,0.0,0.0,0.0,0.0,0.0,0.0,0.0,0.0,0.0,0.0,0.0,0.0,0.0,0.0,0.0,0.0,0.0,0.0,0.0,0.0,0.0,0.0,0.0,0.0,0.0,0.0,0.0,0.0,0.0,0.0,0.0,0.0,0.0,0.0,0.0,0.0,0.0,0.0,0.0,0.0,0.0,0.0,0.0,0.0,0.0,0.0,0.0,0.0,0.0,0.0,0.0,0.0,0.0,0.0,0.0,0.0,0.0,0.0,0.0,0.0,0.0,0.0,0.0,0.0,0.0,0.0,0.0,0.0,0.0,0.0,0.0,0.0,0.0,0.0,0.0,0.0,0.0,0.0,0.0,0.0,0.0,0.0,0.0,0.0,0.0,0.0,0.0,0.0,0.0,0.0,0.0,0.0,0.0,0.0,0.0,0.0,0.0,0.0,0.0,0.0,0.0,0.0,0.0,0.0,0.0,0.0,0.0,0.0,0.0,0.0,0.0,0.0,0.0,0.0,0.0,0.0,0.0,0.0,0.0,0.0,0.0,0.0,0.0,0.0,0.0,0.0,0.0,0.0,0.0,0.0,0.0,0.0,0.0,0.0,0.0,0.0,0.0,0.0,0.0,0.0,0.0,0.0,0.0,0.0,0.0,0.0,0.0,0.0,0.0,0.0,0.0,0.0,0.0,0.0,0.0,0.0,0.0,0.0,0.0,0.0,0.0,0.0,0.0,0.0,0.0,0.0,0.0,0.0,0.0,0.0,0.0,0.0,0.0,0.0,0.0,0.0,0.0,0.0,0.0,0.0,0.0,0.0,0.0,0.0,0.0,0.0,0.0,0.0,0.0,0.0,0.0,0.0,0.0,0.0,0.0,0.0,0.0,0.0,0.0,0.0,0.0,0.0,0.0,0.0,0.0,0.0,0.0,0.0,0.0,0.0,0.0,0.0,0.0,0.0,0.0,0.0,0.0,0.0,0.0,0.0,0.0,0.0,0.0,0.0,0.0,0.0,0.0,0.0,0.0,0.0,0.0,0.0,0.0,0.0,0.0,0.0,0.0,0.0,0.0,0.0,0.0,0.0,0.0,0.0,0.0,0.0,0.0,0.0,0.0,0.0,0.0,0.0,0.0,0.0,0.0,0.0,0.0,0.0,0.0,0.0,0.0,0.0,0.0,0.0,0.0,0.0,0.0,0.0,0.0,0.0,0.0,0.0,0.0,0.0,0.0,0.0,0.0,0.0,0.0,0.0,0.0,0.0,0.0,0.0,0.0,0.0,0.0,0.0,0.0,0.0,0.0,0.0,0.0,0.0,0.0,0.0,0.0,0.0,0.0,0.0,0.0,0.0,0.0,0.0,0.0,0.0,0.0,0.0,0.0,0.0,0.0,0.0,0.0,0.0,0.0,0.0,0.0,0.0,0.0,0.0,0.0,0.0,0.0,0.0,0.0,0.0,0.0,0.0,0.0,0.0,0.0,0.0,0.0,0.0,0.0,0.0,0.0,0.0,0.0,0.0,0.0,0.0,0.0,0.0,0.0,0.0,0.0,0.0,0.0,0.0,0.0,0.0,0.0,0.0,0.0,0.0,0.0,0.0,0.0,0.0,0.0,0.0,0.0,0.0,0.0,0.0,0.0,0.0,0.0,0.0,0.0,0.0,0.0,0.0,0.0,0.0,0.0,0.0,0.0,0.0,0.0,0.0,0.0,0.0,0.0,0.0,0.0,0.0,0.0,0.0,0.0,0.0,0.0,0.0,0.0,0.0,0.0,0.0,0.0,0.0,0.0,0.0,0.0,0.0,0.0,0.0,0.0,0.0,0.0,0.0,0.0,0.0,0.0,0.0,0.0,0.0,0.0,0.0,0.0,0.0,0.0,0.0,0.0,0.0,0.0,0.0,0.0,0.0,0.0,0.0,0.0,0.0,0.0,0.0,0.0,0.0,0.0,0.0,0.0,0.0,0.0,0.0,0.0,0.0,0.0,0.0,0.0,0.0,0.0,0.0,0.0,0.0,0.0,0.0,0.0,0.0,0.0,0.0,0.0,0.0,0.0,0.0,0.0,0.0,0.0,0.0,0.0,0.0,0.0,0.0,0.0,0.0,0.0,0.0,0.0,0.0,0.0,0.0,0.0,0.0,0.0,0.0,0.0,0.0,0.0,0.0,0.0,0.0,0.0,0.0,0.0,0.0,0.0,0.0,0.0,0.0,0.0,0.0,0.0,0.0,0.0,0.0,0.0,0.0,0.0,0.0,0.0,0.0,0.0,0.0,0.0,0.0,0.0,0.0,0.0,0.0,0.0,0.0,0.0,0.0,0.0,0.0,0.0,0.0,0.0,0.0,0.0,0.0,0.0,0.0,0.0,0.0,0.0,0.0,0.0,0.0,0.0,0.0,0.0,0.0,0.0,0.0,0.0,0.0,0.0,0.0,0.0,0.0,0.0,0.0,0.0,0.0,0.0,0.0,0.0,0.0,0.0,0.0,0.0,0.0,0.0,0.0,0.0,0.0,0.0,0.0,0.0,0.0,0.0,0.0,0.0,0.0,0.0,0.0,0.0,0.0,0.0,0.0,0.0,0.0,0.0,0.0,0.0,0.0,0.0,0.0,0.0,0.0,0.0,0.0,0.0,0.0,0.0,0.0,0.0,0.0,0.0,0.0,0.0,0.0,0.0,0.0,0.0,0.0,0.0,0.0,0.0,0.0,0.0,0.0,0.0,0.0,0.0,0.0,0.0,0.0,0.0,0.0,0.0,0.0,0.0,0.0,0.0,0.0,0.0,0.0,0.0,0.0,0.0,0.0,0.0,0.0,0.0,0.0,0.0,0.0,0.0,0.0,0.0,0.0,0.0,0.0,0.0,0.0,0.0,0.0,0.0,0.0,0.0,0.0,0.0,0.0,0.0,0.0,0.0,0.0,0.0,0.0,0.0,0.0,0.0,0.0,0.0,0.0,0.0,0.0,0.0,0.0,0.0,0.0,0.0,0.0,0.0,0.0,0.0,0.0,0.0,0.0,0.0,0.0,0.0,0.0,0.0,0.0,0.0,0.0,0.0,0.0,0.0,0.0,0.0,0.0,0.0,0.0,0.0,0.0,0.0,0.0,0.0,0.0,0.0,0.0,0.0,0.0,0.0,0.0,0.0,0.0,0.0,0.0,0.0,0.0,0.0,0.0,0.0,0.0,0.0,0.0,0.0,0.0,0.0,0.0,0.0,0.0,0.0,0.0,0.0,0.0,0.0,0.0,0.0,0.0,0.0,0.0,0.0,0.0,0.0,0.0,0.0,0.0,0.0,0.0,0.0,0.0,0.0,0.0,0.0,0.0,0.0,0.0,0.0,0.0,0.0,0.0,0.0,0.0,0.0,0.0,0.0,0.0,0.0,0.0,0.0,0.0,0.0,0.0,0.0,0.0,0.0,0.0,0.0,0.0,0.0,0.0,0.0,0.0,0.0,0.0,0.0,0.0,0.0,0.0,0.0,0.0,0.0,0.0,0.0,0.0,0.0,0.0,0.2649,0.0,0.0,0.0,0.0,0.0,0.0,0.0,0.0,0.0,0.0,0.0,0.0,0.0,0.0,0.0,0.0,0.0,0.0,0.0,0.0,0.0,0.0,0.0,0.0,0.0,0.0,0.0,0.0,0.0,0.0,0.0,0.0,0.0,0.0,0.0,0.0,0.0,0.0,0.0,0.0,0.0,0.0,0.0,0.0,0.0,0.0,0.0,0.0,0.0,0.0,0.0,0.0,0.0,0.0,0.0,0.0,0.0,0.0,0.0,0.0,0.0,0.0,0.0,0.0,0.0,0.0,0.0,0.0,0.0,0.0,0.0,0.0,0.0,0.0,0.0,0.0,0.0,0.0,0.0,0.0,0.0,0.0,0.0,0.0,0.0,0.0,0.0,0.0,0.0,0.0,0.0,0.0,0.0,0.0,0.0,0.0,0.0,0.0,0.0,0.0,0.0,0.0,0.0,0.0,0.0,0.0,0.0,0.0,0.0,0.0,0.3618,0.3635,0.3635,0.3441,0.3055,0.0,0.0,0.0,0.0,0.0,0.0,0.0,0.0,0.0,0.0,0.0,0.0,0.0,0.0,0.0,0.0,0.0,0.0,0.0,0.0,0.0,0.0,0.0,0.0,0.0,0.0,0.0,0.0,0.0,0.0,0.0,0.0,0.0,0.0,0.0,0.0,0.0,0.0,0.0,0.0,0.0,0.0,0.0,0.0,0.0,0.0,0.0,0.0,0.0,0.0,0.0,0.0,0.0,0.0,0.0,0.0,0.0,0.0,0.0,0.0,0.0,0.0,0.0,0.0,0.0,0.0,0.0,0.0,0.0,0.0,0.0,0.0,0.0,0.0,0.0,0.0,0.0,0.0,0.0,0.0,0.0,0.0,0.0,0.0,0.0,0.0,0.0,0.0,0.0,0.0,0.0,0.0,0.0,0.0,0.0,0.0,0.0,0.0,0.0,0.0,0.0,0.0,0.0,0.0,0.0,0.0,0.0,0.0,0.0,0.0,0.0,0.0,0.4128,0.3925,0.3531,0.0,0.0,0.0,0.0,0.0,0.0,0.0,0.0,0.0,0.0,0.0,0.0,0.0,0.0,0.0,0.0,0.0,0.0,0.0,0.0,0.0,0.0,0.0,0.0,0.0,0.0,0.0,0.0,0.0,0.0,0.0,0.0,0.0,0.0,0.0,0.0,0.0,0.0,0.0,0.0,0.0,0.0,0.0,0.0,0.0,0.0,0.0,0.0,0.0,0.0,0.0,0.0,0.0,0.0,0.0,0.0,0.0,0.0,0.0,0.0,0.0,0.0,0.0,0.0,0.0,0.0,0.0,0.0,0.0,0.0,0.0,0.0,0.0,0.0,0.0,0.0,0.0,0.0,0.0,0.0,0.0,0.0,0.0,0.0,0.0,0.0,0.0,0.0,0.0,0.0,0.0,0.0,0.0,0.0,0.0,0.0,0.0,0.0,0.0,0.0,0.0,0.0,0.0,0.0,0.0,0.0,0.0,0.0,0.0,0.0,0.457,0.4802,0.4581,0.0,0.4093,0.0,0.0,0.0,0.0,0.0,0.0,0.0,0.0,0.0,0.0,0.0,0.0,0.0,0.0,0.0,0.0,0.0,0.0,0.0,0.0,0.0,0.0,0.0,0.0,0.0,0.0,0.0,0.0,0.0,0.0,0.0,0.0,0.0,0.0,0.0,0.0,0.0,0.0,0.0,0.0,0.0,0.0,0.0,0.0,0.0,0.0,0.0,0.0,0.0,0.0,0.0,0.0,0.0,0.0,0.0,0.0,0.0,0.0,0.0,0.0,0.0,0.0,0.0,0.0,0.0,0.0,0.0,0.0,0.0,0.0,0.0,0.0,0.0,0.0,0.0,0.0,0.0,0.0,0.0,0.0,0.0,0.0,0.0,0.0,0.0,0.0,0.0,0.0,0.0,0.0,0.0,0.0,0.0,0.0,0.0,0.0,0.0,0.0,0.0,0.0,0.0,0.0,0.0,0.0,0.0,0.0,0.0,0.0,0.0,0.0,0.5358,0.5672,0.5236,0.488,0.0,0.0,0.0,0.0,0.0,0.0,0.0,0.0,0.0,0.0,0.0,0.0,0.0,0.0,0.0,0.0,0.0,0.0,0.0,0.0,0.0,0.0,0.0,0.0,0.0,0.0,0.0,0.0,0.0,0.0,0.0,0.0,0.0,0.0,0.0,0.0,0.0,0.0,0.0,0.0,0.0,0.0,0.0,0.0,0.0,0.0,0.0,0.0,0.0,0.0,0.0,0.0,0.0,0.0,0.0,0.0,0.0,0.0,0.0,0.0,0.0,0.0,0.0,0.0,0.0,0.0,0.0,0.0,0.0,0.0,0.0,0.0,0.0,0.0,0.0,0.0,0.0,0.0,0.0,0.0,0.0,0.0,0.0,0.0,0.0,0.0,0.0,0.0,0.0,0.0,0.0,0.0,0.0,0.0,0.0,0.0,0.0,0.0,0.0,0.0,0.0,0.0,0.0,0.0,0.0,0.0,0.0,0.0,0.0,0.0,0.5478,0.5708,0.5914,0.5537,0.5174,0.4924,0.0,0.0,0.0,0.0,0.0,0.0,0.0,0.0,0.0,0.0,0.0,0.0,0.0,0.0,0.0,0.0,0.0,0.0,0.0,0.0,0.0,0.0,0.0,0.0,0.0,0.0,0.0,0.0,0.0,0.0,0.0,0.0,0.0,0.0,0.0,0.0,0.0,0.0,0.0,0.0,0.0,0.0,0.0,0.0,0.0,0.0,0.0,0.0,0.0,0.0,0.0,0.0,0.0,0.0,0.0,0.0,0.0,0.0,0.0,0.0,0.0,0.0,0.0,0.0,0.0,0.0,0.0,0.0,0.0,0.0,0.0,0.0,0.0,0.0,0.0,0.0,0.0,0.0,0.0,0.0,0.0,0.0,0.0,0.0,0.0,0.0,0.0,0.0,0.0,0.0,0.0,0.0,0.0,0.0,0.0,0.0,0.0,0.0,0.0,0.0,0.0,0.0,0.0,0.0,0.0,0.0,0.0,0.0,0.5309,0.532,0.5333,0.536,0.5306,0.5128,0.0,0.0,0.0,0.0,0.0,0.0,0.0,0.0,0.0,0.0,0.0,0.0,0.0,0.0,0.0,0.0,0.0,0.0,0.0,0.0,0.0,0.0,0.0,0.0,0.0,0.0,0.0,0.0,0.0,0.0,0.0,0.0,0.0,0.0,0.0,0.0,0.0,0.0,0.0,0.0,0.0,0.0,0.0,0.0,0.0,0.0,0.0,0.0,0.0,0.0,0.0,0.0,0.0,0.0,0.0,0.0,0.0,0.0,0.0,0.0,0.0,0.0,0.0,0.0,0.0,0.0,0.0,0.0,0.0,0.0,0.0,0.0,0.0,0.0,0.0,0.0,0.0,0.0,0.0,0.0,0.0,0.0,0.0,0.0,0.0,0.0,0.0,0.0,0.0,0.0,0.0,0.0,0.0,0.0,0.0,0.0,0.0,0.0,0.0,0.0,0.0,0.0,0.0,0.0,0.0,0.0,0.0,0.0,0.0,0.5322,0.5685,0.5873,0.5873,0.5494,0.513,0.0,0.0,0.0,0.0,0.0,0.0,0.0,0.0,0.0,0.0,0.0,0.0,0.0,0.0,0.0,0.0,0.0,0.0,0.0,0.0,0.0,0.0,0.0,0.0,0.0,0.0,0.0,0.0,0.0,0.0,0.0,0.0,0.0,0.0,0.0,0.0,0.0,0.0,0.0,0.0,0.0,0.0,0.0,0.0,0.0,0.0,0.0,0.0,0.0,0.0,0.0,0.0,0.0,0.0,0.0,0.0,0.0,0.0,0.0,0.0,0.0,0.0,0.0,0.0,0.0,0.0,0.0,0.0,0.0,0.0,0.0,0.0,0.0,0.0,0.0,0.0,0.0,0.0,0.0,0.0,0.0,0.0,0.0,0.0,0.0,0.0,0.0,0.0,0.0,0.0,0.0,0.0,0.0,0.0,0.0,0.0,0.0,0.0,0.0,0.0,0.0,0.0,0.0,0.0,0.0,0.0,0.0,0.0,0.0,0.5702,0.0,0.6324,0.6089,0.5675,0.5221,0.0,0.0,0.0,0.0,0.0,0.0,0.0,0.0,0.0,0.0,0.0,0.0,0.0,0.0,0.0,0.0,0.0,0.0,0.0,0.0,0.0,0.0,0.0,0.0,0.0,0.0,0.0,0.0,0.0,0.0,0.0,0.0,0.0,0.0,0.0,0.0,0.0,0.0,0.0,0.0,0.0,0.0,0.0,0.0,0.0,0.0,0.0,0.0,0.0,0.0,0.0,0.0,0.0,0.0,0.0,0.0,0.0,0.0,0.0,0.0,0.0,0.0,0.0,0.0,0.0,0.0,0.0,0.0,0.0,0.0,0.0,0.0,0.0,0.0,0.0,0.0,0.0,0.0,0.0,0.0,0.0,0.0,0.0,0.0,0.0,0.0,0.0,0.0,0.0,0.0,0.0,0.0,0.0,0.0,0.0,0.0,0.0,0.0,0.0,0.0,0.0,0.0,0.0,0.0,0.0,0.0,0.0,0.0,0.638,0.649,0.6753,0.6607,0.5934,0.5773,0.5408,0.0,0.0,0.0,0.0,0.0,0.0,0.0,0.0,0.0,0.0,0.0,0.0,0.0,0.0,0.0,0.0,0.0,0.0,0.0,0.0,0.0,0.0,0.0,0.0,0.0,0.0,0.0,0.0,0.0,0.0,0.0,0.0,0.0,0.0,0.0,0.0,0.0,0.0,0.0,0.0,0.0,0.0,0.0,0.0,0.0,0.0,0.0,0.0,0.0,0.0,0.0,0.0,0.0,0.0,0.0,0.0,0.0,0.0,0.0,0.0,0.0,0.0,0.0,0.0,0.0,0.0,0.0,0.0,0.0,0.0,0.0,0.0,0.0,0.0,0.0,0.0,0.0,0.0,0.0,0.0,0.0,0.0,0.0,0.0,0.0,0.0,0.0,0.0,0.0,0.0,0.0,0.0,0.0,0.0,0.0,0.0,0.0,0.0,0.0,0.0,0.0,0.0,0.0,0.0,0.0,0.0,0.0,0.0,0.0,0.6852,0.7186,0.7081,0.6475,0.5793,0.5347,0.0,0.0,0.0,0.0,0.0,0.0,0.0,0.0,0.0,0.0,0.0,0.0,0.0,0.0,0.0,0.0,0.0,0.0,0.0,0.0,0.0,0.0,0.0,0.0,0.0,0.0,0.0,0.0,0.0,0.0,0.0,0.0,0.0,0.0,0.0,0.0,0.0,0.0,0.0,0.0,0.0,0.0,0.0,0.0,0.0,0.0,0.0,0.0,0.0,0.0,0.0,0.0,0.0,0.0,0.0,0.0,0.0,0.0,0.0,0.0,0.0,0.0,0.0,0.0,0.0,0.0,0.0,0.0,0.0,0.0,0.0,0.0,0.0,0.0,0.0,0.0,0.0,0.0,0.0,0.0,0.0,0.0,0.0,0.0,0.0,0.0,0.0,0.0,0.0,0.0,0.0,0.0,0.0,0.0,0.0,0.0,0.0,0.0,0.0,0.0,0.0,0.0,0.0,0.0,0.0,0.0,0.0,0.0,0.0,0.8233,0.8333,0.7977,0.7131,0.6338,0.5772,0.5467,0.0,0.0,0.0,0.0,0.0,0.0,0.0,0.0,0.0,0.0,0.0,0.0,0.0,0.0,0.0,0.0,0.0,0.0,0.0,0.0,0.0,0.0,0.0,0.0,0.0,0.0,0.0,0.0,0.0,0.0,0.0,0.0,0.0,0.0,0.0,0.0,0.0,0.0,0.0,0.0,0.0,0.0,0.0,0.0,0.0,0.0,0.0,0.0,0.0,0.0,0.0,0.0,0.0,0.0,0.0,0.0,0.0,0.0,0.0,0.0,0.0,0.0,0.0,0.0,0.0,0.0,0.0,0.0,0.0,0.0,0.0,0.0,0.0,0.0,0.0,0.0,0.0,0.0,0.0,0.0,0.0,0.0,0.0,0.0,0.0,0.0,0.0,0.0,0.0,0.0,0.0,0.0,0.0,0.0,0.0,0.0,0.0,0.0,0.0,0.0,0.0,0.0,0.0,0.0,0.0,0.0,0.0,0.0,1.0399,1.0106,0.9306,0.794,0.7328,0.664,0.0,0.0,0.0,0.0,0.0,0.0,0.0,0.0,0.0,0.0,0.0,0.0,0.0,0.0,0.0,0.0,0.0,0.0,0.0,0.0,0.0,0.0,0.0,0.0,0.0,0.0,0.0,0.0,0.0,0.0,0.0,0.0,0.0,0.0,0.0,0.0,0.0,0.0,0.0,0.0,0.0,0.0,0.0,0.0,0.0,0.0,0.0,0.0,0.0,0.0,0.0,0.0,0.0,0.0,0.0,0.0,0.0,0.0,0.0,0.0,0.0,0.0,0.0,0.0,0.0,0.0,0.0,0.0,0.0,0.0,0.0,0.0,0.0,0.0,0.0,0.0,0.0,0.0,0.0,0.0,0.0,0.0,0.0,0.0,0.0,0.0,0.0,0.0,0.0,0.0,0.0,0.0,0.0,0.0,0.0,0.0,0.0,0.0,0.0,0.0,0.0,0.0,0.0,0.0,0.0,0.0,0.0,0.0,0.0,1.1679,1.2445,1.1677,0.9227,0.7982,0.7062,0.0,0.0,0.0,0.0,0.0,0.0,0.0,0.0,0.0,0.0,0.0,0.0,0.0,0.0,0.0,0.0,0.0,0.0,0.0,0.0,0.0,0.0,0.0,0.0,0.0,0.0,0.0,0.0,0.0,0.0,0.0,0.0,0.0,0.0,0.0,0.0,0.0,0.0,0.0,0.0,0.0,0.0,0.0,0.0,0.0,0.0,0.0,0.0,0.0,0.0,0.0,0.0,0.0,0.0,0.0,0.0,0.0,0.0,0.0,0.0,0.0,0.0,0.0,0.0,0.0,0.0,0.0,0.0,0.0,0.0,0.0,0.0,0.0,0.0,0.0,0.0,0.0,0.0,0.0,0.0,0.0,0.0,0.0,0.0,0.0,0.0,0.0,0.0,0.0,0.0,0.0,0.0,0.0,0.0,0.0,0.0,0.0,0.0,0.0,0.0,0.0,0.0,0.0,0.0,0.0,0.0,0.0,0.0,1.2371,1.3371,1.4515,1.4067,1.2019,0.9783,0.8213,0.0,0.0,0.0,0.0,0.0,0.0,0.0,0.0,0.0,0.0,0.0,0.0,0.0,0.0,0.0,0.0,0.0,0.0,0.0,0.0,0.0,0.0,0.0,0.0,0.0,0.0,0.0,0.0,0.0,0.0,0.0,0.0,0.0,0.0,0.0,0.0,0.0,0.0,0.0,0.0,0.0,0.0,0.0,0.0,0.0,0.0,0.0,0.0,0.0,0.0,0.0,0.0,0.0,0.0,0.0,0.0,0.0,0.0,0.0,0.0,0.0,0.0,0.0,0.0,0.0,0.0,0.0,0.0,0.0,0.0,0.0,0.0,0.0,0.0,0.0,0.0,0.0,0.0,0.0,0.0,0.0,0.0,0.0,0.0,0.0,0.0,0.0,0.0,0.0,0.0,0.0,0.0,0.0,0.0,0.0,0.0,0.0,0.0,0.0,0.0,0.0,0.0,0.0,0.0,0.0,0.0,0.0,0.0,1.3849,1.5239,1.6296,1.643,1.542,1.2217,0.9873,0.0,0.0,0.0,0.0,0.0,0.0,0.0,0.0,0.0,0.0,0.0,0.0,0.0,0.0,0.0,0.0,0.0,0.0,0.0,0.0,0.0,0.0,0.0,0.0,0.0,0.0,0.0,0.0,0.0,0.0,0.0,0.0,0.0,0.0,0.0,0.0,0.0,0.0,0.0,0.0,0.0,0.0,0.0,0.0,0.0,0.0,0.0,0.0,0.0,0.0,0.0,0.0,0.0,0.0,0.0,0.0,0.0,0.0,0.0,0.0,0.0,0.0,0.0,0.0,0.0,0.0,0.0,0.0,0.0,0.0,0.0,0.0,0.0,0.0,0.0,0.0,0.0,0.0,0.0,0.0,0.0,0.0,0.0,0.0,0.0,0.0,0.0,0.0,0.0,0.0,0.0,0.0,0.0,0.0,0.0,0.0,0.0,0.0,0.0,0.0,0.0,0.0,0.0,0.0,0.0,0.0,0.0,0.0,1.5669,1.6939,1.8004,1.8119,1.7199,1.396,1.1715,0.0,0.0,0.0,0.0,0.0,0.0,0.0,0.0,0.0,0.0,0.0,0.0,0.0,0.0,0.0,0.0,0.0,0.0,0.0,0.0,0.0,0.0,0.0,0.0,0.0,0.0,0.0,0.0,0.0,0.0,0.0,0.0,0.0,0.0,0.0,0.0,0.0,0.0,0.0,0.0,0.0,0.0,0.0,0.0,0.0,0.0,0.0,0.0,0.1796,0.0,0.0,0.0,0.0,0.0,0.0,0.0,0.0,0.0,0.0,0.0,0.0,0.0,0.0,0.0,0.0,0.0,0.0,0.0,0.0,0.0,0.0,0.0,0.0,0.0,0.0,0.0,0.0,0.0,0.0,0.0,0.0,0.0,0.0,0.0,0.0,0.0,0.0,0.0,0.0,0.0,0.0,0.0,0.0,0.0,0.0,0.0,0.0,0.0,0.0,0.0,0.0,0.0,0.0,0.0,0.0,0.0,0.0,0.0,1.7172,1.8598,1.9583,1.9755,1.903,1.6779,1.4424,0.0,0.0,0.0,0.0,0.0,0.0,0.0,0.0,0.0,0.0,0.0,0.0,0.0,0.0,0.0,0.0,0.0,0.0,0.0,0.0,0.0,0.0,0.0,0.0,0.0,0.0,0.0,0.0,0.0,0.0,0.0,0.0,0.0,0.0,0.0,0.0,0.0,0.0,0.0,0.0,0.0,0.0,0.0,0.0,0.0,0.0,0.0,0.0,0.0,0.0,0.0,0.0,0.0,0.0,0.0,0.0,0.0,0.0,0.0,0.0,0.0,0.0,0.0,0.0,0.0,0.0,0.0,0.0,0.0,0.0,0.0,0.0,0.0,0.0,0.0,0.0,0.0,0.0,0.0,0.0,0.0,0.0,0.0,0.0,0.0,0.0,0.0,0.0,0.0,0.0,0.0,0.0,0.0,0.0,0.0,0.0,0.0,0.0,0.0,0.0,0.0,0.0,0.0,0.0,0.0,0.0,0.0,1.6719,1.8477,2.0021,2.0995,2.123,2.0625,1.9316,1.6919,1.335,0.0,0.0,0.0,0.0,0.0,0.0,0.0,0.0,0.0,0.0,0.0,0.0,0.0,0.0,0.0,0.0,0.0,0.0,0.0,0.0,0.0,0.0,0.0,0.0,0.0,0.0,0.0,0.0,0.0,0.0,0.0,0.0,0.0,0.0,0.0,0.0,0.0,0.0,0.2175,0.3065,0.0,0.0,0.0,0.0,0.0,0.0,0.0,0.0,0.2286,0.0,0.0,0.0,0.0,0.0,0.0,0.0,0.0,0.0,0.0,0.0,0.0,0.0,0.0,0.0,0.0,0.0,0.0,0.0,0.0,0.0,0.0,0.0,0.0,0.0,0.0,0.0,0.0,0.0,0.0,0.0,0.0,0.0,0.0,0.0,0.0,0.0,0.0,0.0,0.0,0.0,0.0,0.0,0.0,0.0,0.0,0.0,0.0,0.0,0.0,0.0,0.0,0.0,0.0,0.0,0.0,1.5245,1.7715,1.9629,2.0956,2.2227,2.2171,2.0644,1.9316,1.7304,1.4617,0.0,0.0,0.0,0.0,0.0,0.0,0.0,0.0,0.0,0.0,0.0,0.0,0.0,0.0,0.0,0.0,0.0,0.0,0.0,0.0,0.0,0.0,0.0,0.0,0.0,0.0,0.0,0.0,0.0,0.0,0.0,0.0,0.0,0.0,0.0,0.0,0.0,0.0,0.0,0.3904,0.448,0.0,0.0,0.0,0.0,0.0,0.0,0.0,0.0,0.2605,0.0,0.0,0.0,0.0,0.0,0.0,0.0,0.0,0.0,0.0,0.0,0.0,0.0,0.0,0.0,0.0,0.0,0.0,0.0,0.0,0.0,0.0,0.0,0.0,0.0,0.0,0.0,0.0,0.0,0.0,0.0,0.0,0.0,0.0,0.0,0.0,0.0,0.0,0.0,0.0,0.0,0.0,0.0,0.0,0.0,0.0,0.0,0.0,0.0,0.0,0.0,0.0,0.0,0.0,0.0,1.5985,1.8418,2.0254,2.1543,2.2832,2.2601,2.0664,1.928,1.7422,0.0,0.0,0.0,0.0,0.0,0.0,0.0,0.0,0.0,0.0,0.0,0.0,0.0,0.0,0.0,0.0,0.0,0.0,0.0,0.0,0.0,0.0,0.0,0.0,0.0,0.0,0.0,0.0,0.0,0.0,0.0,0.0,0.0,0.0,0.0,0.0,0.0,0.0,0.0,0.0,0.4347,0.4943,0.4557,0.0,0.0,0.0,0.0,0.0,0.0,0.3494,0.3292,0.0,0.0,0.0,0.0,0.0,0.0,0.0,0.0,0.0,0.0,0.0,0.0,0.0,0.0,0.0,0.0,0.0,0.0,0.0,0.0,0.0,0.0,0.0,0.0,0.0,0.0,0.0,0.0,0.0,0.0,0.0,0.0,0.0,0.0,0.0,0.0,0.0,0.0,0.0,0.0,0.0,0.0,0.0,0.0,0.0,0.0,0.0,0.0,0.0,0.0,0.0,0.0,0.0,0.0,0.0,1.6765,1.9062,2.0781,2.1992,2.3262,2.2832,2.0664,1.9238,1.7272,0.0,0.0,0.0,0.0,0.0,0.0,0.0,0.0,0.0,0.0,0.0,0.0,0.0,0.0,0.0,0.0,0.0,0.0,0.0,0.0,0.0,0.0,0.0,0.0,0.0,0.0,0.0,0.0,0.0,0.0,0.0,0.0,0.0,0.0,0.0,0.0,0.0,0.0,0.0,0.0,0.0,0.5415,0.5135,0.5303,0.0,0.0,0.0,0.0,0.4315,0.4347,0.0,0.0,0.0,0.0,0.0,0.0,0.0,0.0,0.0,0.0,0.0,0.0,0.0,0.0,0.0,0.0,0.0,0.0,0.0,0.0,0.0,0.0,0.0,0.0,0.0,0.0,0.0,0.0,0.0,0.0,0.0,0.0,0.0,0.0,0.0,0.0,0.0,0.0,0.0,0.0,0.0,0.0,0.0,0.0,0.0,0.0,0.0,0.0,0.0,0.0,0.0,0.0,0.0,0.0,0.0,0.0,1.7246,1.9805,2.1523,2.2441,2.3691,2.3144,2.0664,1.8945,1.6843,0.0,0.0,0.0,0.0,0.0,0.0,0.0,0.0,0.0,0.0,0.0,0.0,0.0,0.0,0.0,0.0,0.0,0.0,0.0,0.0,0.0,0.0,0.0,0.0,0.0,0.0,0.0,0.0,0.0,0.0,0.0,0.0,0.0,0.0,0.0,0.0,0.0,0.0,0.0,0.0,0.0,0.6282,0.6379,0.6496,0.6463,0.0,0.0,0.554,0.5449,0.551,0.0,0.0,0.0,0.0,0.0,0.0,0.0,0.0,0.0,0.0,0.0,0.0,0.0,0.0,0.0,0.0,0.0,0.0,0.0,0.0,0.0,0.0,0.0,0.0,0.0,0.0,0.0,0.0,0.0,0.0,0.0,0.0,0.0,0.0,0.0,0.0,0.0,0.0,0.0,0.0,0.0,0.0,0.0,0.0,0.0,0.0,0.0,0.0,0.0,0.0,0.0,0.0,0.0,0.0,0.0,1.4297,1.7676,2.0293,2.1914,2.2519,2.3769,2.3184,2.0664,1.8906,1.6914,0.0,0.0,0.0,0.0,0.0,0.0,0.0,0.0,0.0,0.0,0.0,0.0,0.0,0.0,0.0,0.0,0.0,0.0,0.0,0.0,0.0,0.0,0.0,0.0,0.0,0.0,0.0,0.0,0.0,0.0,0.0,0.0,0.0,0.0,0.0,0.0,0.0,0.0,0.0,0.0,0.0,0.0,0.7092,0.737,0.0,0.0,0.0,0.6833,0.6706,0.0,0.0,0.0,0.0,0.0,0.0,0.0,0.0,0.0,0.0,0.0,0.0,0.0,0.0,0.0,0.0,0.0,0.0,0.0,0.0,0.0,0.0,0.0,0.0,0.0,0.0,0.0,0.0,0.0,0.0,0.0,0.0,0.0,0.0,0.0,0.0,0.0,0.0,0.0,0.0,0.0,0.0,0.0,0.0,0.0,0.0,0.0,0.0,0.0,0.0,0.0,0.0,0.0,0.0,0.0,0.0,0.0,1.8432,2.1035,2.2581,2.3018,2.4167,2.3533,2.0995,1.9326,0.0,0.0,0.0,0.0,0.0,0.0,0.0,0.0,0.0,0.0,0.0,0.0,0.0,0.0,0.0,0.0,0.0,0.0,0.0,0.0,0.0,0.0,0.0,0.0,0.0,0.0,0.0,0.3752,0.0,0.0,0.0,0.0,0.0,0.0,0.0,0.0,0.0,0.0,0.0,0.0,0.0,0.0,0.7635,0.7805,0.8141,0.8267,0.0,0.0,0.7933,0.7841,0.7832,0.7573,0.0,0.0,0.0,0.0,0.0,0.0,0.0,0.0,0.0,0.0,0.0,0.0,0.0,0.0,0.0,0.0,0.0,0.0,0.0,0.0,0.0,0.0,0.0,0.0,0.0,0.0,0.0,0.0,0.0,0.0,0.0,0.0,0.0,0.0,0.0,0.0,0.0,0.0,0.0,0.0,0.0,0.0,0.0,0.0,0.0,0.0,0.0,0.0,0.0,0.0,0.0,0.0,0.0,0.0,0.0,1.9631,2.2379,2.397,2.4382,2.5289,2.4485,2.1803,2.0416,1.8411,0.0,0.0,0.0,0.0,0.0,0.0,0.0,0.0,0.0,0.0,0.0,0.0,0.0,0.0,0.0,0.0,0.0,0.0,0.0,0.0,0.0,0.0,0.0,0.0,0.0,0.0,0.0,0.0,0.0,0.0,0.0,0.0,0.0,0.0,0.0,0.0,0.0,0.0,0.0,0.0,0.0,0.8419,0.8659,0.8966,0.916,0.0,0.0,0.8656,0.8697,0.8454,0.7958,0.7098,0.0,0.0,0.0,0.0,0.0,0.0,0.0,0.0,0.0,0.0,0.0,0.0,0.0,0.0,0.0,0.0,0.0,0.0,0.0,0.0,0.0,0.0,0.0,0.0,0.0,0.0,0.0,0.0,0.0,0.0,0.0,0.0,0.0,0.0,0.0,0.0,0.0,0.0,0.0,0.0,0.0,0.0,0.0,0.0,0.0,0.0,0.0,0.0,0.0,0.0,0.0,0.0,0.0,1.7665,2.1107,2.4338,2.5886,2.5779,2.6672,2.5911,2.3346,2.1889,1.9966,0.0,0.0,0.0,0.0,0.0,0.0,0.0,0.0,0.0,0.0,0.0,0.0,0.0,0.0,0.0,0.0,0.0,0.0,0.0,0.0,0.0,0.0,0.0,0.0,0.0,0.0,0.0,0.0,0.4339,0.4161,0.3713,0.0,0.0,0.0,0.0,0.0,0.0,0.0,0.0,0.0,0.0,0.9013,0.9302,0.9909,0.0,0.0,0.9669,0.9509,0.9367,0.9092,0.8565,0.776,0.655,0.0,0.0,0.0,0.0,0.0,0.0,0.0,0.0,0.0,0.0,0.0,0.0,0.0,0.0,0.0,0.0,0.0,0.0,0.0,0.0,0.0,0.0,0.0,0.0,0.0,0.0,0.0,0.0,0.0,0.0,0.0,0.0,0.0,0.0,0.0,0.0,0.0,0.0,0.0,0.0,0.0,0.0,0.0,0.0,0.0,0.0,0.0,0.0,0.0,0.0,0.0,0.0,1.9102,2.2355,2.591,2.7436,2.6917,2.783,2.7148,2.4718,2.3458,2.1593,0.0,0.0,0.0,0.0,0.0,0.0,0.0,0.0,0.0,0.0,0.0,0.0,0.0,0.0,0.0,0.0,0.0,0.0,0.0,0.0,0.0,0.0,0.0,0.0,0.0,0.0,0.0,0.0,0.4654,0.4303,0.413,0.0,0.0,0.0,0.0,0.0,0.0,0.0,0.0,0.0,0.0,0.9446,0.9659,1.0434,1.0822,1.0314,1.0247,1.0127,0.9769,0.9432,0.8936,0.8127,0.0,0.0,0.0,0.0,0.0,0.0,0.0,0.0,0.0,0.0,0.0,0.0,0.0,0.0,0.0,0.0,0.0,0.0,0.0,0.0,0.0,0.0,0.0,0.0,0.0,0.0,0.0,0.0,0.0,0.0,1.3248,0.0,0.0,0.0,0.0,0.0,0.0,0.0,0.0,0.0,0.0,0.0,0.0,0.0,0.0,0.0,0.0,0.0,0.0,0.0,0.0,0.0,0.0,2.0163,2.3203,2.6838,2.8392,2.7857,2.8845,2.8163,2.5698,2.5038,2.3293,2.0234,0.0,0.0,0.0,0.0,0.0,0.0,0.0,0.0,0.0,0.0,0.0,0.0,0.0,0.0,0.0,0.0,0.0,0.0,0.0,0.0,0.0,0.0,0.0,0.0,0.0,0.0,0.5768,0.4905,0.4396,0.0,0.0,0.0,0.0,0.0,0.0,0.0,0.0,0.0,0.0,0.883,0.9702,0.9715,1.0434,1.0921,1.0626,1.0573,1.0385,0.9766,0.9432,0.8909,0.0,0.0,0.0,0.0,0.0,0.0,0.0,0.0,0.0,0.0,0.0,0.0,0.0,0.0,0.0,0.0,0.0,0.0,0.0,0.0,0.0,0.0,0.0,0.0,0.0,0.0,0.0,1.7149,1.6722,0.0,0.0,0.0,0.0,0.0,0.0,0.0,0.0,0.0,0.0,0.0,2.3653,2.3653,0.0,0.0,0.0,0.0,0.0,0.0,0.0,0.0,0.0,0.0,0.0,0.0,2.1592,2.4779,2.8579,3.0188,2.9696,3.036,2.9622,2.7348,2.6733,2.4624,2.068,0.0,0.0,0.0,0.0,0.0,0.0,0.0,0.0,0.0,0.0,0.0,0.0,0.0,0.0,0.0,0.0,0.0,0.0,0.0,0.0,0.0,0.0,0.0,0.0,0.0,0.6515,0.0,0.0,0.0,0.0,0.0,0.0,0.0,0.0,0.0,0.0,0.0,0.7318,0.7976,0.8802,0.9431,0.9659,1.0434,1.0921,0.0,0.0,0.0,0.0,0.0,0.0,0.0,0.0,0.0,0.0,0.0,0.0,0.0,0.0,0.7447,0.7167,0.6499,0.5859,0.5563,0.0,0.0,0.0,0.0,0.0,0.0,0.0,0.0,0.0,0.0,0.0,0.0,0.0,0.0,2.0236,0.0,1.8329,0.0,0.0,0.0,0.0,0.0,0.0,0.0,0.0,2.5711,2.7082,2.7595,2.7595,2.762,0.0,2.7268,2.5435,0.0,0.0,0.0,0.0,0.0,0.0,0.0,0.0,2.2803,2.5887,2.9528,3.1135,3.0658,3.1135,3.0432,2.8448,2.7293,2.5159,2.1948,1.9535,1.7222,0.0,0.0,0.0,0.0,0.0,0.0,0.0,0.0,0.0,0.0,0.0,0.0,0.0,0.0,0.0,0.0,0.0,0.0,0.0,0.0,0.0,0.0,0.0,0.7205,0.0,0.0,0.0,0.0,0.0,0.0,0.0,0.0,0.0,0.7371,0.7629,0.8062,0.8666,0.9193,0.9617,0.9983,0.0,0.0,0.0,0.0,0.0,0.0,0.0,0.9506,0.9424,0.9296,0.9205,0.9178,0.8993,0.8932,0.9309,0.0,0.0,0.8899,0.8145,0.7534,0.7238,0.6685,0.6169,0.5859,0.598,0.6046,0.0,0.0,0.0,0.0,0.0,0.0,0.0,0.0,2.4073,2.3396,0.0,2.1039,0.0,0.0,0.0,0.0,0.0,2.1493,0.0,0.0,2.9377,3.0959,3.1411,3.1411,3.1436,3.1461,3.1452,3.0809,2.9453,2.4356,0.0,0.0,0.0,0.0,0.0,0.0,2.3728,2.6549,2.9729,3.1135,3.0643,3.111,3.0583,2.8938,2.6866,2.5259,2.4079,2.1418,1.8932,1.6701,1.4775,0.0,0.0,0.0,0.0,0.0,0.0,0.0,0.0,0.0,0.0,0.0,0.0,0.0,0.0,0.0,0.0,0.0,0.0,0.0,0.0,0.8145,0.0,0.0,0.0,0.0,0.0,0.0,0.0,0.0,0.0,0.0,0.8741,0.8882,0.9176,0.9566,0.0,0.0,0.0,0.0,1.1913,1.1926,1.2144,1.2118,1.153,1.1196,1.085,1.0437,0.0,0.0,1.0623,1.0585,1.056,1.0514,1.0723,1.085,1.0715,0.9927,0.9262,0.9015,0.8245,0.7545,0.7364,0.7231,0.7206,3.2767,0.0,0.0,0.0,0.0,2.8298,2.9302,2.9704,2.9227,2.8599,2.7745,2.5569,0.0,0.0,0.0,0.0,0.0,0.0,2.7143,2.9478,3.1461,3.2667,3.3169,3.3169,3.3194,3.3194,3.3194,3.2416,3.0884,2.8976,2.6163,2.2573,0.0,0.0,0.0,0.0,2.4883,2.7595,3.0131,3.1311,3.116,3.0959,3.0432,2.9553,2.8524,2.7469,2.6364,2.4054,2.1568,1.8982,1.6371,0.0,0.0,0.0,0.0,0.0,0.0,0.0,0.0,0.0,0.0,0.0,0.0,0.0,0.0,0.0,0.0,0.0,0.0,0.0,0.8558,0.875,0.867,0.0,0.0,0.0,0.0,0.0,0.0,0.0,0.0,0.0,1.1046,1.0288,0.9804,0.0,0.0,1.006,1.0801,1.1471,1.2047,1.2476,0.0,0.0,0.0,1.181,1.1663,1.1713,1.2157,1.253,1.27,1.2544,1.2399,1.2383,1.2459,1.2508,1.2361,1.1299,1.0354,1.006,0.9516,0.8906,0.8438,0.849,0.8578,3.8266,3.3947,3.2641,3.1687,3.117,3.2717,3.3596,3.3972,3.3545,3.2867,3.1938,2.9955,2.8348,2.7007,2.5711,0.0,0.0,0.0,3.0432,3.2574,3.3822,3.4675,3.5177,3.4977,3.4876,3.4876,3.465,3.4022,3.3018,3.229,3.0357,2.7193,0.0,0.0,2.3125,2.4356,2.6239,2.8725,3.0507,3.1386,3.1386,3.0683,3.0231,3.0105,2.9126,2.8097,2.7002,2.4833,2.2372,1.961,1.7387,1.5002,0.0,0.0,0.0,0.0,0.0,0.0,0.0,0.0,0.0,0.0,0.0,0.5881,0.6027,0.0,0.0,0.0,0.8145,0.8928,0.9491,0.9824,0.0,0.0,0.0,0.0,0.0,0.0,0.0,1.1095,1.1752,1.2344,1.288,1.2052,1.1351,1.1062,1.0712,1.0701,1.1379,0.0,1.2471,1.2993,1.3226,1.3214,1.2854,1.2585,1.2505,1.2786,1.3094,1.348,1.372,1.3533,1.3347,1.336,1.3186,1.3066,1.3186,1.2204,1.1339,1.107,1.051,0.9897,0.9369,0.9372,0.9388,4.2258,4.0576,3.7439,3.6009,3.5834,3.6433,3.731,3.8115,3.7159,3.6383,3.5708,3.4173,3.2566,3.0909,2.9377,0.0,3.1738,3.229,3.3602,3.5633,3.6232,3.6807,3.7211,3.6734,3.648,3.638,3.5805,3.5458,3.5257,3.4349,3.3345,3.2164,2.7193,2.5084,2.5912,2.6499,2.7806,2.9905,3.0884,3.1361,3.1311,3.0382,3.008,3.0468,2.8976,2.757,2.6424,2.4356,2.1892,1.9208,1.7934,1.6005,1.3324,0.0,0.0,0.0,0.0,0.0,0.0,0.0,0.0,0.0,0.0,0.0,0.0,0.0,0.0,0.0,0.9706,0.0,1.0547,1.1291,0.0,0.0,0.0,1.0668,1.1093,1.1138,1.1659,1.2966,0.0,0.0,1.4298,0.0,1.3444,1.2612,1.2042,1.1858,1.2256,1.2586,1.3,1.3457,1.3588,1.3626,1.3573,1.3414,1.3347,1.3586,1.3653,1.3774,1.4001,1.3908,1.3693,1.364,1.3227,1.2971,1.3173,1.2679,1.2198,1.185,1.1182,1.0541,1.0177,0.9923,0.982,4.4418,4.3539,4.2333,4.0375,3.8191,3.912,3.9672,3.9873,3.9647,3.922,3.8617,3.7387,3.5931,3.4304,3.3928,3.4028,3.453,3.5152,3.5906,3.681,3.7362,3.7688,3.7814,3.7663,3.7161,3.6405,3.5805,3.5056,3.4299,3.4022,3.3545,3.2817,3.111,2.9779,2.885,2.8925,2.9692,3.0984,3.126,3.121,3.0809,3.0557,3.0281,2.998,2.8775,2.7369,2.5837,2.4506,2.2498,1.9761,1.8556,1.7057,1.5157,1.3801,0.0,0.0,0.0,0.0,0.0,0.0,0.0,0.0,0.0,0.8953,0.9422,0.0,1.0128,0.0,1.1119,1.2008,1.2695,1.3203,0.0,0.0,1.2637,1.2557,1.3041,1.277,1.2833,1.3688,1.446,1.4954,1.5013,1.5238,1.5302,1.4975,1.3616,1.2774,1.306,1.3041,1.3201,1.3726,1.394,1.3975,1.3988,1.3935,1.3961,1.4269,1.4135,1.4001,1.4068,1.4215,1.4199,1.4041,1.3881,1.3654,1.3253,1.2719,1.2131,1.1663,1.1356,1.1062,1.0568,1.0425,1.0439,4.5522,4.497,4.4669,4.3212,4.1103,4.1455,4.148,4.1254,4.1254,4.0927,4.0375,3.9772,3.8994,3.8066,3.7613,3.7538,3.7689,3.7588,3.7789,3.8291,3.8366,3.8391,3.8391,3.8115,3.7437,3.6405,3.5579,3.4705,3.3947,3.3897,3.3746,3.3445,3.3621,3.2993,3.1637,3.0884,3.0909,3.1738,3.1763,3.1612,3.1336,3.0859,3.0442,3.0131,2.8574,2.6967,2.531,2.3954,2.2171,1.9911,1.9008,1.7928,1.6522,1.5593,1.4613,0.0,0.0,0.0,0.0,0.0,0.0,0.0,0.0,0.0,0.0,0.0,1.2425,1.282,1.3501,1.4297,1.5156,1.5751,1.5966,1.5536,1.5196,1.5003,1.509,1.4475,1.4349,1.5119,1.5517,1.5751,1.5845,1.6095,1.6306,1.6179,1.5294,1.446,1.3983,1.3768,1.3787,1.4206,1.4379,1.4545,1.4733,1.462,1.4451,1.4456,1.4282,1.4082,1.4082,1.4095,1.4026,1.3908,1.3574,1.32,1.2839,1.2318,1.177,1.1349,1.1202,1.1062,1.068,1.0693,1.0854,4.6024,4.5598,4.5522,4.492,4.3966,4.3438,4.2891,4.2313,4.2313,4.1982,4.1501,4.1501,4.1426,4.1225,4.0249,3.9973,4.0224,3.922,3.9019,3.9446,3.9069,3.8919,3.8843,3.8417,3.7613,3.6483,3.5353,3.45,3.3922,3.3897,3.3947,3.4048,3.5006,3.5006,3.4073,3.2516,3.1888,3.219,3.229,3.2315,3.2315,3.1295,3.0758,3.0532,2.8524,2.659,2.485,2.3276,2.1644,2.0012,1.9384,1.8632,1.7674,1.7549,1.6845,0.0,1.5777,0.0,0.0,0.0,0.0,0.0,0.0,0.0,0.0,1.4561,1.4985,1.596,1.6327,1.6872,1.7782,1.8496,1.8637,1.7969,1.7812,1.7598,1.7058,1.6258,1.6016,1.6707,1.6465,1.6418,1.6707,1.6824,1.6863,1.687,1.6805,1.6279,1.5186,1.4664,1.4565,1.482,1.5024,1.5391,1.5632,1.5371,1.4886,1.4569,1.4229,1.4041,1.4015,1.3746,1.3533,1.3373,1.2866,1.2331,1.2171,1.1682,1.1316,1.1062,1.1022,1.0915,1.0693,1.0782,1.1009,4.625,4.6125,4.5673,4.5372,4.5121,4.4543,4.374,4.2891,4.2811,4.276,4.266,4.266,4.2183,4.125,4.0651,3.9923,3.917,3.8492,3.8216,3.8341,3.8693,3.8919,3.8944,3.922,3.8567,3.7036,3.5859,3.4831,3.3897,3.3897,3.4123,3.453,3.5182,3.5382,3.5132,0.0,0.0,0.0,3.2667,3.2918,3.2893,3.2265,3.1486,3.0568,2.8875,0.0,2.4908,2.3597,2.2192,2.0641,1.9962,0.0,0.0,0.0,0.0,0.0,0.0,0.0,0.0,0.0,0.0,0.0,2.2151,2.0878,1.8696,1.7928,1.7953,1.8817,1.8787,1.9143,2.0143,2.0507,2.0644,2.0489,2.0176,1.9705,1.8887,1.8047,1.7461,1.7266,1.7187,1.72,1.7246,1.7559,1.7754,1.7681,1.774,1.745,1.6727,1.5842,1.5437,1.5771,1.6244,1.6485,1.6563,1.6024,1.5345,1.4629,1.4026,1.3788,1.3734,1.3507,1.3093,1.2705,1.2412,1.2051,1.141,1.1142,1.1076,1.1009,1.1009,1.0935,1.0667,1.0827,1.1162,4.6552,0.0,4.5999,4.5723,0.0,4.5171,4.4568,4.3765,4.3489,4.3212,4.2986,4.2986,4.2384,4.1225,4.0199,3.9094,3.8039,3.6885,3.6684,3.7211,3.7789,3.8391,3.8944,3.9446,3.8969,3.7588,3.6483,3.5378,3.4349,3.4324,3.4449,3.4726,3.5554,3.5805,3.5483,3.4726,3.3897,3.3068,3.3345,3.347,3.347,3.2918,3.2114,3.1009,0.0,0.0,0.0,0.0,0.0,0.0,0.0,0.0,0.0,0.0,0.0,2.0238,2.1016,2.1594,2.1895,2.2899,2.4004,2.5141,2.546,2.4589,2.2134,2.132,2.1289,2.2084,2.1898,2.2017,2.2776,2.2836,2.2734,2.2519,2.2109,2.1504,2.0625,1.9609,1.8789,1.8359,1.7949,1.7695,1.7695,1.7852,1.8008,1.8008,1.8008,1.7974,1.7799,1.7015,1.6656,1.7559,1.8008,1.8261,1.8168,1.7399,1.6521,1.5802,1.5147,1.4713,1.4531,1.4058,1.3441,1.2759,1.2294,1.1768,1.1169,1.0995,1.0995,1.1035,1.1223,1.1404,1.1283,1.1471,1.1717,4.6853,4.6451,4.6351,4.605,4.5623,4.5623,4.5296,4.4744,0.0,0.0,0.0,4.3037,4.2359,4.12,3.9697,3.8466,3.7236,3.5705,3.5554,3.6581,3.7086,3.7913,3.8919,3.9421,3.917,3.814,3.7184,3.6132,3.5177,3.5052,3.5002,3.5102,3.5977,3.6031,3.5357,3.4906,3.45,3.4073,3.4048,3.4098,3.4173,3.3545,3.2742,3.1712,3.0181,2.8599,2.6977,2.541,2.4029,2.2794,2.2221,2.1895,2.182,2.2397,2.2849,2.3075,2.4104,2.4858,2.5159,2.5988,2.6716,2.7329,2.7781,2.7162,2.5144,2.4493,2.4495,2.534,2.4982,2.4872,2.5337,2.4982,2.467,2.4315,2.3959,2.3387,2.2377,2.1174,2.021,1.9605,1.8691,1.8125,1.8125,1.8047,1.8008,1.8008,1.8008,1.8203,1.8523,1.8296,1.8395,1.9567,1.9989,2.0162,1.9925,1.9252,1.8216,1.7295,1.6605,1.6124,1.5752,1.4983,1.4103,1.3249,1.2417,1.1772,1.1223,1.1089,1.1102,1.1196,1.1685,1.2087,1.2167,1.2438,1.2679,4.7018,4.6979,4.6502,4.6276,4.62,4.62,4.5899,4.5296,4.4267,4.374,4.3664,4.3187,4.2384,4.1225,4.0099,3.8969,3.7839,3.6707,3.6505,0.0,3.7638,3.8241,3.8944,3.9421,3.9371,3.8793,3.809,3.7462,3.686,3.6358,3.6179,3.6204,3.6329,3.5855,3.4901,3.4705,3.463,3.46,3.4555,3.4851,3.5232,3.4299,3.3495,3.2842,3.1687,3.0281,2.8649,2.7419,2.6088,2.4556,2.3954,2.3427,2.2945,2.3873,2.4883,2.5871,2.6917,2.8147,2.9553,2.9829,3.0131,3.0633,3.0783,2.9827,2.7555,2.6944,2.7079,2.7975,2.7205,2.6801,2.7203,2.671,2.6295,2.6233,2.6126,2.5546,2.4166,2.2959,2.183,2.0796,1.9406,1.852,1.8461,1.8188,1.8008,1.8008,1.8047,1.8301,1.9043,1.9748,2.0469,2.1334,2.1816,2.1799,2.132,2.0817,1.9826,1.8589,1.7809,1.7343,1.7196,1.6101,1.4922,1.3921,1.3155,1.2347,1.156,1.1335,1.1618,1.2029,1.2472,1.2782,1.2973,1.3601,1.3933,4.759,4.7079,4.6552,4.6326,4.6326,4.6326,4.6175,4.5874,4.507,4.4367,4.379,4.3514,4.266,4.1225,4.0174,3.9094,3.7965,3.686,3.6883,3.7638,3.8216,3.8768,3.9346,3.9873,3.9873,3.932,3.9069,3.8642,3.8115,3.7888,3.7612,3.7262,3.696,3.6408,3.5629,3.5328,3.4981,3.468,3.468,3.4956,3.5483,3.5006,3.4525,3.3972,3.2893,3.1662,3.0306,2.8624,2.7118,2.5795,2.4908,2.433,2.4073,2.5109,2.6189,2.7293,2.8398,2.9603,3.0959,3.1035,3.126,3.1788,3.1838,3.1671,3.1163,3.0104,2.9711,3.0139,2.9366,2.8955,2.915,2.8558,2.8145,2.8145,2.8099,2.764,2.6447,2.5037,2.366,2.2189,2.042,1.9124,1.8656,1.8247,1.8008,1.8027,1.8184,1.8594,1.9238,2.0254,2.1328,2.2301,2.2606,2.2612,2.2454,2.1816,2.0944,2.0026,1.9497,1.8977,1.8573,1.7519,1.6315,1.488,1.4047,1.3353,1.2535,1.2326,1.2616,1.3044,1.3449,1.3736,1.3963,1.4509,1.4736,4.8317,4.7456,4.6778,4.6426,4.6326,4.6326,4.6326,4.6276,4.5849,4.5121,4.4242,4.394,4.3011,4.1656,4.0551,3.9521,3.8542,3.7563,3.7638,3.8542,3.9044,3.9521,4.0049,4.04,4.0275,3.9898,3.9747,3.9471,3.9094,3.8994,3.8567,3.8015,3.7462,3.6835,3.6182,3.5629,3.4981,3.4399,3.4474,3.4831,3.5458,3.5483,3.5282,3.4831,3.3822,3.2717,3.1562,2.9603,2.7921,2.6751,2.5711,2.5209,2.5234,2.6239,2.7404,2.8599,2.9603,3.0633,3.1637,3.1763,3.2014,3.2541,3.2591,3.3018,3.3822,3.2918,3.2147,3.2118,3.1516,3.1131,3.1082,3.056,3.0124,3.0124,3.0124,2.9623,2.861,2.7171,2.5572,2.3804,2.1784,2.0202,1.9416,1.8754,1.8444,1.8398,1.8637,1.9082,1.959,2.0625,2.1795,2.2808,2.3105,2.3115,2.3407,2.2801,2.2028,2.1462,2.1098,2.0656,1.997,1.9196,1.8013,1.6363,1.5518,1.49,1.4089,1.3909,1.4086,1.4439,1.4712,1.4902,1.4928,1.519,1.5284,4.9578,4.8523,4.7543,4.6778,4.6386,4.6301,4.6386,4.6361,4.625,4.5899,4.5305,4.4267,4.352,4.2735,4.1681,4.0877,4.0249,3.9672,3.9722,4.0224,4.0325,4.0651,4.1025,4.0752,4.0475,4.035,3.9948,3.9697,3.9546,3.912,3.8592,3.8015,3.7437,3.6684,3.5658,3.5056,3.4299,3.3269,3.3721,3.443,3.5433,3.5483,3.5483,3.5408,3.4399,3.3294,3.2164,3.0532,2.8875,2.7344,2.6675,2.6348,2.6449,2.7369,2.8674,3.0231,3.0934,3.1738,3.2835,3.296,3.3169,3.3671,3.3746,3.3997,3.46,3.4525,3.4335,3.4045,3.3591,3.3129,3.3021,3.2557,3.2253,3.2206,3.2206,3.1763,3.033,2.906,2.7569,2.5654,2.3729,2.2072,2.1401,2.0366,1.9557,1.9138,1.9394,1.9863,2.0468,2.1211,2.2285,2.334,2.3686,2.3686,2.3732,2.3738,2.303,2.2409,2.2302,2.1967,2.1381,2.0529,1.9405,1.8121,1.7497,1.6836,1.6275,1.6086,1.6054,1.6004,1.614,1.6264,1.6123,1.5994,1.5691,5.0856,4.9889,4.872,4.7949,4.746,4.7434,4.7409,4.7434,4.7409,4.728,4.6997,4.62,4.4954,4.3438,4.2986,4.2509,4.1957,4.1731,4.1756,4.1957,4.1982,4.1907,4.1781,4.1605,4.1178,4.0551,4.0275,3.9998,3.9697,3.9446,3.922,3.8919,3.8115,3.7262,3.6483,3.5328,3.4173,3.3162,3.3294,3.3646,3.4148,3.5006,3.5483,3.5408,3.4776,3.3872,3.2717,3.116,2.9654,2.8348,2.772,2.7595,2.7921,2.8674,2.9829,3.1461,3.2717,3.3545,3.4022,3.4048,3.4299,3.4781,3.4831,3.5102,3.5629,3.5705,3.5633,3.549,3.4782,3.4202,3.4135,3.3952,3.3836,3.3836,3.3836,3.3457,3.2589,3.1168,2.9746,2.8368,2.6114,2.4294,2.3358,2.1736,2.0394,1.9816,1.9844,2.0331,2.1212,2.1875,2.2754,2.3789,2.3965,2.3809,2.3769,2.3555,2.3164,2.2711,2.2691,2.2734,2.2262,2.1842,2.0876,1.9474,1.9109,1.8608,1.7922,1.8002,1.8062,1.7925,1.7431,1.7293,1.725,1.6942,1.657,5.2653,5.1702,5.0684,4.9834,4.9196,4.9169,4.9063,4.8873,4.8873,4.8873,4.882,4.8395,4.7144,4.5325,4.4427,4.3714,4.3179,4.3017,4.2986,4.2986,4.2986,4.2816,4.2439,4.2263,4.1731,4.1028,4.0651,4.0224,3.9747,3.9697,3.9697,3.9546,3.8718,3.7889,3.7111,3.568,3.4248,3.2968,3.2968,3.2943,3.2893,3.4248,3.5182,3.5382,3.4806,3.4048,3.3136,3.1486,3.0181,2.9189,2.8775,2.89,2.954,3.0131,3.1135,3.2566,3.3947,3.468,3.468,3.468,3.4931,3.5408,3.5483,3.578,3.6279,3.6405,3.6405,3.6329,3.5629,3.5157,3.5177,3.5177,3.5177,3.5152,3.5177,3.4944,3.4283,3.3022,3.1807,3.0568,2.8375,2.6348,2.4859,2.3105,2.1697,2.1086,2.0836,2.0997,2.1983,2.2512,2.3036,2.4141,2.3965,2.3633,2.3594,2.3379,2.2906,2.2676,2.2754,2.3164,2.2793,2.2524,2.2129,2.0802,2.0655,2.0435,1.9968,1.9949,2.0044,1.9879,1.9383,1.8728,1.8758,1.8343,1.7959,5.5066,5.4189,5.3582,5.2531,5.1511,5.1484,5.1153,5.0546,5.0546,5.0602,5.0574,5.0491,4.9912,4.8539,4.6081,4.4245,4.3482,4.3229,4.3062,4.3037,4.3011,4.2986,4.2911,4.2464,4.2187,4.1911,4.1078,4.0325,3.9772,3.9697,3.9697,3.9647,3.9069,3.8266,3.7236,3.6107,3.4405,3.2717,3.2867,3.2591,3.1863,3.3144,3.4424,3.5107,3.4474,3.3646,3.2968,3.1486,3.0331,2.9779,2.9729,3.0181,3.1185,3.1813,3.2667,3.3746,3.4424,3.4731,3.4756,3.4781,3.4981,3.5433,3.5558,3.578,3.6329,3.648,3.6505,3.643,3.6405,3.6329,3.6329,3.6179,3.6204,3.6204,3.6279,3.5887,3.5205,3.4563,3.3557,3.2023,3.0262,2.8058,2.5318,2.4399,2.3752,2.3175,2.2877,2.2839,2.3017,2.3048,2.347,2.3873,2.3744,2.3159,2.3159,2.314,2.275,2.2539,2.2891,2.3535,2.3276,2.2984,2.2434,2.2084,2.1923,2.1842,2.1823,2.1873,2.1953,2.1684,2.1083,2.0653,2.0053,2.0079,1.9613,5.608,5.5081,5.4884,5.4036,5.2934,5.2961,5.2539,5.192,5.1892,5.192,5.1892,5.1892,5.1311,5.0183,4.8544,4.6819,4.5093,4.4358,4.384,4.3539,4.3514,4.3338,4.3017,4.2816,4.2539,4.2187,4.181,4.1103,4.0249,3.9873,3.9697,3.9597,3.9145,3.8467,3.7663,3.6609,3.5127,3.347,3.3194,3.2692,3.1964,3.2164,3.2667,3.337,3.3395,3.3093,3.2541,3.1286,3.0507,3.0331,3.0633,3.1311,3.2441,3.3671,3.4455,3.4951,3.5479,3.578,3.578,3.578,3.5855,3.6031,3.6056,3.6132,3.6405,3.6707,3.6885,3.6935,3.7236,3.7412,3.7262,3.6857,3.6405,3.6405,3.643,3.6332,3.5962,3.5475,3.4739,3.3538,3.1755,2.9299,2.7261,2.6129,2.5616,2.4956,2.4576,2.4341,2.4241,2.4145,2.4139,2.4002,2.3984,2.3867,2.3574,2.3257,2.2945,2.2691,2.2828,2.314,2.314,2.314,2.2769,2.2594,2.2598,2.2832,2.2741,2.2757,2.2936,2.2892,2.2342,2.1717,2.1186,2.1148,2.0658,5.7433,5.672,5.6691,5.6026,5.5068,5.5039,5.4546,5.3849,5.3738,5.3622,5.3477,5.3419,5.2895,5.1942,5.1084,4.9776,4.7822,4.6124,4.4891,4.4382,4.4356,4.4107,4.3593,4.3572,4.3369,4.3038,4.2808,4.2172,4.1101,4.0695,4.044,4.0211,3.9829,3.9396,3.8734,3.7715,3.634,3.4863,3.4099,3.3437,3.2749,3.2469,3.2546,3.2902,3.3157,3.2634,3.1527,3.0733,3.0557,3.0884,3.1537,3.2616,3.4073,3.5203,3.5805,3.5855,3.6157,3.6405,3.6405,3.6405,3.6405,3.6405,3.6405,3.6455,3.6656,3.6985,3.7236,3.7487,3.7739,3.799,3.7864,3.7337,3.6958,3.6885,3.6885,3.6933,3.6933,3.6584,3.5834,3.461,3.2773,3.0597,2.8666,2.7917,2.7275,2.6577,2.6111,2.576,2.5378,2.5081,2.4892,2.4375,2.4322,2.4466,2.4476,2.4339,2.3628,2.3264,2.3197,2.333,2.3389,2.3345,2.3306,2.3169,2.3242,2.3535,2.3648,2.3599,2.3607,2.3663,2.3289,2.264,2.2346,2.2171,2.1581,5.9045,5.8931,5.9099,5.8459,5.7726,5.7666,5.7199,5.6042,5.6004,5.5462,5.4934,5.5027,5.456,5.4038,5.3087,5.2452,5.1201,4.8375,4.657,4.5933,4.5826,4.5485,4.4855,4.4909,4.483,4.4699,4.4174,4.3363,4.2446,4.234,4.2025,4.1529,4.1474,4.1133,4.0559,3.9402,3.7939,3.6516,3.5676,3.4811,3.3826,3.4009,3.4245,3.4297,3.3971,3.2774,3.0429,3.0186,3.0651,3.1584,3.2575,3.4142,3.5848,3.6402,3.6405,3.6452,3.6477,3.6455,3.6505,3.6556,3.6606,3.6606,3.6505,3.6782,3.7111,3.7287,3.7538,3.7939,3.8115,3.814,3.814,3.8065,3.7939,3.7965,3.7814,3.7814,3.7864,3.7889,3.7136,3.5082,3.3471,3.1925,3.0269,2.9343,2.8754,2.79,2.7388,2.6857,2.6244,2.5839,2.5509,2.5162,2.5093,2.5284,2.5425,2.5482,2.4625,2.3927,2.389,2.392,2.3969,2.3969,2.3861,2.3762,2.3854,2.4147,2.4238,2.4175,2.4028,2.3978,2.3666,2.3275,2.293,2.258,2.2523,5.9099,5.9099,5.9099,5.874,5.8171,5.8141,5.7393,5.6278,5.6218,5.5807,5.5269,5.5209,5.4976,5.4568,5.3942,5.339,5.291,5.1307,4.9912,4.8763,4.8545,4.7947,4.7158,4.6995,4.6805,4.6317,4.5799,4.5414,4.5006,4.4598,4.432,4.413,4.3699,4.3209,4.2583,4.1366,3.9924,3.8265,3.7531,3.6429,3.4962,3.4962,3.515,3.5201,3.5089,3.4842,3.4633,3.3225,3.2835,3.356,3.4461,3.5526,3.6667,3.7257,3.7461,3.7534,3.7461,3.7569,3.7728,3.756,3.7437,3.7487,3.7487,3.7563,3.7764,3.809,3.8366,3.8642,3.8944,3.917,3.917,3.917,3.8818,3.809,3.799,3.8065,3.8015,3.7437,3.6458,3.5357,3.3953,3.2421,3.1215,3.053,2.9841,2.8856,2.8527,2.8076,2.6925,2.6806,2.6247,2.537,2.5705,2.6257,2.6497,2.6933,2.68,2.5994,2.5659,2.5136,2.4985,2.4808,2.4674,2.449,2.4605,2.4597,2.4707,2.457,2.4316,2.3965,2.346,2.3149,2.2964,2.2804,2.2655,5.9099,5.9099,5.9099,5.889,5.8501,5.8471,5.7902,5.6974,5.6915,5.6376,5.5688,5.5568,5.5317,5.4934,5.4539,5.4282,5.4097,5.3733,5.2948,5.1803,5.0829,4.9939,4.8794,4.8458,4.8178,4.7763,4.7393,4.7085,4.6911,4.6623,4.6315,4.6034,4.5697,4.5144,4.4443,4.3248,4.1735,4.0027,3.9005,3.7718,3.6252,3.6039,3.6256,3.6427,3.6831,3.7483,3.8116,3.7303,3.6672,3.6511,3.6946,3.7625,3.8168,3.8484,3.8666,3.8692,3.8692,3.8678,3.8625,3.8185,3.799,3.799,3.799,3.8115,3.8316,3.8718,3.8969,3.9195,3.9446,3.9697,3.9672,3.9697,3.9346,3.8743,3.8668,3.8617,3.8492,3.7839,3.7161,3.6433,3.5278,3.3822,3.2616,3.1838,3.1085,3.0127,2.9816,2.9395,2.8216,2.7996,2.7165,2.6582,2.673,2.7217,2.7599,2.8168,2.887,2.8342,2.7767,2.7041,2.6496,2.6209,2.5944,2.5554,2.5471,2.4977,2.498,2.4414,2.4023,2.3633,2.3389,2.2949,2.2695,2.2656,2.245,5.9099,5.9099,5.9099,5.9099,5.9039,5.9039,5.862,5.8112,5.8022,5.7334,5.6406,5.6278,5.5867,5.5388,5.5227,5.5147,5.5128,5.5027,5.4896,5.4251,5.2988,5.1426,5.0421,4.976,4.9416,4.9136,4.905,4.8735,4.8373,4.8258,4.7874,4.754,4.7396,4.7004,4.6286,4.5035,4.3386,4.1663,4.0302,3.8695,3.6908,3.7376,3.7777,3.793,3.9089,4.0107,4.1011,4.1778,4.144,3.994,3.9717,3.99,4.0039,4.0065,4.0118,4.0192,4.0092,3.9886,3.9384,3.8958,3.8489,3.8464,3.844,3.8366,3.8944,3.9045,3.917,3.9546,3.9672,3.9697,3.9697,3.9697,3.9647,3.9672,3.9496,3.9521,3.9597,3.9069,3.8391,3.7864,3.701,3.5776,3.3997,3.3319,3.2466,3.1521,3.1073,3.0564,2.9861,2.9318,2.8867,2.8457,2.8099,2.8217,2.8549,2.9302,3.0081,3.0782,3.0087,2.9299,2.8231,2.7701,2.7448,2.6947,2.6418,2.5801,2.5228,2.4901,2.4346,2.3954,2.3513,2.2824,2.2565,2.2673,2.2352,5.9099,5.9099,5.9099,5.9099,5.9099,5.9099,5.874,5.8171,5.8141,5.7693,5.6974,5.6855,5.6496,5.5957,5.5897,5.5658,5.5329,5.5209,5.5209,5.5099,5.4645,5.3858,5.3059,5.2349,5.1708,5.1276,5.1061,5.0988,5.0425,5.0194,5.0153,5.01,4.9457,4.9238,4.8886,4.6845,4.5027,4.346,4.1745,3.9904,3.8368,3.8604,3.9447,4.0453,4.1568,4.3046,4.4566,4.5585,4.4647,4.2012,4.1663,4.1575,4.1515,4.1622,4.1793,4.1934,4.182,4.168,4.1426,4.0848,4.0378,4.013,3.9852,3.9804,3.9728,3.9625,3.9598,3.9697,3.9697,3.9697,3.9697,3.9697,3.9697,3.9697,3.9697,3.9697,3.9597,3.922,3.8844,3.8517,3.7337,3.6006,3.4926,3.4048,3.3194,3.2089,3.178,3.1839,3.1265,3.0604,3.0138,2.9633,2.9337,2.9322,2.9658,3.0399,3.1363,3.2742,3.2587,3.1906,3.0592,2.9376,2.9181,2.8871,2.8187,2.7607,2.6777,2.6162,2.5435,2.4828,2.4415,2.4089,2.3283,2.2997,2.2449,5.9099,5.9099,5.9099,5.9099,5.9099,5.9099,5.889,5.859,5.853,5.8141,5.7633,5.7513,5.7154,5.6585,5.6555,5.6196,5.5658,5.5598,5.5448,5.5209,5.5128,5.474,5.4112,5.3503,5.2965,5.2636,5.2336,5.193,5.1571,5.1379,5.1229,5.1016,5.0794,5.0495,4.997,4.8267,4.6501,4.5024,4.321,4.1235,3.9469,3.9888,4.0307,4.1354,4.2701,4.4766,4.683,4.7788,4.6875,4.4771,4.3874,4.3518,4.3403,4.3536,4.3686,4.3825,4.3686,4.3547,4.3258,4.2647,4.2061,4.1667,4.1246,4.082,4.0415,4.0032,3.9697,3.9697,3.9697,3.9697,3.9697,3.9697,3.9697,3.9697,3.9697,3.9697,3.9697,3.9446,3.9245,3.8894,3.799,3.6784,3.583,3.5077,3.4223,3.3495,3.3301,3.3201,3.2875,3.2114,3.1461,3.1035,3.0357,3.0163,3.0234,3.0857,3.1705,3.3114,3.402,3.3558,3.2623,3.118,3.0925,3.0622,2.9991,2.9289,2.8447,2.7675,2.6992,2.6433,2.5937,2.5317,2.4576,2.3826,2.3186,5.9099,5.9099,5.9099,5.9099,5.9099,5.9099,5.9069,5.9099,5.9039,5.874,5.8291,5.8231,5.7842,5.7214,5.7214,5.6825,5.6218,5.6128,5.5688,5.5359,5.5149,5.488,5.4431,5.3922,5.3503,5.3264,5.2665,5.2366,5.2067,5.1588,5.1319,5.1229,5.1169,5.0853,5.0226,4.9015,4.7758,4.6411,4.4556,4.2671,4.1175,4.1175,4.1294,4.1564,4.3658,4.5783,4.7698,4.8716,4.8402,4.6934,4.6146,4.5768,4.5768,4.5739,4.5739,4.578,4.5688,4.5476,4.5032,4.4414,4.376,4.3312,4.2552,4.1752,4.1383,4.0747,4.0256,4.0178,3.9873,3.9948,3.9848,3.9772,3.9697,3.9697,3.9697,3.9697,3.9697,3.9697,3.9697,3.9647,3.8693,3.7939,3.7161,3.6458,3.5658,3.4951,3.4856,3.4926,3.4449,3.3696,3.3093,3.2591,3.1788,3.0834,3.0969,3.122,3.2098,3.3194,3.4354,3.4479,3.4135,3.3162,3.277,3.2321,3.1669,3.0996,3.0186,2.9398,2.8676,2.8025,2.7579,2.6805,2.5978,2.5288,2.4615,5.9099,5.9099,5.9099,5.9099,5.9099,5.9099,5.9099,5.9099,5.9099,5.9009,5.889,5.889,5.8501,5.7902,5.7842,5.7304,5.6376,5.6278,5.5807,5.5269,5.5209,5.5149,5.494,5.47,5.4431,5.4072,5.3862,5.3234,5.2426,5.2067,5.1708,5.1319,5.1229,5.1092,5.081,4.9703,4.873,4.7638,4.5903,4.4197,4.288,4.2312,4.2372,4.2821,4.5185,4.698,4.8087,4.897,4.9105,4.8625,4.8083,4.7687,4.7691,4.76,4.757,4.7662,4.76,4.7398,4.7102,4.6518,4.6081,4.5468,4.4682,4.4003,4.3271,4.219,4.1615,4.1349,4.1137,4.0701,4.0375,3.9948,3.9848,3.9848,3.9772,3.9747,3.9697,3.9697,3.9697,3.9546,3.9069,3.8316,3.7412,3.7487,3.696,3.6458,3.6408,3.6609,3.6031,3.5253,3.45,3.3828,3.2667,3.1712,3.1562,3.1813,3.2491,3.3269,3.4349,3.5157,3.481,3.4632,3.4047,3.372,3.3383,3.27,3.1995,3.1177,3.0496,2.989,2.9266,2.8672,2.7962,2.7037,2.6336,5.9099,5.9099,5.9099,5.9099,5.9099,5.9099,5.9099,5.9099,5.9099,5.9099,5.9099,5.9099,5.889,5.859,5.853,5.8022,5.7184,5.6705,5.6256,5.5777,5.5658,5.5478,5.5209,5.5179,5.497,5.464,5.4311,5.3743,5.3174,5.2516,5.2007,5.1648,5.1409,5.1229,5.1139,5.0242,4.9613,4.8925,4.7249,4.5603,4.4377,4.3658,4.3599,4.4496,4.6471,4.8057,4.879,4.9703,5.0122,5.009,4.9829,4.9317,4.8981,4.88,4.88,4.8846,4.8846,4.8634,4.845,4.8265,4.7882,4.7376,4.6602,4.5776,4.4784,4.3565,4.2605,4.2157,4.1653,4.1125,4.0927,4.0727,4.0475,4.04,4.0224,4.0099,4.0023,3.9873,3.9697,3.9597,3.9195,3.8693,3.8291,3.8216,3.8115,3.7563,3.7287,3.7437,3.7437,3.6634,3.5604,3.47,3.342,3.2566,3.229,3.2441,3.2918,3.3596,3.4299,3.4981,3.5169,3.5133,3.5073,3.4843,3.4678,3.4626,3.3991,3.3144,3.2325,3.1758,3.1204,3.0652,3.0,2.9117,2.8602,5.9099,5.9099,5.9099,5.9099,5.9099,5.9099,5.9099,5.9099,5.9099,5.9099,5.9099,5.9099,5.9069,5.9069,5.9039,5.871,5.8022,5.7334,5.6645,5.6107,5.6128,5.5718,5.5329,5.5179,5.5179,5.5119,5.47,5.4311,5.3832,5.3144,5.2636,5.2306,5.1858,5.1768,5.1468,5.0853,5.0524,5.0226,4.8596,4.695,4.5663,4.4855,4.4706,4.5364,4.7249,4.8566,4.9359,5.0272,5.1139,5.1229,5.1229,5.0631,4.9912,4.9599,4.9553,4.9613,4.9687,4.9672,4.9656,4.9566,4.9353,4.8854,4.8202,4.7396,4.6336,4.5091,4.4068,4.3153,4.2597,4.1799,4.1562,4.1336,4.1307,4.1178,4.0852,4.0651,4.045,4.0074,3.9923,3.9798,3.9496,3.9044,3.8843,3.8743,3.8743,3.8693,3.8417,3.8266,3.8241,3.7839,3.6734,3.568,3.4424,3.3169,3.2767,3.2365,3.2918,3.3395,3.4098,3.46,3.5132,3.5319,3.5425,3.5991,3.5946,3.5794,3.5401,3.4591,3.3891,3.3571,3.3096,3.2512,3.184,3.121,3.0806,5.9099,5.9099,5.9099,5.9099,5.9099,5.9099,5.9099,5.9099,5.9099,5.9099,5.9099,5.9099,5.9099,5.9099,5.9099,5.874,5.8141,5.7573,5.6915,5.6406,5.6368,5.5987,5.5508,5.5359,5.5269,5.5179,5.497,5.473,5.4371,5.3952,5.3414,5.3084,5.2815,5.2725,5.2516,5.2217,5.1738,5.1349,4.9793,4.8207,4.683,4.5603,4.5035,4.5544,4.7652,4.891,4.9464,5.0451,5.1229,5.1229,5.1229,5.1079,5.084,5.075,5.075,5.072,5.069,5.0661,5.0661,5.078,5.07,5.0372,4.9798,4.9127,4.8198,4.7045,4.5934,4.5022,4.4044,4.3061,4.2713,4.2271,4.1645,4.1462,4.1225,4.1053,4.0701,4.0475,4.0425,4.045,3.9998,3.9546,3.9446,3.932,3.9245,3.922,3.9044,3.8994,3.9044,3.8492,3.7563,3.6533,3.5504,3.4248,3.3169,3.2641,3.2591,3.2918,3.3445,3.3872,3.4474,3.5157,3.568,3.6282,3.6531,3.631,3.5959,3.5658,3.5303,3.4801,3.453,3.431,3.3697,3.3138,3.2967,5.9099,5.9099,5.9099,5.9099,5.9099,5.9099,5.9099,5.9099,5.9099,5.9099,5.9099,5.9099,5.9099,5.9099,5.9099,5.889,5.856,5.8321,5.7782,5.7304,5.7154,5.6825,5.6137,5.5867,5.5718,5.5598,5.5388,5.5059,5.47,5.4341,5.4072,5.3713,5.3384,5.3174,5.3114,5.2845,5.2546,5.1977,5.0601,4.8955,4.7309,4.5723,4.5035,4.5843,4.7472,4.882,4.9494,5.0541,5.1199,5.1229,5.1229,5.1229,5.1229,5.1229,5.1229,5.1229,5.1229,5.1229,5.1229,5.1229,5.1075,5.0981,5.0728,5.0346,4.964,4.8667,4.761,4.6578,4.5792,4.4679,4.4144,4.3454,4.2863,4.2297,4.1932,4.171,4.1433,4.1103,4.1103,4.1128,4.0626,4.0249,4.0124,3.9973,3.9798,3.9697,3.9622,3.9697,3.9823,3.9069,3.8191,3.686,3.573,3.46,3.3495,3.2968,3.2591,3.2792,3.2943,3.337,3.4073,3.4881,3.5855,3.6684,3.6734,3.6935,3.7036,3.696,3.6508,3.6107,3.5981,3.5784,3.5465,3.513,3.4898,5.9099,5.9099,5.9099,5.9099,5.9099,5.9099,5.9099,5.9099,5.9099,5.9099,5.9099,5.9099,5.9099,5.9099,5.9099,5.9099,5.9099,5.9039,5.862,5.8112,5.7962,5.7693,5.7064,5.6526,5.6158,5.5957,5.5478,5.5209,5.5029,5.47,5.4461,5.4311,5.3803,5.3593,5.3653,5.3533,5.3054,5.2366,5.1109,4.9434,4.7369,4.5603,4.4825,4.5574,4.7309,4.8626,4.9359,5.0541,5.1139,5.1229,5.1229,5.1229,5.1229,5.1229,5.1229,5.1229,5.1229,5.1229,5.1229,5.1229,5.1182,5.1182,5.1182,5.0947,5.0442,4.9562,4.8717,4.7633,4.6916,4.624,4.5448,4.4941,4.4264,4.3555,4.2975,4.2507,4.2254,4.1998,4.1789,4.1584,4.1153,4.1028,4.0953,4.0676,4.0501,4.045,4.0375,4.035,4.035,3.9597,3.8567,3.701,3.5755,3.4675,3.3822,3.3294,3.2993,3.2986,3.2918,3.3068,3.3897,3.4756,3.5755,3.6734,3.7713,3.7939,3.809,3.799,3.7412,3.7111,3.7287,3.7186,3.6689,3.6538,3.637,5.9099,5.9099,5.9099,5.9099,5.9099,5.9099,5.9099,5.9099,5.9099,5.9099,5.9099,5.9099,5.9099,5.9099,5.9099,5.9099,5.9099,5.9069,5.88,5.8321,5.8231,5.7902,5.7154,5.6466,5.6487,5.6346,5.5688,5.5239,5.5269,5.5179,5.5029,5.494,5.485,5.488,5.464,5.4281,5.4072,5.3623,5.2007,4.9793,4.7519,4.5873,4.5603,4.6381,4.7489,4.8656,4.9449,5.0541,5.1199,5.1229,5.1229,5.1229,5.1229,5.1229,5.1229,5.1229,5.1229,5.1229,5.1229,5.1229,5.1229,5.1229,5.1229,5.1011,5.0769,5.0319,4.958,4.8696,4.8173,4.762,4.6925,4.6191,4.5449,4.4804,4.4266,4.3659,4.3156,4.2885,4.2645,4.2238,4.1856,4.1936,4.1961,4.153,4.1175,4.1125,4.1075,4.1025,4.0752,3.9948,3.927,3.7814,3.6458,3.5378,3.4525,3.3947,3.3571,3.3345,3.3144,3.3119,3.4073,3.5006,3.5629,3.6634,3.7764,3.8492,3.8341,3.8165,3.8015,3.8065,3.814,3.8065,3.7864,3.7789,3.7713,5.9099,5.9099,5.9099,5.9099,5.9099,5.9099,5.9099,5.9099,5.9099,5.9099,5.9099,5.9099,5.9099,5.9099,5.9099,5.9099,5.9099,5.9099,5.8979,5.874,5.862,5.8501,5.8201,5.7633,5.7274,5.7004,5.6645,5.6406,5.6107,5.5538,5.5209,5.5209,5.5209,5.5119,5.5209,5.491,5.4551,5.3533,5.1588,4.9224,4.7459,4.6172,4.5813,4.6817,4.7818,4.8805,4.9823,5.0631,5.1199,5.1229,5.1229,5.1229,5.1229,5.1229,5.1229,5.1229,5.1229,5.1229,5.1229,5.1229,5.1229,5.1229,5.1259,5.1285,5.1381,5.1261,5.1198,5.1327,5.0435,4.9567,4.8641,4.7884,4.6998,4.6294,4.5688,4.4942,4.4302,4.3813,4.346,4.3051,4.264,4.27,4.2624,4.2242,4.176,4.1451,4.1376,4.13,4.0927,4.0199,3.9546,3.8818,3.7513,3.6282,3.5529,3.4851,3.4399,3.4123,3.3746,3.3897,3.4625,3.5429,3.5931,3.6584,3.7613,3.8115,3.8341,3.8668,3.8818,3.8919,3.8969,3.8919,3.8843,3.8894,3.8667,5.9099,5.9099,5.9099,5.9099,5.9099,5.9099,5.9099,5.9099,5.9099,5.9099,5.9099,5.9099,5.9099,5.9099,5.9099,5.9099,5.9099,5.9099,5.9099,5.9099,5.9099,5.9069,5.874,5.8381,5.8052,5.8112,5.7244,5.6974,5.6705,5.6256,5.5718,5.5448,5.5269,5.5209,5.5209,5.5089,5.476,5.3653,5.1349,4.9374,4.7908,4.6561,4.6681,4.7429,4.8386,4.9314,5.0345,5.1379,5.1768,5.1798,5.1858,5.1917,5.1887,5.1917,5.1887,5.1887,5.1917,5.1887,5.1738,5.1558,5.1289,5.1229,5.1289,5.1421,5.1989,5.2217,5.2456,5.274,5.1924,5.1072,5.0403,4.9316,4.8352,4.761,4.6995,4.6267,4.5635,4.5102,4.4457,4.3859,4.353,4.3305,4.3203,4.2891,4.2452,4.1882,4.1731,4.1656,4.1229,4.0676,4.0224,3.9722,3.9044,3.7764,3.6709,3.6006,3.5458,3.4951,3.462,3.4494,3.5123,3.5604,3.6081,3.681,3.7686,3.8115,3.8542,3.9145,3.9724,3.9625,3.9601,3.9854,3.988,3.9905,3.9474,5.9099,5.9099,5.9099,5.9099,5.9099,5.9099,5.9099,5.9099,5.9099,5.9099,5.9099,5.9099,5.9099,5.9099,5.9099,5.9099,5.9099,5.9099,5.9099,5.9099,5.9099,5.9099,5.8919,5.856,5.8201,5.8112,5.7693,5.7393,5.7124,5.7124,5.6555,5.6137,5.5658,5.5329,5.5239,5.5209,5.4521,5.3443,5.1648,5.0361,4.9075,4.7967,4.7638,4.8386,4.9464,5.0405,5.1122,5.2247,5.2785,5.2785,5.2755,5.2755,5.2665,5.2695,5.2695,5.2695,5.2695,5.2695,5.2576,5.1977,5.1409,5.1259,5.1409,5.1768,5.2456,5.2336,5.2576,5.3204,5.2673,5.1935,5.1092,5.0231,4.9713,4.9144,4.8594,4.7773,4.7078,4.6347,4.5688,4.4858,4.4396,4.4287,4.3958,4.3753,4.3263,4.2768,4.2633,4.2583,4.2192,4.1713,4.1178,4.0777,4.0501,3.9471,3.8115,3.7362,3.6734,3.6225,3.584,3.5486,3.539,3.5894,3.681,3.7219,3.8026,3.8438,3.8844,3.9601,4.0134,4.016,4.0287,4.0618,4.0683,4.0618,4.0013,5.9099,5.9099,5.9099,5.9099,5.9099,5.9099,5.9099,5.9099,5.9099,5.9099,5.9099,5.9099,5.9099,5.9099,5.9099,5.9099,5.9099,5.9099,5.9099,5.9099,5.9099,5.9099,5.8979,5.889,5.874,5.865,5.8381,5.8321,5.8351,5.7932,5.7663,5.7124,5.6346,5.5927,5.5799,5.5418,5.4491,5.3384,5.2306,5.1169,4.9972,4.9164,4.9015,5.0092,5.0361,5.1439,5.2306,5.2845,5.3114,5.3204,5.3234,5.3294,5.3324,5.3294,5.3294,5.3294,5.3324,5.3294,5.3234,5.2725,5.2456,5.2426,5.2486,5.2636,5.3174,5.3384,5.3773,5.3933,5.3644,5.2921,5.2902,5.2279,5.1689,5.0984,5.0202,4.9337,4.8516,4.7722,4.716,4.6431,4.5768,4.5342,4.4993,4.4642,4.4152,4.3687,4.3572,4.3411,4.2996,4.2574,4.1986,4.163,4.1329,4.0727,3.9396,3.8668,3.8063,3.7604,3.7166,3.7096,3.698,3.732,3.8079,3.832,3.8729,3.9472,4.0042,4.0383,4.0641,4.0719,4.1071,4.1568,4.1484,4.1504,4.0877,5.9099,5.9099,5.9099,5.9099,5.9099,5.9099,5.9099,5.9099,5.9099,5.9099,5.9099,5.9099,5.9099,5.9099,5.9099,5.9099,5.9099,5.9099,5.9099,5.9099,5.9099,5.9099,5.9099,5.9069,5.9009,5.9099,5.9099,5.9039,5.8949,5.862,5.8411,5.8052,5.7363,5.6825,5.6346,5.5957,5.5089,5.3952,5.2845,5.1858,5.0631,4.9942,4.9942,5.105,5.1528,5.2366,5.3234,5.3743,5.3922,5.3922,5.3892,5.3862,5.3803,5.3773,5.3773,5.3773,5.3822,5.3743,5.3713,5.3354,5.3234,5.3025,5.3054,5.3443,5.3982,5.4221,5.4311,5.488,5.4551,5.4221,5.4192,5.3345,5.255,5.1706,5.1316,5.0554,4.9713,4.8945,4.8556,4.808,4.7564,4.7155,4.6247,4.5902,4.5181,4.4696,4.4289,4.4071,4.361,4.3157,4.2564,4.2283,4.2108,4.1404,4.0626,4.0127,3.9625,3.9292,3.9,3.922,3.9228,3.9459,3.9787,4.0375,4.0722,4.0946,4.1608,4.2507,4.2007,4.1298,4.2043,4.2997,4.3121,4.3064,4.2433,5.9099,5.9099,5.9099,5.9099,5.9099,5.9099,5.9099,5.9099,5.9099,5.9099,5.9099,5.9099,5.9099,5.9099,5.9099,5.9099,5.9099,5.9099,5.9099,5.9099,5.9099,5.9099,5.9099,5.9099,5.9099,5.9099,5.9099,5.9099,5.9099,5.8979,5.8949,5.883,5.8231,5.7573,5.7124,5.7034,5.6346,5.5119,5.3773,5.2636,5.1498,5.081,5.105,5.1738,5.2516,5.3384,5.4042,5.4551,5.47,5.473,5.479,5.479,5.482,5.485,5.488,5.491,5.497,5.4999,5.4999,5.3892,5.3503,5.3503,5.3653,5.3832,5.4132,5.4341,5.4521,5.5089,5.47,5.4371,5.4042,5.3713,5.3144,5.2528,5.2167,5.1539,5.07,5.0369,4.9965,4.981,4.9722,4.9386,4.8141,4.7149,4.6377,4.5741,4.5182,4.4752,4.4398,4.3855,4.3314,4.3182,4.3085,4.2652,4.2017,4.1648,4.1223,4.0875,4.0885,4.1126,4.1288,4.1349,4.1791,4.2435,4.2637,4.2763,4.3787,4.4899,4.4303,4.3807,4.4014,4.4612,4.4766,4.48,4.4419,5.9499,5.9369,5.9153,5.9099,5.9099,5.9099,5.9099,5.9099,5.9099,5.9099,5.9099,5.9099,5.9099,5.9099,5.9099,5.9099,5.9099,5.9099,5.9099,5.9099,5.9099,5.9099,5.9099,5.9099,5.9099,5.9099,5.9099,5.9099,5.9099,5.9099,5.9099,5.8979,5.877,5.8171,5.7393,5.7004,5.6436,5.5359,5.461,5.3892,5.2695,5.2336,5.2486,5.3144,5.3683,5.4221,5.488,5.5269,5.5329,5.5359,5.5359,5.5329,5.5329,5.5329,5.5269,5.5239,5.5239,5.5209,5.5149,5.467,5.4581,5.4521,5.4431,5.4491,5.482,5.485,5.4999,5.5089,5.494,5.479,5.476,5.47,5.4192,5.3204,5.2659,5.2043,5.1446,5.1547,5.1472,5.1473,5.1412,5.0803,4.9819,4.8793,4.7968,4.7466,4.6974,4.6137,4.5608,4.4858,4.4209,4.4209,4.4106,4.3818,4.348,4.3277,4.2971,4.2589,4.2762,4.3106,4.3255,4.3199,4.3567,4.4089,4.4316,4.4627,4.5742,4.6681,4.6757,4.6641,4.6695,4.6772,4.7011,4.7152,4.7081,6.0075,5.9713,5.9315,5.9099,5.9099,5.9099,5.9099,5.9099,5.9099,5.9099,5.9099,5.9099,5.9099,5.9099,5.9099,5.9099,5.9099,5.9099,5.9099,5.9099,5.9099,5.9099,5.9099,5.9099,5.9099,5.9099,5.9099,5.9099,5.9099,5.9099,5.9099,5.9099,5.9099,5.862,5.8052,5.7752,5.7423,5.6555,5.5987,5.5359,5.4491,5.4102,5.4192,5.467,5.4999,5.5209,5.5688,5.5837,5.5807,5.5807,5.5807,5.5807,5.5807,5.5837,5.5837,5.5867,5.5867,5.5897,5.5897,5.5897,5.5837,5.5837,5.5508,5.5209,5.5209,5.5119,5.5119,5.5179,5.5239,5.5239,5.5239,5.5269,5.482,5.3832,5.3384,5.2767,5.2438,5.2539,5.2759,5.28,5.2812,5.2129,5.1437,5.0569,4.968,4.9259,4.8817,4.7875,4.6867,4.6084,4.5475,4.5475,4.5502,4.5342,4.5234,4.518,4.4792,4.4348,4.4615,4.5085,4.4862,4.4815,4.5267,4.5766,4.6101,4.6641,4.7736,4.843,4.8623,4.8911,4.9081,4.9169,4.9374,4.909,4.8745,6.0794,6.0263,5.9446,5.9207,5.9153,5.9315,5.9207,5.9099,5.9099,5.9099,5.9099,5.9099,5.9099,5.9099,5.9099,5.9099,5.9099,5.9099,5.9099,5.9099,5.9099,5.9099,5.9099,5.9099,5.9099,5.9099,5.9099,5.9099,5.9099,5.9099,5.9099,5.9099,5.9099,5.8919,5.883,5.868,5.8321,5.7603,5.7124,5.6526,5.5837,5.5478,5.5478,5.5748,5.5918,5.6017,5.6346,5.6526,5.6675,5.6795,5.6915,5.6974,5.7034,5.7064,5.7094,5.7034,5.6944,5.6885,5.6855,5.6795,5.6825,5.6615,5.5957,5.5478,5.5418,5.5598,5.5688,5.5628,5.5658,5.5508,5.5418,5.5359,5.5239,5.47,5.4311,5.3862,5.3414,5.3454,5.3813,5.4003,5.4151,5.368,5.2889,5.2111,5.0965,5.0681,5.0184,4.9522,4.8546,4.7559,4.7047,4.6995,4.7019,4.707,4.696,4.6799,4.6634,4.6133,4.6498,4.6842,4.6645,4.6329,4.658,4.7037,4.7837,4.8626,4.9377,5.0075,5.0636,5.082,5.0441,5.0326,5.0062,4.9823,4.9553,6.194,6.1368,6.0607,6.0324,6.0324,6.0324,5.9902,5.9153,5.9099,5.9099,5.9099,5.9099,5.9099,5.9099,5.9099,5.9099,5.9099,5.9099,5.9099,5.9099,5.9099,5.9099,5.9099,5.9099,5.9099,5.9099,5.9099,5.9153,5.9153,5.9153,5.9153,5.9099,5.9261,5.9207,5.9207,5.9153,5.8734,5.8374,5.8038,5.7513,5.7094,5.6675,5.6555,5.6406,5.6338,5.6316,5.6137,5.6436,5.6526,5.6585,5.6944,5.7094,5.7094,5.7094,5.7094,5.7094,5.7064,5.7064,5.7094,5.7124,5.7184,5.7274,5.6765,5.6675,5.6555,5.6496,5.6466,5.6286,5.6256,5.6196,5.6196,5.6107,5.5957,5.5628,5.5179,5.467,5.4281,5.4132,5.4431,5.4411,5.4639,5.4499,5.3813,5.2902,5.1932,5.1762,5.1416,5.0773,5.0124,4.912,4.8567,4.8468,4.8468,4.8439,4.8368,4.8233,4.8133,4.8066,4.8286,4.8226,4.7684,4.7496,4.776,4.8177,4.8745,4.9703,5.0717,5.1199,5.1229,5.1229,5.0956,5.0883,5.075,5.0481,5.0361,6.3276,6.2697,6.199,6.1671,6.1671,6.1671,6.1235,6.0567,5.9925,5.9583,5.9422,5.9315,5.9207,5.9099,5.9099,5.9099,5.9099,5.9099,5.9099,5.9099,5.9099,5.9099,5.9099,5.9099,5.9099,5.9099,5.9207,5.9369,5.9446,5.9743,5.9796,5.9849,5.9796,5.9796,5.9849,5.9872,5.9668,5.9214,5.879,5.8284,5.8045,5.7835,5.7483,5.6997,5.6757,5.6278,5.6008,5.6398,5.6637,5.6944,5.7543,5.7872,5.7932,5.7932,5.7932,5.7992,5.7992,5.8022,5.8052,5.7992,5.7932,5.7872,5.7842,5.7902,5.7603,5.7363,5.7124,5.6915,5.7004,5.7034,5.7064,5.7034,5.6795,5.6555,5.6017,5.5448,5.5089,5.476,5.47,5.464,5.467,5.465,5.4172,5.3384,5.2935,5.2808,5.239,5.1697,5.1131,5.0464,5.0009,4.9902,4.9854,4.9854,4.9708,4.9504,4.9426,4.9315,4.9287,4.911,4.8641,4.8343,4.8252,4.8805,4.9494,5.0361,5.1063,5.1199,5.1229,5.1229,5.1229,5.1109,5.102,5.099,5.096,6.4675,6.4203,6.3434,6.31,6.31,6.31,6.3052,6.2956,6.1469,6.0451,6.0053,5.9713,5.9422,5.9153,5.9099,5.9099,5.9099,5.9099,5.9099,5.9099,5.9099,5.9099,5.9099,5.9099,5.9099,5.9207,5.9476,5.9819,6.0211,6.068,6.1041,6.1,6.1021,6.1041,6.1093,6.101,6.0969,6.0805,6.0206,5.9674,5.9318,5.9135,5.8907,5.8234,5.7663,5.7152,5.7071,5.7228,5.7446,5.8075,5.862,5.8919,5.8919,5.8919,5.8919,5.8919,5.88,5.88,5.877,5.874,5.886,5.8919,5.9099,5.886,5.8441,5.8082,5.7812,5.7723,5.7812,5.7812,5.7812,5.7812,5.7663,5.7423,5.7004,5.6615,5.6376,5.5927,5.5508,5.5418,5.5269,5.5209,5.479,5.4042,5.3563,5.3653,5.3025,5.2217,5.187,5.1399,5.1125,5.0959,5.0728,5.0603,5.068,5.0496,5.0555,5.0475,5.0312,4.9954,4.9403,4.903,4.8686,4.9224,4.9823,5.0451,5.1003,5.1139,5.1229,5.1229,5.1229,5.1229,5.1229,5.1229,5.1229,6.5359,6.5045,6.4466,6.4203,6.4235,6.4203,6.4203,6.4156,6.3436,6.2189,6.0897,6.0285,5.9766,5.9315,5.9261,5.9261,5.9207,5.9369,5.9153,5.9207,5.9207,5.9369,5.9207,5.9315,5.9207,5.9261,5.966,6.0494,6.1337,6.204,6.2453,6.2453,6.2453,6.2404,6.2436,6.2404,6.2355,6.2355,6.2058,6.1286,6.068,6.039,6.0071,5.942,5.8777,5.8034,5.7821,5.7637,5.7643,5.7828,5.8667,5.8979,5.9099,5.9099,5.9099,5.9099,5.9099,5.9099,5.9099,5.9099,5.9099,5.9099,5.9099,5.9099,5.8979,5.874,5.859,5.856,5.856,5.853,5.8501,5.8501,5.8471,5.8231,5.7932,5.7723,5.7483,5.6915,5.6316,5.6077,5.5897,5.5568,5.5149,5.479,5.4371,5.3683,5.2815,5.2187,5.2097,5.1792,5.1583,5.1387,5.1165,5.1088,5.1229,5.1199,5.102,5.102,5.0807,5.0465,5.0032,4.9853,4.9613,4.9673,5.0062,5.069,5.1109,5.1169,5.1229,5.1229,5.1229,5.1229,5.1229,5.1229,5.1229,6.6139,6.5999,6.5713,6.5581,6.5581,6.5581,6.5581,6.5492,6.509,6.4077,6.2602,6.1558,6.0576,5.9955,5.9849,5.9872,5.9872,5.9902,5.9955,5.9902,5.9872,5.9902,5.9849,5.9872,5.9955,6.0031,6.0856,6.179,6.2729,6.3276,6.3656,6.375,6.375,6.375,6.3703,6.3703,6.375,6.3703,6.375,6.326,6.2319,6.2009,6.1446,6.0787,6.0049,5.934,5.8869,5.8627,5.84,5.8343,5.8911,5.9063,5.9099,5.9099,5.9099,5.9099,5.9099,5.9099,5.9099,5.9099,5.9099,5.9099,5.9099,5.9099,5.9099,5.889,5.889,5.886,5.886,5.886,5.886,5.886,5.886,5.871,5.8171,5.7752,5.7184,5.6526,5.6017,5.5628,5.5508,5.5448,5.5119,5.5089,5.473,5.4581,5.3563,5.3054,5.2815,5.2306,5.2067,5.1798,5.1588,5.1319,5.1229,5.1229,5.1169,5.1199,5.1229,5.0541,4.9972,5.0421,5.0554,5.0122,5.0122,5.09,5.1199,5.1289,5.1229,5.1229,5.1229,5.1229,5.1229,5.1259,5.1229,6.677,6.6812,6.677,6.677,6.6812,6.677,6.6728,6.6686,6.6311,6.5713,6.472,6.3084,6.1972,6.1297,6.1072,6.1072,6.1093,6.1164,6.1144,6.1093,6.1124,6.1195,6.1195,6.1093,6.1246,6.1671,6.2436,6.326,6.4096,6.4649,6.4967,6.4877,6.4877,6.4877,6.491,6.491,6.4922,6.4967,6.4967,6.4922,6.4387,6.3797,6.3018,6.2312,6.167,6.1131,6.0535,6.0021,5.9644,5.94,5.9417,5.9325,5.9315,5.9261,5.9153,5.9153,5.9099,5.9099,5.9099,5.9099,5.9099,5.9099,5.9099,5.9099,5.9099,5.9099,5.9099,5.9099,5.9099,5.9099,5.9099,5.9099,5.9099,5.9039,5.8441,5.7842,5.7154,5.6496,5.6047,5.5568,5.5359,5.5329,5.5209,5.5179,5.5119,5.5029,5.479,5.4461,5.3952,5.3204,5.2665,5.2336,5.2007,5.1738,5.1439,5.1229,5.1229,5.1229,5.1109,5.0391,5.0002,5.0481,5.0511,4.9823,5.0062,5.096,5.1319,5.1409,5.1349,5.1379,5.1498,5.1588,5.1468,5.1468,5.1289,6.6812,6.6812,6.6812,6.6812,6.6812,6.6812,6.6812,6.677,6.6516,6.6095,6.5537,6.5012,6.397,6.2568,6.26,6.2583,6.2643,6.2629,6.2583,6.2568,6.2788,6.271,6.2646,6.277,6.2907,6.3324,6.3937,6.4708,6.518,6.5845,6.6311,6.6225,6.6268,6.6268,6.6311,6.6268,6.6139,6.6095,6.6139,6.6139,6.5845,6.5192,6.4433,6.3838,6.346,6.2912,6.2321,6.1615,6.1053,6.0646,6.0332,6.0067,5.9819,5.9553,5.9369,5.9153,5.9099,5.9099,5.9099,5.9099,5.9099,5.9099,5.9099,5.9099,5.9099,5.9099,5.9099,5.9099,5.9099,5.9099,5.9099,5.9099,5.9099,5.9099,5.874,5.8291,5.7723,5.7334,5.6974,5.6316,5.5748,5.5538,5.5209,5.5179,5.5179,5.5029,5.473,5.4431,5.4341,5.3803,5.3324,5.2995,5.2665,5.2247,5.2007,5.1349,5.1229,5.1229,5.105,5.0421,5.0212,5.0631,5.0451,4.9703,5.0152,5.1079,5.1349,5.1528,5.1798,5.1858,5.1977,5.2037,5.1858,5.1588,5.1319]}]]